GFSCGP_con_mucape_003.txt.gz
CAPE
0 0 0 0 0 0 0 0 0 0 0 0 0 0 0 0 0 0 42 16 31 31 0 0 3 20 63 203 222 165 83 19 54 102 142 54 18 3 0 0 0 0 0 0
0 0 0 0 0 0 0 0 0 0 0 0 0 0 0 0 0 2 15 23 4 48 79 98 134 135 81 156 193 137 115 82 39 48 50 39 10 1 0 0 0 0 0 0
0 0 0 0 0 0 0 0 2 0 0 0 2 0 0 0 0 0 0 0 0 0 0 56 125 133 121 88 141 165 147 109 83 57 42 29 8 4 0 0 0 0 0 0
0 0 0 0 0 0 0 0 0 0 0 0 0 0 0 0 0 0 0 0 0 0 0 0 5 2 0 2 0 2 11 24 8 3 0 0 0 0 0 0 2 0 0 0
0 0 0 0 0 0 0 0 0 0 0 0 0 8 36 0 0 0 0 0 0 0 0 0 0 0 0 0 0 0 0 0 0 0 0 0 0 0 0 0 0 0 0 0
0 0 0 0 0 0 0 0 0 6 0 11 42 47 12 8 1 0 0 0 0 0 0 0 0 0 0 0 0 0 0 0 0 0 0 0 0 0 0 0 0 0 0 0
0 0 0 0 0 0 0 2 73 36 55 53 115 42 52 23 1 0 5 2 0 0 0 0 0 0 0 0 0 0 0 0 0 0 0 0 0 0 0 0 2 0 1 4
0 16 0 0 0 4 0 0 14 7 7 21 22 2 1 17 19 24 2 0 0 0 0 0 0 0 1 0 0 0 0 0 0 0 0 0 0 1 10 0 0 0 0 0
3 0 0 0 0 0 0 0 0 0 0 0 2 6 24 28 21 19 0 0 2 4 0 0 0 0 1 2 1 0 0 2 11 18 15 16 26 29 20 6 0 0 0 0
0 0 0 0 0 0 0 0 0 0 0 0 1 45 28 6 2 2 0 0 0 3 1 0 1 5 0 0 0 0 12 30 30 35 40 36 55 43 39 0 0 0 0 12
0 0 0 0 0 0 0 1 0 0 0 0 0 1 43 17 0 0 0 0 0 0 0 0 0 1 0 2 10 4 12 2 4 22 18 25 24 8 0 0 0 0 0 1
0 0 0 0 0 0 0 0 0 0 0 0 0 0 5 2 5 0 0 0 0 0 0 0 0 0 0 0 0 0 0 0 0 0 0 0 0 6 2 0 2 0 0 0
0 0 0 0 0 0 0 0 0 0 0 0 0 0 26 32 11 1 0 0 0 0 0 0 0 0 0 4 3 0 0 0 0 6 42 49 43 23 2 21 12 2 0 0
0 0 0 0 0 0 0 0 0 0 0 0 0 0 0 12 6 0 0 0 0 0 0 0 0 0 0 1 0 0 0 0 0 24 45 44 40 29 15 3 7 2 0 0
0 0 0 0 0 0 0 0 0 0 0 0 0 4 4 0 2 2 0 0 0 0 0 0 0 0 0 0 0 0 0 0 0 0 6 45 49 20 18 35 14 0 0 0
0 0 0 0 0 0 0 0 0 0 0 0 0 0 0 0 0 0 0 1 1 0 0 0 0 0 0 0 0 0 0 0 0 0 0 0 25 42 24 20 1 0 0 0
0 0 0 0 0 0 0 0 0 0 0 0 0 0 0 0 0 5 7 0 0 0 0 0 0 0 0 0 0 0 0 0 0 0 0 1 3 4 3 3 3 13 10 0
0 0 0 0 0 0 0 0 0 0 0 0 0 0 0 4 11 3 0 0 0 0 0 0 0 0 0 0 0 0 0 0 0 0 0 0 0 0 10 3 7 13 2 0
0 0 0 0 0 0 0 0 0 0 0 0 0 8 16 19 16 0 0 0 0 0 0 0 0 0 0 0 0 0 0 0 0 0 0 0 0 0 0 5 6 9 0 0
0 0 0 0 0 0 0 0 0 0 0 0 0 0 4 10 6 0 0 0 0 0 0 0 0 0 0 0 0 0 0 0 0 0 0 0 0 3 4 0 4 9 0 0
0 0 0 0 0 0 0 0 0 0 0 0 7 11 3 0 0 0 0 0 0 0 0 0 0 0 0 0 0 0 0 0 0 0 0 0 0 5 6 6 0 0 0 0
0 0 0 0 0 0 0 0 0 0 0 0 1 0 0 0 0 0 0 0 0 0 0 0 0 0 0 0 0 0 0 0 0 0 0 0 0 0 0 1 3 0 0 0
0 0 0 0 0 0 0 0 0 0 1 6 2 0 0 0 0 0 0 0 0 0 0 0 0 0 0 0 0 0 0 0 0 0 0 0 0 0 2 0 0 0 0 0
0 0 0 0 0 1 0 0 0 4 18 3 0 0 0 0 0 0 0 0 0 0 0 0 0 0 0 0 0 0 0 0 0 0 0 0 0 0 0 0 0 0 0 0
0 0 0 0 0 0 0 0 0 9 8 7 1 0 0 0 0 0 0 0 0 0 0 0 0 0 0 0 0 0 0 0 0 0 0 0 0 0 0 0 0 1 1 0
0 0 0 0 0 0 0 10 19 13 4 0 0 0 0 0 0 0 0 0 0 0 0 0 0 0 0 0 0 0 0 6 3 0 0 0 0 0 3 7 8 1 0 0

GFSCGP_con_mucape_006.txt.gz
CAPE
0 0 0 0 0 0 0 0 0 0 0 0 0 0 0 0 0 0 0 0 0 46 131 192 154 138 353 978 856 332 299 209 87 46 86 101 34 26 16 9 9 3 3 1
2 4 1 0 0 0 2 3 0 0 1 0 0 0 0 1 0 0 0 7 27 43 134 141 105 113 263 232 149 76 28 18 19 43 44 42 40 34 31 8 7 0 0 0
0 0 0 0 0 0 0 0 0 0 5 0 0 0 0 0 0 0 0 5 64 100 96 116 75 83 123 130 63 23 18 38 54 49 49 46 44 22 6 0 0 0 0 0
0 0 0 0 0 0 0 2 0 0 5 0 0 0 0 0 0 0 0 0 12 22 21 14 13 9 0 0 0 0 0 0 0 0 0 0 0 0 0 0 0 0 0 0
0 0 0 0 0 0 0 0 0 0 0 0 0 0 0 0 0 0 0 0 0 0 0 0 0 0 0 0 0 0 0 0 0 0 0 0 0 0 0 0 0 0 0 0
0 0 0 0 0 0 0 0 3 2 1 3 4 7 0 0 2 3 1 0 0 0 0 0 0 0 0 0 0 0 0 0 0 0 0 0 0 0 0 0 0 0 2 1
0 0 0 0 0 0 0 10 11 20 48 28 32 20 8 4 5 7 10 0 0 0 0 0 0 0 0 0 0 0 0 0 0 0 0 0 0 0 0 7 20 0 1 4
0 14 0 0 0 0 0 0 12 27 29 25 1 0 1 6 10 8 0 0 0 0 0 0 0 0 0 0 0 0 0 3 4 0 4 3 11 26 15 18 29 0 8 0
0 0 0 0 0 0 0 0 0 0 0 0 0 0 0 0 0 0 2 2 0 0 0 0 0 0 0 0 0 1 14 10 0 0 2 8 11 18 21 6 0 0 0 0
0 0 0 0 0 0 0 0 0 0 0 0 0 0 0 0 4 1 0 0 0 0 0 0 0 3 0 0 12 32 26 18 2 0 0 0 0 0 0 0 0 0 1 5
0 0 0 0 0 0 0 0 0 0 0 0 0 0 0 0 0 0 0 0 0 0 0 1 8 1 1 8 5 0 0 0 1 0 0 0 0 7 7 0 2 11 6 0
0 0 0 0 0 0 0 0 0 0 0 0 0 0 0 20 11 8 1 2 3 0 6 5 6 2 5 6 0 0 0 0 0 0 0 0 13 35 16 13 16 20 28 24
0 0 0 0 0 0 0 0 0 0 0 0 0 0 0 0 2 5 8 7 5 10 7 0 1 2 0 0 0 0 0 0 0 0 0 0 0 11 34 38 26 25 15 9
0 0 0 0 0 0 0 0 0 0 0 0 0 0 0 0 1 0 0 0 0 1 0 0 0 0 0 0 0 0 0 0 0 0 0 0 0 0 5 33 17 14 9 3
0 0 0 0 0 0 0 0 0 0 0 0 0 0 0 0 0 0 0 0 2 3 2 2 0 0 0 0 0 0 0 0 0 0 0 0 0 0 3 31 32 18 0 1
0 0 0 0 0 0 0 0 0 0 0 0 0 0 0 0 0 0 0 4 4 15 9 0 0 0 0 0 0 0 0 0 0 0 0 0 0 0 2 0 0 0 1 4
0 0 0 0 0 0 0 0 0 0 0 0 0 0 0 0 0 0 2 5 5 11 6 0 0 0 0 0 0 0 0 0 0 0 0 0 0 0 0 1 2 17 3 2
0 0 0 0 0 0 0 0 0 0 0 0 0 0 0 0 0 5 13 11 9 1 0 0 0 0 0 0 0 0 0 0 0 0 0 0 0 0 0 5 7 3 2 1
0 0 0 0 0 0 0 0 0 0 0 0 0 0 0 0 1 1 2 0 0 0 0 0 0 0 0 0 0 0 0 0 0 0 0 0 0 0 0 3 7 4 5 2
0 0 0 0 0 0 0 0 0 0 0 0 0 0 0 1 8 10 4 0 0 0 0 0 0 0 0 0 0 0 0 0 0 0 0 0 0 0 0 2 6 1 0 0
0 0 0 0 0 0 0 0 0 0 0 0 0 0 0 0 0 0 0 0 0 0 0 0 0 0 0 0 0 0 0 0 0 0 0 0 0 0 0 0 0 0 0 0
0 0 0 0 0 0 0 0 0 0 0 0 0 0 1 2 0 0 0 0 0 0 0 0 0 0 0 0 0 0 0 0 0 0 0 0 0 0 0 0 0 1 0 0
0 0 0 0 0 0 0 0 0 0 0 0 0 4 5 0 0 0 0 0 0 0 0 0 0 0 0 0 0 0 0 0 0 0 0 0 0 0 0 0 0 0 0 0
0 0 0 0 0 0 0 0 0 0 0 7 7 0 4 0 0 0 0 0 0 0 0 0 0 0 0 0 0 0 0 0 0 0 0 0 0 0 0 0 0 0 0 1
0 0 0 0 0 0 0 0 0 2 0 1 5 3 0 0 0 0 0 0 0 0 0 0 0 0 0 0 0 0 0 0 0 4 5 0 0 0 0 0 0 2 3 0
0 0 0 0 0 0 0 0 0 0 4 1 0 0 0 0 0 0 0 0 0 0 0 0 0 0 0 0 0 0 0 0 0 0 0 0 0 0 0 0 0 1 0 0

GFSCGP_con_mucape_009.txt.gz
CAPE
14 8 0 0 0 4 0 0 0 0 0 0 0 0 0 0 0 0 0 0 0 9 103 381 451 652 716 776 943 564 252 105 100 102 117 122 115 27 44 37 47 50 46 0
0 0 3 0 0 1 0 0 4 0 0 0 0 0 0 0 0 0 0 0 16 54 150 311 353 746 932 771 445 171 136 88 74 133 105 72 33 31 23 30 19 5 0 0
0 0 0 1 0 0 0 0 0 0 0 0 0 0 0 0 0 0 9 31 51 69 110 98 134 167 158 104 26 19 10 78 104 70 12 0 0 0 0 0 0 0 0 0
0 0 0 0 0 0 0 0 0 0 0 0 0 0 0 0 0 2 14 44 59 28 0 3 1 2 6 0 0 0 0 0 0 0 0 0 0 0 0 0 0 0 0 0
0 0 0 0 0 0 0 0 0 0 0 0 0 0 0 0 0 0 1 2 0 0 0 0 0 0 0 0 0 0 0 0 0 0 0 0 0 0 0 0 0 0 0 0
0 0 0 0 0 0 0 0 1 2 2 0 0 0 0 0 0 4 14 1 0 0 0 0 0 0 0 0 0 0 0 0 0 0 0 0 0 0 0 0 0 1 1 0
0 0 0 0 0 0 0 5 8 14 26 19 19 0 0 0 0 1 4 0 5 23 0 0 5 0 0 0 0 0 0 0 0 0 0 0 0 0 0 0 5 12 7 1
0 0 0 0 0 0 0 0 10 3 13 0 0 0 0 0 0 0 0 0 3 11 6 1 0 0 0 0 0 0 0 0 0 0 0 0 0 0 1 10 5 0 0 0
0 0 0 0 0 0 0 0 0 0 0 0 0 0 0 0 0 0 0 1 23 5 0 0 0 0 0 0 0 0 0 0 0 0 0 0 0 0 0 0 0 0 0 0
0 0 0 0 0 0 0 0 0 0 0 0 0 0 0 0 0 0 0 7 1 0 0 0 0 0 0 1 0 2 10 2 0 0 0 0 0 0 0 0 0 0 2 24
0 0 0 0 0 0 0 0 0 0 0 0 0 0 0 0 0 0 0 0 0 0 2 2 3 10 2 0 2 2 0 0 0 0 0 0 0 0 0 0 0 0 15 17
0 0 0 0 0 0 0 0 0 0 0 0 0 0 0 0 0 0 0 0 0 0 8 19 21 12 0 0 0 0 0 0 0 0 0 0 0 0 0 0 0 4 14 21
0 0 0 0 0 0 0 0 0 0 0 0 0 0 0 0 0 0 0 0 3 6 8 12 8 14 1 2 0 0 0 0 0 0 0 0 0 0 0 0 0 9 3 0
0 0 0 0 0 0 0 0 0 0 0 0 0 0 0 0 0 0 0 0 0 0 3 7 7 14 7 1 0 0 0 0 0 0 0 0 0 0 0 0 0 0 0 19
0 0 0 0 0 0 0 0 0 0 0 0 0 0 0 0 0 0 0 0 0 0 0 5 10 7 3 0 0 0 0 0 0 0 0 0 0 0 0 0 0 0 4 15
0 0 0 0 0 0 0 0 0 0 0 0 0 0 0 0 0 0 0 0 0 2 21 30 33 14 0 0 0 0 0 0 0 0 0 0 0 0 0 0 0 10 17 15
0 0 0 0 0 0 0 0 0 0 0 0 0 0 0 0 0 0 0 0 2 11 18 12 3 0 0 0 0 0 0 0 0 0 0 0 0 0 0 0 0 7 5 5
0 0 0 0 0 0 0 0 0 0 0 0 0 0 0 0 0 0 0 4 20 26 17 12 0 0 0 0 0 0 0 0 0 0 0 0 0 0 0 0 0 2 2 1
0 0 0 0 0 0 0 0 0 0 0 0 0 0 0 0 0 0 2 1 0 0 0 0 0 0 0 0 0 0 0 0 0 0 0 0 0 0 0 0 0 0 2 0
0 0 0 0 0 0 0 0 0 0 0 0 0 0 0 0 0 0 0 0 0 0 0 0 0 0 0 0 0 0 0 0 0 0 0 0 0 0 0 0 0 0 0 0
0 0 0 0 0 0 0 0 0 0 0 0 0 0 0 0 0 0 3 8 0 1 0 0 0 0 0 0 0 0 0 0 0 0 0 0 0 0 0 0 0 0 0 0
0 0 0 0 0 0 0 0 0 0 0 0 0 0 0 0 4 15 11 4 3 0 0 0 0 0 0 0 0 0 0 0 0 0 0 0 0 0 0 0 0 0 0 0
0 0 0 0 0 0 0 0 0 0 0 0 0 0 0 6 15 10 1 0 0 0 0 0 0 0 0 0 0 0 0 0 0 0 0 0 5 0 0 0 0 0 0 0
0 0 0 0 0 0 0 0 0 0 0 0 0 7 13 15 11 2 0 0 0 0 0 0 0 0 0 0 0 0 0 0 0 0 0 0 6 0 0 0 0 0 1 4
0 0 0 0 0 0 0 0 0 0 0 5 5 8 29 24 0 0 0 0 0 0 0 0 0 0 0 0 0 0 0 0 0 0 0 0 0 0 0 0 0 1 1 0
0 0 0 0 0 0 0 0 0 0 0 0 0 17 22 10 1 0 0 0 0 0 0 0 0 0 0 0 0 0 0 0 0 0 0 0 0 0 0 0 0 0 0 0

GFSCGP_con_mucape_012.txt.gz
CAPE
2 0 0 0 0 0 0 0 0 0 0 0 0 0 0 0 0 22 200 359 375 436 444 371 299 236 222 440 606 304 178 169 80 64 69 52 44 37 13 0 0 17 2 5
17 13 8 3 0 0 0 0 0 0 0 0 0 0 0 0 0 0 0 5 19 47 113 224 557 623 600 430 246 69 64 37 32 36 53 1 0 0 0 0 0 0 0 0
14 13 14 13 0 0 0 0 0 3 0 0 0 0 0 0 0 2 28 18 40 73 153 362 375 235 118 72 29 9 0 0 5 0 0 0 0 0 0 0 0 0 0 0
9 6 0 0 0 0 0 0 0 0 1 0 0 0 0 0 0 8 15 26 33 1 1 8 2 0 0 0 0 0 0 0 0 0 0 0 0 0 0 0 0 0 0 0
6 7 0 0 0 0 0 0 0 0 0 1 0 0 0 0 0 0 0 11 11 0 0 2 0 0 0 0 0 0 0 0 0 0 0 0 0 0 0 0 0 0 0 0
0 0 3 0 0 0 0 0 0 0 0 0 0 0 0 0 0 0 0 2 0 0 0 0 0 0 0 0 0 0 0 0 0 0 0 0 0 0 0 0 0 0 0 0
0 0 0 0 0 0 0 0 0 0 0 0 0 0 0 0 0 0 0 0 0 0 0 0 2 13 0 0 0 0 0 0 0 0 0 0 0 0 0 0 0 0 0 0
0 0 0 0 0 0 0 0 0 0 0 0 0 0 0 0 0 0 0 0 0 0 0 11 5 1 0 0 0 0 0 0 0 0 0 0 0 0 0 0 0 0 0 0
0 0 0 0 0 0 0 0 0 0 0 0 0 0 0 0 0 0 0 0 0 1 0 5 0 0 0 0 0 0 0 2 0 0 0 0 0 0 0 0 0 0 0 0
0 0 0 0 0 0 0 0 0 0 0 0 0 0 0 0 0 0 0 0 0 0 0 0 0 0 1 0 2 0 0 0 0 0 0 0 0 0 0 0 0 0 0 0
0 0 0 0 0 0 0 0 0 0 0 0 0 0 0 0 0 0 0 0 0 1 1 0 1 7 15 15 14 8 8 1 0 0 0 0 0 0 0 0 0 0 0 1
0 0 0 0 0 0 0 0 0 0 0 0 0 0 0 0 0 0 0 0 0 1 1 1 10 25 29 24 9 2 1 0 0 0 0 0 0 0 0 0 0 0 0 0
0 0 0 0 0 0 0 0 0 0 0 0 0 0 0 0 0 0 0 0 0 0 2 5 10 24 24 12 2 0 0 0 0 0 0 0 0 0 0 0 0 0 0 0
0 0 0 0 0 0 0 0 0 0 0 0 0 0 0 0 0 0 0 0 0 1 0 2 4 7 12 2 4 0 0 0 0 0 0 0 0 0 0 0 0 0 0 4
0 0 0 0 0 0 0 0 0 0 0 0 0 0 0 0 0 0 0 0 0 0 0 5 10 11 15 1 0 0 0 0 0 0 0 0 0 0 0 0 0 0 0 17
0 0 0 0 0 0 0 0 0 0 0 0 0 0 0 0 0 0 0 0 0 0 3 18 21 35 15 0 0 0 0 0 0 0 0 0 0 0 0 0 0 0 5 8
0 0 0 0 0 0 0 0 0 0 0 0 0 0 0 0 0 0 0 0 0 1 19 31 40 20 0 0 0 0 0 0 0 0 0 0 0 0 0 0 0 0 2 1
0 0 0 0 0 0 0 0 0 0 0 0 0 0 0 0 0 0 0 0 0 9 31 35 4 0 0 0 0 0 0 0 0 0 0 0 0 0 0 0 0 0 0 5
0 0 0 0 0 0 0 0 0 0 0 0 0 0 0 0 0 0 0 0 1 17 12 15 7 0 0 0 0 0 0 0 0 0 0 0 0 0 0 0 0 0 0 0
0 0 0 0 0 0 0 0 0 0 0 0 0 0 0 0 0 0 0 0 2 10 13 7 1 0 0 0 0 0 0 0 0 0 0 0 0 0 0 0 0 0 0 0
0 0 0 0 0 0 0 0 0 0 0 0 0 0 0 0 0 0 0 1 5 14 0 0 0 0 0 0 0 0 0 0 0 0 0 0 0 0 0 0 0 0 0 0
0 0 0 0 0 0 0 0 0 0 0 0 0 0 0 0 0 0 5 4 14 3 0 0 0 0 0 0 0 0 0 0 0 0 0 0 0 0 1 0 0 0 0 0
0 0 0 0 0 0 0 0 0 0 0 0 0 0 0 0 0 2 20 20 4 0 0 0 0 0 0 0 0 0 0 0 0 0 0 0 0 0 3 0 0 0 0 0
0 0 0 0 0 0 0 0 0 0 0 0 0 0 0 1 9 27 39 22 3 0 0 0 0 0 0 0 0 0 0 0 0 0 0 0 0 0 0 0 0 0 0 0
0 0 0 0 0 0 0 0 0 0 0 0 0 0 4 10 28 35 36 8 0 0 0 0 0 0 0 0 0 0 0 0 0 0 0 0 0 0 0 0 0 0 0 0
0 0 0 0 0 0 0 0 0 0 0 0 0 0 0 21 42 25 32 0 0 0 3 3 0 0 0 0 0 0 0 0 0 0 0 0 0 0 0 0 0 0 0 0

GFSCGP_con_mucape_015.txt.gz
CAPE
0 0 1 0 0 0 0 0 0 0 0 0 0 0 0 0 145 282 249 236 235 194 244 259 201 168 246 362 444 450 261 142 102 67 35 8 23 22 30 9 0 0 0 0
4 0 0 0 0 0 0 0 0 0 0 0 0 0 0 0 0 23 128 234 314 356 371 364 298 310 412 459 397 231 102 35 14 7 9 4 0 0 0 0 0 0 0 0
1 6 6 3 0 0 1 0 0 0 0 0 0 0 0 0 0 0 2 5 4 43 312 508 314 100 6 18 27 0 0 0 0 0 0 0 0 0 0 0 0 0 0 0
21 19 11 4 16 8 4 1 0 1 2 12 0 1 0 1 19 78 63 90 140 276 176 17 0 0 0 0 0 0 0 0 0 0 0 0 0 0 0 0 0 0 0 0
11 15 15 7 0 6 0 0 0 0 0 0 0 2 0 12 43 45 37 36 0 0 0 0 0 0 0 0 0 0 0 0 0 0 0 0 0 0 0 0 0 0 0 0
21 36 14 0 0 0 0 0 0 0 0 0 0 0 0 0 0 3 0 0 0 0 5 5 0 0 0 0 0 0 0 0 0 0 0 0 0 0 0 0 0 0 0 0
0 0 0 0 0 0 0 0 0 4 10 0 0 0 0 0 0 0 0 0 0 5 4 6 2 3 0 0 0 0 0 0 0 0 0 0 0 0 0 0 0 0 0 0
0 0 0 0 0 0 0 0 5 0 0 0 0 0 0 0 0 0 0 0 0 0 0 2 4 7 0 0 0 0 0 0 0 0 0 0 0 0 0 0 0 0 0 0
0 0 0 0 0 0 0 0 0 0 0 0 0 0 0 0 0 0 0 0 0 0 0 1 0 0 0 0 0 0 0 0 0 0 0 0 0 0 0 0 0 0 0 0
0 0 0 0 0 0 0 0 0 0 0 0 0 0 0 0 0 0 0 0 0 0 0 0 0 0 0 0 1 8 0 3 6 3 0 0 0 0 0 0 0 0 0 0
0 0 0 0 0 0 0 0 0 0 0 0 0 0 0 0 0 0 0 0 0 0 0 0 0 0 2 5 9 17 2 3 8 0 0 0 0 0 0 0 0 0 0 0
0 0 0 0 0 0 0 0 0 0 0 0 0 0 0 0 0 0 0 0 0 0 0 1 4 5 11 14 24 22 13 7 0 0 0 0 0 0 0 0 0 0 0 0
0 0 0 0 0 0 0 0 0 0 0 0 0 0 0 0 0 0 0 0 0 0 0 9 11 5 11 15 26 41 17 0 0 0 0 0 0 0 0 0 0 0 0 0
0 0 0 0 0 0 0 0 0 0 0 0 0 0 0 0 0 0 0 0 0 0 0 8 13 16 18 26 22 9 0 0 0 0 0 0 0 0 0 0 0 0 0 0
0 0 0 0 0 0 0 0 0 0 0 0 0 0 0 0 0 0 0 0 0 0 0 6 16 18 19 14 3 3 0 0 0 0 0 0 0 0 0 0 0 0 0 4
0 0 0 0 0 0 0 0 0 0 0 0 0 0 0 0 0 0 0 0 0 0 0 3 15 21 14 5 1 0 0 0 0 0 0 0 0 0 0 0 0 0 0 2
0 0 0 0 0 0 0 0 0 0 0 0 0 0 0 0 0 0 0 0 0 0 0 2 22 20 21 5 0 0 0 0 0 0 0 0 0 0 0 0 0 0 0 0
0 0 0 0 0 0 0 0 0 0 0 0 0 0 0 0 0 0 0 0 0 0 0 8 20 29 15 0 3 0 0 0 0 0 0 0 0 0 0 0 0 0 0 0
0 0 0 0 0 0 0 0 0 0 0 0 0 0 0 0 0 0 0 0 0 0 0 11 34 15 0 0 0 0 0 0 0 0 0 0 0 0 0 0 0 0 0 0
0 0 0 0 0 0 0 0 0 0 0 0 0 0 0 0 0 0 0 0 0 0 0 19 23 5 0 0 0 0 0 0 0 0 0 0 0 0 0 0 0 0 0 0
0 0 0 0 0 0 0 0 0 0 0 0 0 0 0 0 0 0 0 0 0 2 10 12 2 0 0 0 0 0 0 0 0 0 0 0 0 0 0 0 0 0 0 0
0 0 0 0 0 0 0 0 0 0 0 0 0 0 0 0 0 0 0 0 1 7 6 14 6 0 0 0 0 0 0 0 0 0 0 0 0 0 0 0 0 0 0 0
0 0 0 0 0 0 0 0 0 0 0 0 0 0 0 0 0 1 3 0 8 33 15 8 3 0 0 0 0 0 0 0 0 0 0 0 0 0 0 0 0 0 0 0
0 0 0 0 0 0 0 0 0 0 0 0 0 0 0 0 3 9 9 8 32 28 14 7 0 0 0 0 0 0 0 0 0 0 0 0 0 0 0 0 0 0 0 0
0 0 0 0 0 0 0 0 0 0 0 0 0 0 0 0 0 6 9 26 24 7 1 0 0 0 0 0 0 0 0 0 0 0 0 0 0 0 0 0 0 0 0 0
0 0 0 0 0 0 0 0 0 0 0 0 0 0 0 0 0 14 47 48 19 0 0 0 0 0 0 0 0 0 0 0 0 0 0 0 0 0 0 0 0 0 0 0

GFSCGP_con_mucape_018.txt.gz
CAPE
0 1 4 0 0 0 0 0 0 0 0 65 37 51 33 88 379 476 487 527 523 455 330 505 634 735 823 1001 1095 1009 549 393 275 129 41 0 3 8 0 0 0 0 0 0
1 5 0 1 0 0 0 0 20 0 2 114 133 181 91 31 175 393 531 512 498 401 500 565 802 876 948 1001 966 867 640 355 121 51 46 43 13 0 0 0 0 0 0 0
76 19 0 4 17 25 28 68 66 48 16 83 151 190 198 54 23 35 156 379 430 541 637 691 864 1127 1059 827 874 654 277 36 12 3 0 0 0 0 0 0 0 0 0 0
90 13 29 87 65 46 120 12 49 70 88 116 63 183 306 222 180 173 155 238 343 553 793 776 549 410 589 303 16 0 0 0 0 0 0 0 0 0 0 0 0 0 0 0
125 69 91 115 66 37 99 15 106 59 138 137 112 155 308 244 262 306 316 411 572 679 291 29 8 22 0 0 0 0 0 0 0 0 0 0 0 0 0 0 0 0 0 0
93 28 77 76 11 20 7 60 51 47 90 143 96 119 130 358 319 334 302 221 243 93 0 0 0 0 0 0 0 0 0 0 0 0 0 0 0 0 0 0 0 0 0 0
112 89 24 32 77 40 88 117 110 119 139 138 9 32 58 61 120 348 274 54 17 0 0 0 4 0 0 0 0 0 0 0 0 0 0 0 0 0 0 0 0 0 0 0
135 155 1 0 53 64 74 94 78 0 58 14 0 19 34 0 0 182 192 0 0 0 0 0 0 0 0 0 0 0 0 0 0 0 0 7 17 2 0 0 0 0 0 0
120 20 0 0 0 4 2 5 10 23 0 10 0 13 3 0 0 16 98 0 0 0 0 0 0 0 0 0 0 0 0 0 0 0 1 0 6 0 0 0 0 0 0 0
83 49 0 0 0 0 0 0 11 10 0 0 0 0 0 0 0 2 49 0 0 0 0 0 0 0 0 0 0 0 0 5 0 3 0 0 0 0 0 0 0 0 0 0
3 4 4 0 0 6 0 0 0 0 0 0 0 0 0 0 0 0 17 0 0 0 0 0 0 0 0 2 1 0 1 7 3 7 1 0 0 0 0 0 0 0 0 0
0 7 59 0 0 0 0 0 0 0 0 0 0 0 0 0 0 0 8 0 0 0 0 0 0 2 3 6 1 0 6 9 7 0 0 0 0 0 0 0 0 0 0 0
0 1 13 0 0 0 0 0 0 0 0 0 72 0 0 0 0 0 0 2 0 0 0 0 0 2 6 8 1 3 1 11 0 0 0 0 0 0 0 0 0 0 0 1
0 0 8 73 0 0 0 0 0 0 0 0 0 0 0 0 0 0 0 0 0 0 0 0 1 3 6 4 11 6 3 0 0 0 0 0 0 0 0 0 0 0 0 2
0 0 0 0 0 0 0 0 0 0 0 0 0 0 0 0 0 0 0 0 0 0 0 0 1 0 4 8 11 0 0 0 0 0 0 0 0 0 0 0 0 0 1 6
0 0 0 0 0 0 0 0 0 0 0 0 0 0 0 0 0 0 0 0 0 0 0 0 0 0 2 7 6 1 0 0 0 0 0 0 0 0 0 0 0 2 3 6
0 0 0 0 0 0 0 0 0 0 0 0 0 0 0 0 0 0 0 0 0 0 0 0 0 0 8 14 15 0 1 0 0 0 0 0 0 0 0 0 0 3 4 8
0 0 0 0 0 0 0 0 0 0 0 0 0 0 0 0 0 0 0 0 0 0 0 0 0 2 12 14 8 7 0 0 0 0 0 0 0 0 0 0 0 6 11 14
0 0 0 5 0 0 0 0 0 0 0 0 0 0 0 0 0 0 0 0 0 0 0 0 0 0 10 19 20 7 0 0 0 0 0 0 0 0 0 0 0 7 15 20
0 0 0 0 81 132 0 0 0 0 0 0 0 0 0 0 0 0 0 0 0 0 0 0 0 8 24 41 24 0 0 0 0 0 0 0 0 0 0 0 0 5 17 8
0 0 0 0 0 0 0 0 0 0 0 0 0 0 0 0 0 0 0 0 0 0 0 0 3 8 15 11 4 2 0 0 0 0 0 0 0 0 0 0 4 9 17 0
0 0 0 0 6 0 0 0 4 0 0 0 0 0 0 0 0 0 0 0 0 1 1 1 9 8 12 10 0 0 0 0 0 0 0 0 0 0 0 2 8 21 14 0
0 0 0 0 0 0 0 0 0 0 0 0 0 0 0 0 0 0 0 1 7 12 12 15 29 16 3 0 0 0 0 0 0 0 0 0 0 0 0 7 16 24 18 0
0 0 0 0 0 0 0 0 0 0 0 0 0 0 0 0 0 0 0 0 18 27 39 26 16 0 0 0 0 0 0 0 0 0 0 0 0 0 0 0 0 19 11 0
0 0 0 0 0 0 0 0 0 0 0 0 0 0 0 0 0 0 0 0 3 16 33 27 1 0 0 0 0 0 0 0 0 0 0 0 0 0 0 0 0 0 0 0
0 0 0 0 0 0 0 0 0 0 0 0 0 0 0 0 0 0 0 14 19 20 10 0 0 0 0 0 0 0 0 0 0 0 0 0 0 0 0 0 0 0 0 0

GFSCGP_con_mucape_021.txt.gz
CAPE
15 0 0 1 1 0 2 8 7 2 2 0 0 18 51 161 269 415 468 631 806 832 798 828 853 840 914 1319 1613 1207 940 792 461 613 598 423 19 5 1 0 0 0 0 0
2 13 1 0 0 0 1 1 25 0 0 57 8 69 46 120 238 372 421 477 588 753 812 924 1072 1151 1183 1342 1437 1198 940 810 787 670 345 102 144 14 0 0 0 0 0 0
17 24 21 1 0 0 11 6 35 76 77 84 109 127 187 169 259 401 529 565 588 742 902 1016 1180 1299 1427 1216 1066 953 851 769 437 256 66 27 0 0 0 0 0 0 0 0
37 20 16 1 3 4 72 75 51 123 129 82 57 99 101 281 227 233 386 594 746 774 930 1139 1297 1444 1356 1256 1190 838 501 212 45 2 0 0 12 40 0 0 0 0 0 0
85 138 105 20 109 123 112 114 186 157 140 22 151 116 54 372 346 289 317 364 522 699 985 1168 1184 939 766 392 258 100 5 0 0 0 0 0 0 0 0 0 0 0 0 0
10 144 186 199 124 98 99 192 192 189 111 160 87 87 302 436 364 389 447 551 753 1015 901 378 282 153 41 2 0 0 0 0 0 0 0 0 0 0 0 0 3 6 0 0
185 134 100 124 159 143 132 201 257 177 244 221 127 146 117 43 252 326 550 651 846 642 196 2 0 0 0 0 0 0 0 0 0 0 0 0 0 0 1 0 8 0 0 0
95 176 78 94 205 170 168 142 238 41 125 164 169 43 96 193 28 150 513 508 562 283 0 0 0 0 0 0 0 0 0 0 0 0 0 0 0 4 0 0 0 0 0 0
120 66 38 27 63 44 92 92 122 199 140 117 7 0 99 94 77 150 470 380 378 63 0 0 0 0 0 0 0 0 0 0 0 0 0 0 4 0 0 0 0 0 0 0
137 152 24 8 14 31 54 57 55 9 0 8 29 17 16 135 23 104 417 347 217 24 0 0 0 0 0 0 0 0 0 0 0 0 0 1 2 1 0 0 0 0 0 0
80 32 116 8 16 31 75 0 0 36 116 40 0 15 0 0 3 33 195 313 190 53 8 0 0 0 0 0 0 0 0 0 0 0 0 9 16 0 0 0 0 0 0 0
20 10 96 62 35 1 41 99 79 5 0 0 37 2 0 0 0 6 51 192 169 111 28 1 0 0 0 0 0 0 1 4 0 0 1 8 0 0 0 0 0 0 0 0
136 0 45 45 82 11 0 0 0 0 0 0 148 1 0 0 0 0 0 44 104 108 73 12 1 0 0 0 0 3 4 4 4 3 4 0 0 0 0 0 0 0 0 0
0 0 5 81 92 71 55 0 0 0 13 0 8 0 0 0 0 0 0 0 42 64 74 51 3 0 0 0 5 7 4 3 9 18 0 0 0 0 0 0 0 0 0 0
12 21 9 6 0 0 0 0 0 0 0 34 0 0 0 0 0 0 0 0 0 5 24 21 0 0 0 0 22 22 0 0 11 31 0 0 0 0 0 0 0 0 1 3
0 8 0 0 0 0 0 0 0 0 0 0 0 0 0 0 0 0 0 0 0 0 0 0 0 0 0 0 13 0 0 9 11 15 0 0 0 0 0 0 0 0 1 6
5 13 0 0 0 0 0 0 0 0 0 0 0 0 0 0 0 0 0 0 0 0 0 0 0 0 0 0 0 0 11 35 21 5 0 0 0 0 0 0 0 0 4 9
0 0 0 0 0 0 0 0 0 0 0 0 0 0 0 0 0 0 0 0 0 0 0 0 0 0 0 0 0 14 37 30 10 4 0 0 0 0 0 0 0 0 6 14
0 0 0 0 0 0 0 0 0 0 0 0 0 0 0 0 0 0 0 0 0 0 0 0 0 0 0 0 11 25 48 42 11 7 0 0 0 0 0 0 0 0 3 10
0 0 0 0 0 0 0 0 0 0 0 0 0 0 0 0 0 0 0 0 0 0 0 0 0 0 0 0 14 41 41 6 2 0 0 0 0 0 0 0 0 0 5 8
0 0 0 0 0 0 0 0 0 0 0 0 0 0 0 0 0 0 0 0 0 0 0 0 0 4 4 3 48 43 16 5 0 0 0 0 0 0 0 0 0 4 6 15
0 0 0 0 1 0 0 0 0 0 0 0 0 0 0 0 0 0 0 0 0 0 0 0 5 5 4 7 13 7 7 0 0 0 0 0 0 0 0 0 2 7 17 23
0 0 0 0 0 0 0 0 0 0 0 0 0 0 0 0 0 0 0 0 0 0 0 0 13 22 37 25 7 0 0 0 0 0 0 0 0 0 0 0 1 14 14 17
0 0 0 0 0 0 0 0 0 0 0 0 0 0 0 0 0 0 10 0 0 0 0 0 5 19 22 2 0 0 0 0 0 0 0 0 0 0 0 0 0 6 17 23
0 0 0 0 0 0 0 3 0 0 0 0 0 2 0 0 9 14 1 0 0 0 1 6 17 22 13 0 0 0 0 0 0 0 0 0 0 5 0 0 0 0 13 12
0 0 0 1 0 0 0 0 0 0 0 0 0 2 0 0 0 0 0 0 6 11 8 10 2 5 1 0 0 0 0 0 0 0 0 0 0 1 2 0 0 0 0 0

GFSCGP_con_mucape_024.txt.gz
CAPE
62 57 36 2 0 0 0 0 12 12 0 0 19 25 0 17 103 303 338 465 525 447 495 542 633 597 551 1311 1373 1187 742 498 485 229 190 267 178 14 3 0 0 0 0 0
25 7 0 0 0 4 1 11 4 0 0 0 2 7 3 13 85 239 291 480 618 528 627 844 871 1002 1199 1573 1483 931 772 615 498 458 398 187 5 1 0 0 0 0 0 0
42 0 1 8 0 0 0 23 9 2 0 0 10 0 4 1 34 103 230 288 470 581 846 922 1070 1192 1419 1450 1295 968 776 712 735 547 165 26 9 0 0 0 0 0 0 0
33 28 18 2 0 0 6 22 3 20 13 12 43 69 23 10 13 32 172 253 360 463 809 896 1088 1245 1245 1096 954 964 764 738 311 138 9 1 0 0 0 0 0 0 0 0
117 2 5 0 62 52 3 4 51 69 45 118 47 7 59 16 35 149 307 544 603 586 738 977 1136 1162 944 1109 1167 906 491 195 96 0 0 0 0 0 0 0 0 0 0 0
1 1 38 33 33 32 44 61 132 10 56 81 12 17 19 48 17 35 239 370 530 666 840 926 1212 953 784 659 462 171 79 8 0 0 0 0 0 0 0 0 0 0 0 0
15 0 25 61 7 5 0 10 138 77 92 335 89 98 105 70 24 32 165 352 435 698 871 919 752 515 237 90 42 6 0 0 0 0 0 0 0 0 0 0 10 4 0 0
11 115 21 1 5 37 103 8 275 0 0 237 76 108 100 134 118 152 442 526 838 884 663 304 225 72 1 0 0 0 0 0 0 0 0 0 0 0 0 9 22 15 0 0
30 2 0 7 4 5 22 63 37 124 404 221 6 0 5 58 29 33 558 600 762 553 201 27 0 0 0 0 0 0 0 0 0 0 0 0 0 0 1 14 19 0 0 0
9 4 27 20 0 11 0 0 140 41 9 0 3 0 76 94 6 21 391 493 573 433 91 0 0 0 0 0 0 0 0 0 0 0 0 0 0 0 11 21 0 0 0 0
69 144 103 46 27 0 62 9 0 0 373 465 239 16 0 0 0 22 138 507 469 353 44 0 0 0 0 0 0 0 0 0 0 0 0 3 7 5 15 1 0 0 0 0
19 23 370 27 33 49 1 105 1 675 50 469 349 10 0 0 0 0 8 144 366 294 79 0 0 0 0 0 0 0 0 0 0 0 4 7 11 9 16 0 0 0 0 0
136 62 134 38 118 71 1 0 0 52 299 217 229 70 0 0 0 0 0 12 257 251 121 13 0 0 0 0 0 0 0 0 0 21 4 11 15 27 1 0 0 0 0 0
116 7 0 173 39 132 221 12 0 0 338 116 1 0 0 0 0 0 0 0 14 153 161 129 10 1 0 0 0 0 0 0 0 42 12 6 20 23 0 0 0 0 0 0
0 4 0 0 12 19 26 8 4 0 6 0 48 0 0 1 1 1 0 0 0 0 63 79 161 61 41 32 4 0 0 0 25 36 7 34 30 18 0 0 0 0 0 0
0 163 81 77 17 0 0 0 0 0 0 0 0 0 0 0 0 0 0 0 0 0 0 40 143 144 121 90 50 0 0 0 6 3 24 22 22 0 0 0 0 0 0 0
322 564 59 0 0 0 0 0 0 0 0 0 0 0 0 0 0 0 0 0 0 0 0 2 40 91 95 38 0 0 0 0 5 8 24 14 0 0 0 0 0 0 0 0
252 206 138 116 0 0 0 0 0 0 0 0 0 0 0 0 0 0 0 0 0 0 0 0 8 49 36 22 1 1 0 0 5 14 7 3 2 0 0 0 0 0 0 0
7 61 66 54 0 0 0 0 0 0 0 0 0 0 0 0 0 0 0 0 0 0 0 0 0 11 2 3 3 1 0 0 0 1 0 0 0 0 0 0 0 0 0 0
0 0 166 0 17 0 0 0 0 0 0 0 0 0 0 0 1 0 0 0 0 0 0 0 0 1 1 5 4 0 4 1 3 3 0 0 0 0 0 0 0 0 0 0
0 10 0 0 23 1 0 0 0 0 1 0 0 0 0 0 2 0 0 0 0 0 0 1 2 1 1 0 0 4 27 9 3 0 0 0 0 0 0 0 0 0 0 0
0 57 1 83 0 0 0 0 0 18 0 0 0 0 0 0 0 0 0 1 0 0 0 0 0 0 0 1 23 38 21 0 0 0 0 0 0 0 0 0 0 0 0 1
75 122 421 3 21 0 0 0 0 0 0 0 0 0 0 0 0 0 4 1 0 0 0 0 0 2 3 3 16 22 5 3 0 0 0 0 0 0 0 0 0 0 0 0
5 0 76 4 0 0 0 0 0 0 0 0 0 0 2 0 23 21 26 3 1 0 0 1 0 1 8 2 0 0 0 0 0 0 0 0 0 0 0 0 0 0 0 0
65 0 0 0 0 0 0 0 0 0 0 0 0 0 0 0 0 1 3 0 0 0 0 0 0 8 10 2 0 0 0 0 0 0 0 0 0 0 0 0 0 0 0 0
0 0 99 154 0 0 0 0 0 0 0 0 0 0 0 0 0 0 0 3 0 0 0 0 0 0 0 0 0 0 0 0 0 0 0 0 0 0 0 0 0 0 0 0

GFSCGP_con_mucape_027.txt.gz
CAPE
20 7 10 0 0 0 0 0 0 0 0 14 0 0 0 19 176 161 149 192 252 181 138 84 19 193 385 463 415 543 518 481 400 49 55 71 57 6 0 5 9 0 0 0
9 16 0 0 1 0 2 3 2 0 0 18 8 0 0 7 177 248 148 402 397 303 264 219 296 218 741 732 701 638 611 516 308 119 54 115 6 0 0 0 0 0 0 0
2 1 7 0 0 1 3 30 21 0 0 0 0 2 2 7 43 231 263 342 412 403 409 515 505 850 1131 895 917 702 694 583 342 144 154 143 0 0 0 0 0 0 0 0
0 2 1 0 0 6 0 0 11 1 1 0 9 17 49 13 22 38 246 395 475 457 572 623 666 695 1196 1159 1193 765 603 395 286 301 371 190 0 0 0 0 0 0 0 0
0 6 0 0 0 0 13 0 0 18 0 5 3 3 13 6 0 0 57 142 452 517 713 732 834 1007 1226 1162 896 722 387 384 508 566 132 2 5 0 0 0 0 0 0 2
4 0 16 1 5 0 39 0 15 28 1 5 0 0 6 0 2 1 1 139 316 424 763 844 970 1021 974 886 790 641 465 194 90 8 0 0 0 0 0 0 0 7 7 12
0 0 0 39 17 29 10 2 2 1 3 15 30 1 10 7 9 0 2 25 181 621 748 889 1021 1007 791 767 710 676 382 164 137 78 4 0 0 0 0 0 0 2 8 12
4 24 19 17 27 32 1 0 18 0 0 0 19 31 9 0 0 13 1 98 61 678 798 1012 972 862 764 634 353 338 232 139 101 2 0 0 0 0 0 0 1 3 14 5
5 22 18 33 39 23 13 8 30 1 0 4 38 8 29 29 12 25 61 165 533 779 837 846 874 876 850 566 299 207 119 46 0 0 0 0 0 0 4 6 4 18 10 1
11 3 0 5 22 12 9 9 17 4 0 0 0 2 42 18 23 229 285 403 755 740 681 685 702 569 402 88 1 0 0 0 0 0 0 3 8 12 14 9 14 17 3 0
14 6 57 14 39 2 3 5 4 0 0 2 28 1 3 0 6 141 393 622 702 685 583 383 155 34 7 0 0 0 0 0 0 0 0 1 3 3 8 4 8 13 1 0
10 3 44 68 14 54 22 39 40 0 0 0 0 0 0 0 0 0 24 525 613 536 429 250 55 0 0 0 0 0 0 0 0 0 0 4 0 3 23 30 36 1 0 0
81 0 0 0 0 86 25 7 2 16 0 0 0 0 0 0 0 0 0 0 429 435 321 184 43 0 0 0 0 1 2 6 0 0 19 26 9 5 13 33 0 9 0 0
58 22 0 0 0 19 29 44 22 0 0 0 0 0 0 0 0 0 0 0 120 323 236 107 27 10 4 19 26 37 52 79 81 46 20 36 13 12 17 1 9 0 1 0
0 0 0 3 39 18 15 10 3 4 1 0 0 0 0 0 0 0 0 0 0 0 106 125 64 58 57 51 61 71 70 73 81 44 1 10 11 12 13 0 0 0 0 3
0 0 0 0 0 0 0 0 0 0 0 0 0 0 0 0 0 0 0 0 0 0 0 0 24 70 61 57 68 73 71 65 39 3 7 18 9 9 10 1 0 0 4 0
0 0 0 0 0 0 0 0 0 0 0 0 0 0 0 0 0 0 0 0 0 0 0 0 15 62 73 80 60 54 47 14 8 18 19 14 12 8 6 0 0 0 0 0
45 21 2 0 0 0 0 0 0 0 0 0 0 0 0 0 0 0 0 0 0 0 0 0 0 12 70 67 60 49 26 41 23 22 13 9 3 1 0 0 0 0 0 0
70 19 0 0 0 0 0 0 0 0 0 0 0 0 0 0 0 0 0 0 0 0 0 0 0 0 0 27 48 74 53 32 19 5 8 4 0 0 0 0 0 0 0 0
0 0 0 0 0 0 0 0 0 0 0 0 0 0 0 0 0 0 0 0 0 0 0 0 0 0 0 10 14 26 31 14 7 3 3 5 0 0 0 0 0 0 0 0
0 0 0 0 0 0 0 0 0 0 0 0 0 0 0 0 0 0 0 0 0 0 0 0 0 3 10 18 28 36 30 25 31 36 21 0 0 0 0 0 0 0 0 0
0 0 0 0 0 0 0 0 0 0 0 0 0 0 0 0 0 0 0 0 0 0 0 0 0 14 27 38 38 35 45 56 51 12 0 0 0 0 0 0 0 0 0 0
0 0 0 0 0 0 0 0 0 0 0 0 0 0 0 0 0 0 0 0 0 0 8 10 9 10 18 24 31 17 24 3 0 0 0 0 0 0 0 0 0 0 0 0
0 0 0 0 0 0 0 0 0 0 0 0 0 0 0 0 0 0 0 0 0 1 9 15 0 0 0 0 0 0 0 0 0 0 0 0 0 0 0 0 0 0 0 0
0 0 0 0 0 0 0 0 0 0 0 0 0 0 0 0 0 0 0 4 8 6 4 0 0 0 0 0 0 0 0 0 0 0 0 0 0 0 0 0 0 0 0 0
0 0 0 0 0 0 0 0 0 0 0 0 0 0 0 0 0 0 1 1 0 0 0 0 0 0 0 0 0 0 0 0 0 0 0 0 0 0 0 0 0 0 0 0

GFSCGP_con_mucape_030.txt.gz
CAPE
42 0 3 2 9 0 0 0 0 0 0 9 62 22 335 381 500 433 134 237 136 133 610 591 812 683 345 253 487 346 334 434 339 276 145 31 31 50 41 3 0 0 0 0
1 0 0 3 0 0 0 0 0 0 0 0 30 37 265 340 348 290 212 153 146 137 242 359 746 717 404 323 401 303 254 501 514 381 143 77 78 137 74 0 0 0 0 0
0 0 0 0 0 0 0 0 0 0 0 3 4 7 0 104 231 367 246 200 240 187 104 91 401 522 488 428 449 478 392 549 602 537 271 111 90 37 23 0 0 0 0 0
0 0 0 0 4 0 0 0 0 2 5 0 0 0 0 0 9 251 255 254 319 319 209 149 173 382 494 516 543 722 567 541 543 409 215 136 112 2 0 0 0 0 0 0
0 0 0 0 0 0 0 7 0 5 9 3 0 0 2 4 0 126 192 199 351 426 384 313 409 598 528 593 752 677 710 738 650 266 139 157 13 0 0 0 0 0 0 0
0 0 0 1 0 1 0 4 0 1 4 2 2 0 0 0 0 0 0 0 66 480 481 452 656 866 892 845 925 842 799 721 443 313 170 291 126 14 14 20 16 0 0 1
0 0 0 0 0 0 7 8 0 0 0 0 2 0 2 0 7 0 0 0 12 260 520 593 813 1088 1144 1088 1005 686 558 374 372 454 526 568 391 124 71 73 26 16 6 19
0 1 0 0 2 0 9 0 0 0 0 0 0 0 6 0 1 13 0 0 14 205 538 726 848 995 1175 1145 769 530 392 501 83 338 100 26 62 71 37 12 21 29 15 0
1 4 2 11 2 0 0 0 7 6 0 1 1 1 1 54 2 21 8 0 77 388 609 861 991 1061 1043 846 648 592 541 387 236 139 70 72 82 69 44 35 27 6 0 0
6 8 2 0 1 0 2 0 17 29 1 4 0 0 0 6 8 20 9 36 123 726 786 923 1030 1041 1006 742 683 682 532 419 302 290 119 42 11 13 15 15 0 1 4 1
34 3 0 2 0 8 2 0 0 0 1 0 1 0 0 0 0 65 98 41 246 675 837 969 1025 986 885 763 603 463 369 335 233 137 13 2 4 11 9 11 13 31 7 3
27 14 12 5 0 0 16 11 18 48 0 0 0 0 0 0 2 100 41 69 407 664 715 755 742 705 622 507 314 47 11 2 23 51 81 58 34 24 20 28 22 17 21 4
12 7 5 1 3 5 17 2 4 3 2 0 0 0 0 0 0 0 18 258 454 669 633 656 680 695 552 260 49 1 0 3 38 60 77 75 57 18 17 13 12 6 3 1
41 2 0 0 0 0 0 48 28 12 1 0 0 0 4 0 0 0 0 0 330 593 626 658 600 467 282 157 115 87 53 42 40 48 56 40 61 12 8 9 3 0 0 0
38 3 2 0 5 3 0 7 28 23 0 0 0 0 0 0 0 0 0 0 0 177 444 524 346 208 122 87 58 30 37 35 42 57 59 45 32 13 10 9 9 4 0 0
4 0 0 0 0 0 0 0 0 0 15 2 0 0 0 0 0 0 0 0 0 0 0 0 8 42 44 51 47 44 40 42 67 55 35 41 31 22 16 13 10 4 0 0
0 0 0 0 0 0 0 0 0 0 6 6 0 0 0 0 0 0 0 0 0 0 0 0 0 0 5 40 74 53 52 58 79 57 31 33 30 17 14 10 7 4 0 0
16 0 0 0 0 0 0 0 0 0 0 0 0 0 0 0 0 0 0 0 0 0 0 0 0 0 8 45 64 71 71 71 74 59 57 38 13 5 5 7 0 0 0 0
88 7 2 1 0 0 0 0 0 0 0 0 0 0 0 0 0 0 0 0 0 0 0 0 0 0 17 56 69 61 62 56 52 40 22 14 10 3 2 0 0 0 0 0
107 75 32 0 0 0 0 0 0 0 0 0 0 0 0 0 0 0 0 0 0 0 0 0 0 0 0 0 8 51 50 41 32 27 29 18 4 0 0 0 0 0 0 0
14 25 0 0 0 0 0 0 0 0 0 0 0 0 0 0 0 0 0 0 0 0 0 0 0 0 0 1 10 23 28 17 5 28 19 14 6 0 0 0 0 0 0 0
0 0 0 0 0 0 0 0 0 0 0 0 0 0 0 0 0 0 0 0 0 0 0 0 0 0 6 13 19 22 18 10 9 14 0 0 0 0 0 0 0 0 0 0
0 0 0 0 0 0 0 0 0 0 0 0 0 0 0 0 0 0 0 0 0 0 0 0 1 5 10 7 5 0 0 1 1 0 0 0 0 0 0 0 0 0 0 0
0 0 0 0 0 0 0 0 0 0 0 0 0 0 0 0 0 0 0 0 0 0 2 4 9 8 13 1 0 0 0 0 0 0 0 0 0 0 0 0 0 0 0 0
0 0 0 0 0 0 0 0 0 0 0 0 0 0 0 0 0 0 0 0 0 3 5 9 8 10 7 0 0 0 0 0 0 0 0 0 0 0 0 0 0 0 0 0
0 0 0 0 0 0 0 0 0 0 0 0 0 0 0 0 0 0 0 0 1 1 0 0 0 0 0 0 0 0 0 0 0 0 0 0 0 0 0 0 0 0 0 0

GFSCGP_con_mucape_033.txt.gz
CAPE
5 0 8 13 7 7 4 0 0 0 0 0 2 29 299 479 563 658 598 511 567 397 305 349 289 223 413 640 718 534 334 318 267 310 327 378 275 123 12 7 0 0 0 0
0 0 0 0 1 8 0 0 0 3 3 0 0 9 91 351 437 581 562 606 641 647 541 578 531 489 573 726 744 548 317 291 320 334 306 212 123 36 18 30 37 0 0 0
0 0 7 1 0 0 0 0 0 0 0 0 0 0 161 293 442 486 470 372 457 439 578 675 697 664 638 740 586 584 369 379 326 281 231 197 73 46 62 62 65 0 0 0
0 0 0 0 0 0 0 1 0 0 0 0 0 0 0 160 319 422 389 181 268 255 302 586 701 722 737 543 454 496 517 399 414 389 373 268 96 44 105 63 53 1 0 0
0 0 0 0 0 0 0 0 0 0 0 7 0 0 0 0 0 165 240 286 155 223 237 362 562 640 786 569 253 368 411 285 345 501 542 382 225 73 101 51 7 0 0 0
0 0 0 0 0 0 0 0 0 0 0 0 0 1 0 0 0 0 26 330 294 205 249 324 261 406 636 711 334 271 340 382 275 495 524 414 151 138 86 18 3 9 13 13
0 0 0 0 0 0 0 0 0 0 0 0 0 0 0 0 0 0 0 143 279 258 247 322 333 335 402 465 500 457 516 473 405 584 610 409 177 79 83 22 49 58 45 37
0 0 0 0 0 0 0 0 0 0 0 0 0 0 0 0 0 0 0 0 8 17 68 375 481 559 382 423 493 433 620 697 683 750 542 317 85 217 128 94 80 57 39 19
0 0 0 0 0 1 0 0 0 0 0 0 0 0 0 18 28 2 4 0 2 48 118 336 590 727 728 751 837 789 691 751 693 395 290 311 310 363 346 203 87 55 33 25
0 0 0 0 0 0 5 0 0 0 0 0 0 0 0 6 3 0 1 25 20 97 239 419 570 841 983 1062 1029 847 791 580 460 376 165 339 343 68 62 44 20 19 24 15
0 0 0 0 0 0 0 0 0 0 0 0 0 0 0 0 0 0 0 5 22 254 420 543 629 754 941 1058 1159 823 697 563 462 391 250 95 56 72 41 23 25 18 14 4
0 0 0 0 0 0 0 0 0 0 0 0 0 0 0 0 0 0 0 0 13 242 516 710 804 924 1036 1112 1031 888 661 604 525 342 280 93 52 30 45 55 26 32 25 13
0 0 0 0 0 0 0 13 16 11 11 0 0 0 0 0 0 0 0 0 12 122 558 769 899 989 1052 1114 1056 819 674 527 332 179 135 54 39 53 51 37 26 7 10 9
0 0 0 0 0 23 24 37 31 24 4 0 0 0 0 0 0 0 0 0 18 109 404 653 777 940 1061 960 776 601 494 331 123 66 20 28 38 44 47 32 27 15 10 15
0 0 2 2 0 0 0 0 30 36 7 0 0 0 0 0 0 0 0 0 0 5 254 589 699 751 747 671 561 386 228 108 47 27 40 48 44 51 53 31 13 15 17 12
0 0 0 0 0 0 0 0 0 14 0 0 0 0 0 0 0 0 0 0 0 0 33 149 307 417 374 326 216 152 95 50 50 42 38 62 58 29 23 11 25 14 10 13
11 0 0 0 0 0 0 0 0 0 0 0 0 0 0 0 0 0 0 0 0 0 0 0 0 0 3 6 8 18 17 46 48 42 48 61 61 46 35 35 18 14 8 0
1 1 0 0 0 0 0 0 0 0 0 0 0 0 0 0 0 0 0 0 0 0 0 0 0 0 0 0 0 0 3 27 48 61 73 71 39 48 30 23 18 4 0 0
5 0 0 0 0 0 0 0 0 0 0 0 0 0 0 0 0 0 0 0 0 0 0 0 0 0 0 0 0 0 22 50 72 75 78 55 43 22 14 13 0 0 0 0
16 39 1 0 0 0 0 0 0 0 0 0 0 0 0 0 0 0 0 0 0 0 0 0 0 0 0 0 0 0 0 26 58 72 84 72 44 4 0 6 0 0 0 0
43 52 12 0 0 0 0 0 0 0 0 0 0 0 0 0 0 0 0 0 0 0 0 0 0 0 0 0 0 0 2 9 25 41 35 26 13 11 1 0 0 0 0 0
3 19 6 0 0 0 0 0 0 0 0 0 0 0 0 0 0 0 0 0 0 0 0 0 0 0 0 0 0 5 0 8 11 12 10 12 10 6 1 0 0 0 0 0
0 0 0 0 0 0 0 0 0 0 0 0 0 0 0 0 0 0 0 0 0 0 0 0 0 0 1 13 16 15 9 1 0 0 0 0 0 0 0 0 0 0 0 0
0 0 0 0 0 0 0 0 0 0 0 0 0 0 0 0 0 0 0 0 0 0 0 0 0 2 12 15 12 11 9 4 0 0 0 0 0 0 0 0 0 0 0 0
0 0 0 0 0 0 0 0 0 0 0 0 0 0 0 0 0 0 0 0 0 0 2 3 0 0 0 10 6 0 0 0 0 0 0 0 0 0 0 0 0 0 0 0
0 0 0 0 0 0 0 0 0 0 0 0 0 0 0 0 0 0 0 0 0 0 0 0 0 2 0 0 0 0 0 0 0 0 0 0 0 0 0 0 0 0 0 0

GFSCGP_con_mucape_036.txt.gz
CAPE
0 0 0 0 11 23 30 14 0 1 0 0 3 16 140 353 377 484 498 514 452 307 209 107 78 22 35 174 337 390 379 361 389 73 145 279 414 449 431 269 48 0 17 15
0 0 0 3 18 16 16 6 2 0 0 0 0 2 131 337 400 445 474 430 403 374 222 208 178 115 135 237 371 485 474 460 458 192 177 269 361 332 204 55 16 25 40 0
0 0 0 0 5 4 0 0 1 0 0 0 0 0 6 288 329 445 415 458 386 389 411 287 294 234 190 288 364 584 630 561 536 463 192 200 222 236 163 47 34 33 33 1
0 0 0 0 0 0 0 1 0 0 0 0 0 0 0 65 394 370 495 545 517 439 496 480 428 437 297 326 388 598 757 659 319 239 225 241 239 172 58 20 17 19 36 6
0 0 0 0 0 0 0 0 0 0 0 0 0 0 0 0 146 288 408 502 524 458 461 485 491 519 509 409 405 568 794 817 367 251 321 296 227 149 149 36 32 20 48 7
0 0 0 0 0 0 0 0 0 0 0 0 0 0 0 0 0 96 289 423 471 496 351 362 352 494 609 638 544 556 711 661 614 343 330 290 272 266 165 100 61 60 51 4
0 0 0 0 0 0 0 0 0 0 0 0 0 0 0 0 0 0 0 26 332 477 438 281 325 274 458 658 677 692 572 462 496 409 370 380 337 293 166 61 74 79 50 26
0 0 0 0 0 0 0 0 0 0 0 0 0 0 0 0 0 0 0 0 0 21 215 398 305 290 278 442 638 690 660 192 122 323 353 176 331 342 163 90 81 74 50 63
0 0 0 0 0 0 0 0 0 0 0 0 0 0 0 0 16 0 0 0 0 0 108 355 350 295 292 303 322 470 663 424 333 286 369 430 413 447 129 82 57 68 71 75
0 0 0 0 0 0 0 0 0 0 0 0 0 0 0 0 1 0 0 0 0 0 0 16 108 257 244 319 429 418 379 510 525 505 499 484 578 387 246 142 120 128 107 74
0 0 0 0 0 0 0 0 0 0 0 0 0 0 0 0 4 0 0 0 1 1 12 56 228 412 414 401 419 492 660 707 690 758 690 668 534 375 250 111 85 73 69 74
0 0 0 0 0 0 0 0 0 0 0 0 0 0 0 0 0 0 0 0 0 0 92 212 298 383 487 596 663 716 862 843 733 698 434 358 426 206 60 58 41 28 36 24
0 0 0 0 0 0 0 0 0 0 0 0 0 0 0 0 0 0 0 0 0 1 116 324 456 539 604 642 825 942 981 951 798 577 397 264 84 69 48 10 29 24 26 15
0 0 0 0 0 0 0 0 0 1 0 0 0 0 0 0 0 0 0 0 0 4 43 275 475 577 726 833 807 887 913 745 645 490 190 76 55 43 28 40 32 35 14 18
0 0 0 0 7 0 0 0 0 0 0 0 0 0 0 0 0 0 0 0 0 0 32 114 304 501 642 726 762 665 612 560 435 135 75 59 54 35 31 40 31 35 13 20
1 1 0 4 0 0 0 0 0 0 0 0 0 0 0 0 0 0 0 0 0 0 37 129 232 314 304 212 215 316 356 284 185 129 71 71 59 37 43 53 53 44 12 0
5 5 8 2 8 1 0 0 0 0 0 0 0 0 0 0 0 0 0 0 0 0 0 0 0 0 0 0 0 0 0 0 0 4 37 58 65 51 61 61 38 10 3 23
8 10 21 14 14 0 0 0 0 0 0 0 0 0 0 0 0 0 0 0 0 0 0 0 0 0 0 0 0 0 0 0 0 3 28 58 68 90 100 87 38 34 25 0
4 25 32 9 0 0 0 0 0 0 0 0 0 0 0 0 0 0 0 0 0 0 0 0 0 0 0 0 0 0 0 0 1 30 49 51 64 66 65 35 45 21 0 0
3 13 16 11 0 0 0 0 0 0 0 0 0 0 0 0 0 0 0 0 0 0 0 0 0 0 0 0 0 0 0 0 0 4 25 37 20 32 4 9 6 0 0 0
2 12 1 0 0 0 0 0 0 0 0 0 0 0 0 0 0 0 0 0 0 0 0 0 0 0 0 0 0 0 0 0 0 0 3 2 2 5 0 0 0 0 0 0
6 17 10 29 11 0 0 0 0 0 0 0 0 0 0 0 0 0 0 0 0 0 0 0 0 0 0 0 0 0 0 0 2 3 0 0 0 0 0 0 0 0 0 0
9 3 4 2 1 0 0 0 0 0 0 0 0 0 0 0 0 0 0 0 0 0 0 0 0 0 0 0 0 0 6 8 7 1 0 0 0 0 0 0 0 0 0 0
0 0 1 3 0 0 0 0 0 0 0 0 0 0 0 0 0 0 0 0 0 0 0 0 0 0 1 0 7 15 9 2 0 0 0 0 0 0 0 0 0 0 0 0
0 0 0 0 0 0 0 0 0 0 0 0 0 0 0 0 0 0 0 0 0 0 0 0 0 0 0 7 9 5 0 0 0 0 0 0 0 0 0 0 0 0 0 0
0 0 2 0 15 0 0 0 0 0 0 0 0 0 0 0 0 0 0 0 0 0 0 0 0 0 0 0 0 0 0 0 0 0 0 0 0 0 0 0 0 0 0 0

GFSCGP_con_mucape_039.txt.gz
CAPE
0 0 0 0 0 0 3 16 9 4 1 10 128 78 203 408 429 469 448 419 449 426 342 107 121 122 104 139 233 281 332 313 300 295 44 77 233 179 308 334 272 130 90 24
0 0 0 0 2 2 0 13 9 3 3 1 0 0 30 272 454 540 597 535 588 594 361 256 169 153 167 139 254 440 393 296 322 303 75 83 103 174 389 297 183 99 1 0
0 0 0 0 0 0 0 2 7 0 0 0 0 1 5 50 292 250 320 441 396 422 522 268 201 209 206 202 248 396 416 322 328 348 173 69 124 215 307 222 110 27 3 1
0 0 0 0 0 0 0 0 0 0 0 0 0 0 0 7 147 296 313 352 372 350 396 524 294 275 265 233 278 345 374 476 439 440 433 190 121 217 215 152 91 28 8 8
0 0 0 0 0 0 0 0 0 0 0 0 0 0 0 0 3 221 321 311 396 400 429 521 596 512 445 418 497 462 413 425 585 624 607 552 343 201 146 100 83 42 28 41
0 0 0 0 0 0 0 0 0 0 0 0 0 0 0 0 0 26 120 299 339 441 465 470 533 687 664 626 601 566 493 364 595 623 429 433 311 201 165 173 118 76 65 48
0 0 0 0 0 0 0 0 0 0 0 0 0 0 9 0 0 0 0 12 175 366 461 490 468 450 743 686 627 585 507 437 539 533 438 371 288 256 238 253 233 142 78 55
0 0 0 0 0 0 0 0 0 0 0 0 0 0 0 0 0 7 0 0 0 9 162 419 494 498 598 710 662 706 714 580 542 308 404 459 408 336 260 277 263 181 61 48
0 0 0 0 0 0 0 0 0 0 0 0 0 0 0 0 0 0 0 1 0 0 3 25 108 510 541 528 543 617 706 728 592 300 130 196 303 325 142 185 194 301 54 54
0 0 0 0 3 0 0 0 0 0 0 0 0 0 0 0 0 0 0 0 0 0 0 11 78 151 255 449 476 468 517 668 683 361 272 297 290 350 356 274 265 83 70 35
0 0 0 0 0 0 0 0 0 0 0 0 0 0 0 0 0 0 0 0 0 0 1 6 41 248 270 294 362 408 499 568 472 532 549 530 531 446 367 296 297 135 87 68
0 0 0 0 0 0 0 0 0 6 0 0 0 0 0 0 0 0 0 0 0 0 0 32 183 381 488 485 411 353 345 372 362 414 498 600 604 388 352 313 165 110 78 60
0 0 0 0 0 0 0 0 0 0 0 0 32 0 0 0 0 0 0 0 0 0 3 82 161 240 294 402 474 531 535 596 584 573 565 528 448 314 185 198 84 42 51 46
0 0 0 0 0 0 0 0 0 0 0 0 0 0 0 0 0 0 0 0 0 0 0 57 203 341 450 545 659 698 735 759 577 482 379 283 186 119 66 44 34 49 35 23
0 0 0 0 0 0 0 0 0 0 0 0 0 0 0 0 0 0 0 0 0 0 0 11 103 276 446 621 723 744 738 650 523 402 319 257 99 56 55 55 50 51 50 27
0 0 0 0 0 0 0 0 0 0 0 0 0 0 0 0 0 0 0 0 0 0 0 56 188 290 340 286 249 202 146 121 54 16 38 72 73 60 49 69 43 51 40 1
2 0 0 0 0 0 0 0 0 0 0 0 0 0 0 0 0 0 0 0 0 0 0 0 0 0 0 0 0 0 0 0 0 0 0 0 2 15 68 42 31 33 11 5
5 0 0 2 0 0 0 0 0 0 0 0 0 0 0 0 0 0 0 0 0 0 0 0 0 0 0 0 0 0 0 0 0 0 0 0 0 0 10 20 13 50 9 0
13 8 1 2 0 0 0 0 0 0 0 0 0 0 0 0 0 0 0 0 0 0 0 0 0 0 0 0 0 0 0 0 0 0 0 0 0 0 0 0 0 0 0 0
7 28 30 4 0 0 0 0 0 0 0 0 0 0 0 0 0 0 0 0 0 0 0 0 0 0 0 0 0 0 0 0 0 0 0 0 0 0 0 0 0 0 0 0
1 9 15 9 2 0 0 0 0 0 0 0 0 0 0 0 0 0 0 0 0 0 0 0 0 0 0 0 0 0 0 0 0 0 0 0 0 0 0 0 0 0 0 0
3 0 0 3 0 0 0 0 0 0 0 0 0 0 0 0 0 0 0 0 0 0 0 0 0 0 0 0 0 0 0 0 0 0 0 0 0 0 0 0 0 0 0 0
18 0 0 0 0 0 0 0 0 0 0 0 0 0 0 0 0 0 0 0 0 0 0 0 0 0 0 0 0 0 0 0 0 0 0 0 0 0 0 0 0 0 0 0
25 47 9 20 13 6 0 0 0 0 0 0 0 0 0 0 0 0 0 0 0 0 0 0 0 0 0 0 0 0 2 6 0 0 0 0 0 0 0 0 0 0 0 0
28 41 25 51 40 2 0 0 0 0 0 0 0 0 0 0 0 0 0 0 0 0 0 0 0 0 0 0 0 0 3 0 0 0 0 0 0 0 0 0 0 0 0 0
14 1 9 14 36 24 0 0 0 0 0 0 0 0 0 0 0 0 0 0 0 0 0 0 0 0 0 0 0 0 0 0 0 0 0 0 0 0 0 0 0 0 0 0

GFSCGP_con_mucape_042.txt.gz
CAPE
0 0 0 0 0 2 18 32 60 41 15 45 90 151 181 698 700 483 246 353 354 259 219 419 684 680 470 400 291 280 400 509 602 743 466 117 57 203 677 745 834 411 325 79
0 0 0 0 0 1 26 45 46 21 2 5 41 29 99 574 802 657 499 477 456 384 406 243 505 515 534 533 553 492 398 498 754 814 694 174 310 196 416 629 731 573 394 54
0 0 0 0 0 3 45 55 37 17 5 0 1 20 54 277 773 810 808 601 594 572 565 485 278 436 565 466 487 521 573 806 810 768 672 283 473 634 704 588 342 327 134 109
0 0 0 0 0 0 34 15 8 20 27 64 0 45 36 120 376 660 661 860 528 579 702 649 523 401 409 528 521 498 656 937 909 912 768 476 342 358 507 480 139 59 100 44
0 0 0 0 0 0 15 4 13 11 55 35 26 51 75 20 46 221 536 706 743 456 607 748 806 646 536 517 585 611 667 1100 986 945 916 853 718 625 685 370 32 61 67 68
1 0 0 0 0 0 0 9 14 48 89 79 45 59 107 57 22 29 108 339 627 783 727 692 760 984 963 835 800 781 781 893 1096 1095 1025 1110 1200 1111 481 128 96 107 91 61
0 0 0 0 0 0 0 20 132 74 118 120 31 65 90 29 26 54 47 48 282 599 851 930 907 1056 1261 1309 1264 1202 996 763 901 868 431 700 834 977 267 131 89 150 147 133
0 0 0 0 0 0 3 38 113 13 50 79 0 32 79 18 13 26 95 110 59 80 552 830 1006 1063 1202 1438 1635 1520 1234 994 925 626 189 319 359 294 166 286 124 211 286 239
0 0 0 0 0 0 7 11 7 52 13 30 3 0 1 0 0 3 51 111 169 70 85 300 664 1030 1067 1297 1633 1780 1562 1224 1200 758 195 264 289 137 190 195 226 228 217 231
0 0 0 0 0 0 11 6 34 60 24 5 40 8 8 0 0 0 0 10 169 196 89 146 230 377 618 930 1372 1618 1701 1537 1474 1003 532 223 365 196 281 247 261 215 172 84
0 2 0 0 1 15 18 32 7 32 44 69 46 26 0 0 0 6 0 0 72 218 322 339 334 455 540 632 968 1215 1317 1318 1404 1312 1032 425 379 402 468 404 237 236 118 53
0 7 8 0 0 0 1 15 52 56 22 17 70 41 0 0 0 0 0 0 9 145 269 485 683 809 891 911 937 1009 1056 1120 1234 1338 1271 833 427 410 322 182 150 119 68 67
0 2 0 0 0 0 0 0 0 24 3 83 271 71 2 1 1 1 0 0 0 0 225 537 822 1010 1177 1229 1142 1093 1082 1101 974 756 483 335 354 291 210 112 84 80 59 64
9 7 0 0 0 2 6 5 14 48 125 93 113 77 87 27 21 2 2 0 0 0 1 568 828 945 1003 1031 1024 1018 809 655 605 564 540 485 370 260 180 52 52 53 39 36
2 8 6 0 0 0 0 0 26 31 65 70 102 32 31 1 6 0 0 0 0 0 73 445 743 853 821 757 667 748 764 768 667 595 517 379 268 212 90 67 51 29 19 35
5 3 18 0 0 0 0 0 2 21 1 36 28 11 0 0 0 0 0 0 0 0 1 111 319 410 444 584 650 660 590 553 467 292 115 17 21 25 12 1 15 17 31 46
28 16 5 0 0 0 0 0 1 16 29 21 16 22 0 0 0 0 0 0 0 0 0 16 58 69 59 69 74 26 5 0 0 0 0 0 0 0 0 2 4 6 3 0
30 29 37 28 1 0 0 0 4 10 0 0 0 0 0 0 0 0 0 0 0 0 0 0 0 0 0 0 0 0 0 0 0 0 0 0 0 0 0 0 0 0 0 0
31 46 32 101 0 0 0 0 0 7 10 7 3 0 0 0 0 0 0 0 0 0 0 0 0 0 0 0 0 0 0 0 0 0 0 0 0 0 0 0 0 0 0 0
12 18 154 0 0 0 0 0 0 0 86 40 0 0 0 0 0 0 0 0 0 0 0 0 0 0 0 0 0 0 0 0 0 0 0 0 0 0 0 0 0 0 0 0
19 23 54 71 74 9 0 0 0 23 130 0 0 0 0 0 0 0 0 0 0 0 0 0 0 0 0 0 0 0 0 0 0 0 0 0 0 0 0 0 0 0 0 0
37 63 39 64 76 16 0 0 13 139 3 0 0 0 0 0 0 0 0 0 0 0 0 0 0 0 0 0 0 0 0 0 0 0 0 0 0 0 0 0 0 0 0 0
42 67 173 63 66 82 1 22 0 17 2 0 0 0 0 0 0 0 0 0 0 0 0 0 0 0 0 0 0 0 0 0 0 0 0 0 0 0 0 0 0 0 0 0
1 12 24 4 15 1 1 6 9 1 0 0 0 0 0 0 0 0 0 0 0 0 0 0 0 0 0 0 0 0 0 0 0 0 0 0 0 0 0 0 0 0 0 0
88 22 24 14 53 13 22 38 38 7 0 0 0 0 0 0 0 0 0 0 0 0 0 0 0 0 0 0 0 0 0 0 0 0 0 0 0 0 0 0 0 0 0 0
0 5 29 117 198 135 142 83 29 4 0 0 0 0 0 0 0 0 0 0 0 0 0 0 0 0 0 0 0 0 0 0 0 0 0 0 0 0 0 0 0 0 0 0

GFSCGP_con_mucape_045.txt.gz
CAPE
0 0 3 23 17 2 15 39 56 42 17 0 31 81 7 646 581 161 297 139 237 222 147 306 128 57 60 86 207 155 145 146 426 485 214 50 2 4 59 256 401 620 692 502
5 0 2 0 0 0 11 29 46 35 4 0 10 18 44 423 528 369 195 302 140 173 416 411 479 312 365 252 217 167 120 167 539 592 505 119 28 0 62 254 658 740 762 617
1 25 0 0 0 0 21 56 36 27 37 3 7 21 26 143 497 479 280 214 292 219 213 364 515 557 429 334 286 263 307 476 529 506 561 387 61 72 51 292 503 791 760 705
0 7 0 0 0 2 56 23 1 9 22 55 25 17 8 97 294 579 470 329 287 330 326 218 285 672 702 591 582 605 574 574 552 612 791 466 121 244 478 682 626 640 837 622
0 1 0 0 1 11 28 0 0 28 76 105 77 17 67 26 97 249 499 443 350 323 371 416 268 178 569 801 672 746 662 635 753 880 746 1042 485 398 545 718 771 825 587 399
0 3 0 1 2 1 13 1 9 66 110 177 55 79 25 44 3 36 205 398 435 326 370 460 526 392 277 387 943 1318 719 659 774 978 940 1061 1044 892 1059 1063 734 498 371 190
0 1 0 0 0 0 0 48 128 144 166 163 51 44 52 21 7 7 37 119 372 495 405 438 482 668 652 584 731 1115 756 597 920 1331 1126 1254 1337 1316 617 700 649 346 249 38
0 0 0 0 0 16 7 56 172 58 190 191 111 36 68 36 18 0 21 103 91 313 558 594 479 604 854 1025 1037 1083 943 994 857 1191 1007 1134 1346 1196 759 372 176 115 91 70
7 5 5 1 0 7 37 44 109 85 136 100 139 102 31 1 0 1 24 121 256 257 270 565 665 718 881 1209 1749 2070 1623 1253 1101 1382 830 825 1123 902 966 474 312 175 81 105
2 13 3 2 4 7 13 41 57 95 119 163 134 149 113 14 0 0 0 24 124 289 232 265 486 770 999 1221 1829 2646 2052 1777 1430 1161 1157 976 874 629 521 386 248 216 196 191
3 8 21 24 2 24 4 49 37 104 107 162 217 178 61 20 1 0 8 0 3 54 414 372 391 440 690 1049 1358 1798 2162 2155 1781 1651 1412 1158 688 612 508 318 261 254 145 111
0 21 44 21 14 8 25 35 69 106 99 142 176 180 110 40 17 4 20 0 3 48 167 460 662 783 877 923 1088 1544 1833 1925 1864 1677 1447 1333 786 733 472 727 383 251 56 26
0 5 47 42 31 15 12 55 73 110 104 108 341 178 101 15 9 0 0 3 2 32 144 446 869 1082 1143 1188 1269 1429 1518 1541 1528 1650 1577 1234 879 708 860 522 446 326 66 47
6 4 10 44 38 48 9 3 33 64 197 94 81 99 143 97 58 39 42 51 0 1 1 317 836 1068 1170 1345 1351 1442 1512 1540 1467 1376 1226 929 656 375 307 293 240 147 84 114
4 5 8 14 38 34 39 41 45 67 56 119 68 97 124 121 79 15 45 3 0 0 0 118 801 1054 1251 1340 1373 1373 969 745 636 618 539 368 359 335 262 224 158 100 55 52
29 16 17 25 39 34 17 11 18 33 43 47 56 42 72 23 4 0 0 0 0 52 213 494 853 1088 1126 1063 1019 622 435 537 392 388 406 301 233 130 88 53 25 0 1 0
62 83 51 2 36 47 56 0 9 15 18 35 58 37 56 33 10 2 0 0 40 91 160 387 611 707 707 519 449 542 478 395 226 114 45 3 0 0 0 0 0 0 0 1
158 96 100 80 7 0 0 1 0 0 0 13 19 6 3 3 1 0 0 1 24 6 3 1 6 40 144 245 271 120 34 6 0 0 0 0 0 0 0 0 0 0 0 0
16 201 146 151 0 0 0 0 1 3 0 2 7 2 3 2 0 0 0 0 0 0 0 0 0 0 0 0 0 0 0 0 0 0 0 0 0 0 0 0 0 0 0 0
61 111 258 93 0 0 0 0 0 2 1 0 18 1 0 0 0 0 0 0 0 0 0 0 0 0 0 0 0 0 0 0 0 0 0 0 0 0 0 0 0 0 0 0
1 28 170 147 0 24 0 0 14 57 73 32 27 0 0 0 0 0 0 0 0 0 0 0 0 0 0 0 0 0 0 0 0 0 0 0 0 0 0 0 0 0 0 0
36 63 114 153 114 20 2 1 6 98 209 124 76 2 0 0 0 0 0 0 0 0 0 0 0 0 0 0 0 0 0 0 0 0 0 0 0 0 0 0 0 0 0 0
84 68 187 111 79 136 34 131 63 91 120 174 97 3 0 0 0 0 0 0 0 0 0 0 0 0 0 0 0 0 0 0 0 0 0 0 0 0 0 0 0 0 0 0
38 82 186 114 98 102 143 41 63 115 162 160 90 6 0 0 0 0 0 0 0 0 0 0 0 0 0 0 0 0 0 0 0 0 0 0 0 0 0 0 0 0 0 0
106 99 52 54 23 71 67 76 164 128 67 55 18 0 0 0 0 0 0 0 0 0 0 0 0 0 0 0 0 0 0 0 0 0 0 0 0 0 0 0 0 0 0 0
44 57 214 118 29 232 270 256 67 147 97 1 1 0 0 0 0 0 0 0 0 0 0 0 0 0 0 0 0 0 0 0 0 0 0 0 0 0 0 0 0 0 0 0

GFSCGP_con_mucape_048.txt.gz
CAPE
0 0 0 0 2 0 0 0 6 24 0 45 0 46 33 0 157 111 73 139 53 79 72 60 1 0 0 0 0 0 0 0 15 35 9 33 5 37 60 43 75 465 462 551
0 0 0 0 14 0 0 0 6 14 37 0 0 0 79 88 329 102 76 126 37 84 165 77 23 3 0 0 0 0 0 0 22 30 48 81 2 0 16 60 197 615 457 459
0 0 5 0 0 0 0 0 22 21 0 1 0 0 57 252 157 94 141 88 87 85 136 137 96 8 3 7 0 0 0 0 5 162 282 246 31 2 0 34 537 695 675 547
0 0 1 0 0 0 0 0 3 1 1 1 0 1 6 0 74 158 131 171 148 97 275 234 262 176 118 104 85 145 85 49 9 363 344 397 104 31 0 6 384 567 613 547
0 0 0 0 0 0 0 1 10 1 0 17 4 24 10 0 44 191 285 232 276 230 170 448 383 434 269 320 319 256 175 186 285 349 470 320 490 34 135 118 372 452 559 600
0 0 0 1 0 0 1 2 2 0 0 35 32 46 12 3 5 48 302 393 278 281 234 243 294 453 477 481 574 428 403 348 476 408 290 593 479 399 429 633 490 575 477 533
0 0 3 0 0 2 0 1 24 31 56 138 62 33 104 3 12 44 277 333 396 307 253 353 271 186 430 630 613 696 736 573 596 789 558 634 685 778 662 726 443 350 167 200
0 0 0 0 0 0 0 0 73 58 53 114 100 89 68 2 13 2 1 42 316 424 349 351 407 289 263 324 821 839 837 682 673 745 1071 706 621 854 874 632 515 292 122 23
0 1 1 0 0 0 4 0 9 45 12 104 103 68 119 40 0 0 0 24 145 141 528 454 399 553 525 418 468 756 841 788 641 813 985 749 425 826 1022 892 588 320 68 43
1 35 14 3 0 0 0 2 28 67 46 67 28 29 50 12 5 0 0 30 187 242 247 368 519 531 536 699 650 729 747 659 792 797 1098 805 349 222 877 756 500 270 177 109
0 20 21 19 0 0 0 4 5 94 79 143 146 118 6 2 14 0 9 5 13 111 314 283 364 492 619 659 779 1052 1213 1125 1121 1247 1184 956 729 448 720 653 498 287 159 95
0 51 43 8 2 0 4 5 39 82 51 185 377 117 112 33 42 63 15 37 15 16 94 445 462 564 578 691 1236 1849 1842 1766 1544 1345 1238 1090 926 779 589 318 319 336 217 326
0 3 0 35 60 17 0 26 5 37 101 133 68 40 90 80 3 30 26 36 5 25 15 224 676 811 881 971 1032 1433 1872 1886 1413 1530 1317 1304 1144 927 659 541 450 437 413 304
20 10 0 0 9 24 29 25 27 55 53 25 87 32 59 66 47 11 32 11 0 45 21 45 565 891 1132 1195 1302 1489 1575 1647 1493 1339 1276 1332 1111 897 846 532 514 573 313 307
43 22 39 26 0 39 21 9 0 6 20 68 41 31 42 67 31 39 76 15 2 0 0 6 263 909 1204 1330 1388 1412 1323 1273 1276 1002 1180 1206 991 742 564 408 325 229 196 134
26 1 40 37 6 0 7 1 6 0 8 26 47 53 40 40 9 23 3 0 0 0 0 39 186 906 1191 1189 1300 1286 1163 1009 1022 685 589 514 494 213 238 229 159 117 67 10
82 139 44 0 23 7 0 25 16 3 6 19 34 63 49 59 29 20 4 6 0 0 94 263 550 1100 1081 1066 1071 904 454 337 405 396 345 308 306 213 68 0 0 0 0 0
73 113 107 0 61 0 0 7 2 0 0 0 11 19 28 32 25 4 5 1 3 58 89 294 657 778 708 688 629 464 297 329 314 267 144 46 10 0 0 0 0 0 0 0
29 108 209 0 0 17 0 0 0 0 0 0 0 2 9 17 32 7 0 0 27 32 32 36 128 245 276 216 136 224 263 126 38 8 0 0 0 0 0 0 0 0 0 0
8 49 97 195 0 0 0 0 0 5 0 0 0 16 41 41 34 0 0 0 0 0 0 0 0 0 0 0 0 0 0 0 0 0 0 0 0 0 0 0 0 0 0 0
4 1 24 60 0 33 1 0 8 18 6 65 65 45 69 8 2 1 0 0 0 0 0 0 0 0 0 0 0 0 0 0 0 0 0 0 0 0 0 0 0 0 0 0
0 0 37 93 70 0 16 20 36 70 274 265 142 184 116 79 15 0 0 0 0 0 0 0 0 0 0 0 0 0 0 0 0 0 0 0 0 0 0 0 0 0 0 0
5 0 0 94 82 125 60 45 112 248 360 357 280 203 159 119 9 0 0 0 0 0 0 0 0 0 0 0 0 0 0 0 0 0 0 0 0 0 0 0 0 0 0 0
19 86 82 0 0 29 66 61 83 98 161 218 206 209 137 109 0 0 0 0 0 0 0 0 0 0 0 0 0 0 0 0 0 0 0 0 0 0 0 0 0 0 0 0
17 46 75 29 4 5 4 7 56 199 157 175 100 85 64 56 0 0 0 0 0 0 0 0 0 0 0 0 0 0 0 0 0 0 0 0 0 0 0 0 0 0 0 0
71 68 80 169 74 112 162 66 171 88 9 72 91 65 15 19 3 0 0 0 0 0 0 0 0 0 0 0 0 0 0 0 0 0 0 0 0 0 0 0 0 0 0 0

GFSCGP_con_mucape_051.txt.gz
CAPE
0 0 0 0 0 0 0 2 0 5 12 6 2 26 0 0 54 70 176 132 52 37 4 0 0 0 0 0 0 0 0 0 0 1 0 0 0 6 3 11 25 53 162 229
0 0 0 0 0 0 0 0 0 21 17 0 24 39 0 0 76 112 170 85 0 0 0 0 0 0 0 0 0 0 0 0 0 0 0 0 0 9 32 6 38 15 171 248
0 0 0 0 0 0 0 0 0 9 16 8 0 13 23 33 91 78 136 105 12 21 12 0 0 0 0 0 0 0 0 0 0 0 0 0 13 45 0 7 0 21 317 302
0 0 0 0 0 0 0 0 1 1 0 1 5 0 43 77 96 107 56 84 56 66 38 0 0 0 0 0 0 0 0 0 0 0 0 0 0 33 1 0 1 256 319 285
0 0 0 0 0 0 0 0 1 0 0 0 0 1 17 128 119 14 38 63 75 125 50 19 0 0 0 0 0 0 0 0 0 0 0 0 8 31 0 0 0 284 383 371
0 0 0 0 0 0 0 3 0 0 0 0 0 0 4 1 0 13 5 91 75 80 88 17 41 1 35 18 0 0 0 0 0 0 0 37 129 146 53 0 0 217 262 296
0 0 0 0 0 0 0 0 0 0 0 0 12 12 0 1 0 17 25 46 83 105 133 94 113 53 79 99 79 7 0 0 0 0 0 60 190 168 149 40 31 110 218 277
0 0 0 0 0 0 0 0 0 0 0 0 0 6 0 0 0 0 3 58 93 107 145 173 195 197 205 203 117 126 96 93 78 135 146 183 291 291 249 45 293 225 154 270
0 0 0 0 0 0 0 0 0 36 8 0 1 18 3 0 0 0 3 11 147 145 166 137 217 217 175 274 256 245 238 184 214 240 282 262 167 209 313 274 407 345 354 309
0 0 0 0 0 0 0 0 8 17 0 0 6 55 20 5 0 0 0 0 36 175 180 126 107 125 147 259 308 349 293 310 288 401 503 492 429 330 513 703 535 576 495 349
0 0 0 0 0 0 0 0 0 28 37 0 0 1 2 0 0 0 0 0 37 66 97 111 122 139 177 162 235 413 344 225 403 369 381 586 774 796 640 605 673 567 441 300
0 0 0 0 0 0 0 0 0 3 29 51 18 2 4 4 0 0 0 0 0 129 159 149 198 155 210 265 185 242 307 342 398 558 443 559 541 430 734 395 676 615 395 292
0 0 0 0 0 0 0 0 0 20 84 25 11 3 39 36 29 0 0 0 0 0 57 216 242 334 429 460 509 289 289 288 277 343 679 718 507 575 649 588 603 428 369 251
0 0 0 0 0 3 0 0 0 0 12 16 9 0 42 22 26 19 19 2 0 0 0 245 332 469 523 620 956 764 627 592 502 671 799 893 863 844 894 725 776 412 335 298
0 0 0 0 0 0 13 5 0 2 0 13 0 8 4 31 17 30 14 0 0 0 0 32 352 503 622 750 1027 1054 1066 1115 986 1088 1122 1080 1048 1017 753 822 869 469 294 240
1 0 0 0 0 0 0 0 12 20 24 37 9 0 1 22 30 17 0 1 0 0 0 0 0 597 855 1004 1029 1030 1059 1081 1112 1111 1064 1035 1079 1010 736 586 611 206 142 135
16 0 0 0 0 0 0 0 0 0 13 3 0 0 6 35 24 15 3 0 0 0 0 0 52 839 957 1021 1083 1058 925 904 979 1010 959 885 755 764 459 290 143 59 16 0
13 0 0 0 0 0 0 0 0 1 2 11 9 0 0 1 3 20 20 13 0 0 7 110 562 740 814 860 982 973 760 622 611 593 598 488 325 191 137 33 0 0 0 0
1 24 0 0 0 0 0 0 0 0 0 1 0 0 0 0 0 1 5 8 12 27 65 411 697 789 766 806 816 769 747 454 216 221 248 164 114 22 0 0 0 0 0 0
20 27 29 46 0 0 0 0 0 0 0 0 0 0 0 0 4 8 1 19 23 41 91 194 322 436 550 518 441 414 299 181 145 140 59 6 0 0 0 0 0 0 0 0
9 4 1 0 0 0 0 0 6 1 0 0 1 0 0 0 1 1 6 15 4 11 14 30 42 101 226 282 184 39 0 10 0 0 0 0 0 0 0 0 0 0 0 0
11 5 3 0 0 0 22 0 0 0 0 0 13 21 28 15 21 4 7 1 0 0 0 0 0 0 0 0 0 0 0 0 0 0 0 0 0 0 0 0 0 0 0 0
0 77 4 0 0 5 14 63 17 21 71 68 75 83 80 88 60 26 9 0 0 0 0 0 0 0 0 0 0 0 0 0 0 0 0 0 0 0 0 0 0 0 0 0
40 139 104 50 0 0 0 9 31 13 10 48 81 68 91 118 64 21 13 10 0 0 0 0 0 0 0 0 0 0 0 0 0 0 0 0 0 0 0 0 0 0 0 0
109 102 60 14 0 3 0 0 2 3 0 25 17 47 57 57 43 14 16 9 0 0 0 0 0 0 0 0 0 0 0 0 0 0 0 0 0 0 0 0 0 0 0 0
81 66 80 46 93 89 42 48 3 0 0 0 9 12 32 22 24 7 10 11 0 0 0 0 0 0 0 0 0 0 0 0 0 0 0 0 0 0 0 0 0 0 0 0

GFSCGP_con_mucape_054.txt.gz
CAPE
0 0 0 0 0 0 0 0 0 0 1 26 7 1 6 0 84 233 208 49 0 0 0 0 0 0 0 0 2 4 0 3 0 1 3 4 3 10 0 24 24 6 32 55
0 0 0 0 0 0 0 0 0 0 36 15 11 7 0 0 22 77 280 104 5 0 0 0 0 0 0 0 0 1 1 3 4 13 1 0 8 2 0 0 0 0 0 36
0 0 0 0 0 0 0 0 0 1 17 34 5 2 28 1 24 94 111 142 11 0 0 0 0 0 0 0 0 0 0 0 0 0 0 0 1 0 0 0 0 0 0 0
0 0 0 0 0 0 0 0 0 0 17 9 0 0 0 0 38 109 60 194 61 14 0 0 0 0 0 0 0 0 0 0 0 0 0 0 0 0 0 0 0 0 0 0
0 0 0 0 0 0 0 0 0 3 10 3 0 0 0 0 14 88 113 171 109 26 11 0 0 0 0 0 0 0 0 0 0 0 0 0 0 0 0 0 0 0 0 32
0 0 0 0 0 0 0 0 0 0 0 0 0 0 0 0 11 46 67 85 116 78 39 3 0 0 0 0 0 0 0 0 0 0 0 0 0 0 0 2 23 16 2 48
0 0 0 0 0 0 0 0 0 0 0 0 0 0 0 0 3 59 117 78 97 104 88 21 5 0 0 0 0 0 0 0 0 0 0 0 0 0 2 19 34 2 3 97
0 0 0 0 0 0 0 0 0 0 0 0 3 0 0 0 0 6 89 95 100 142 129 85 73 20 0 0 0 0 0 0 0 0 0 0 1 37 30 51 74 67 0 37
0 0 0 0 0 0 0 0 0 0 0 0 0 0 0 0 0 0 6 36 113 127 189 164 127 133 120 72 19 1 0 0 0 0 0 0 20 44 109 94 88 158 36 26
0 0 0 0 0 0 0 0 0 2 0 0 0 0 1 0 0 0 0 0 3 47 137 186 205 182 157 126 78 67 86 72 48 23 15 23 34 21 76 144 221 222 104 149
0 0 0 0 0 0 0 0 1 1 0 0 0 0 0 5 0 0 0 0 6 47 80 160 222 215 196 178 125 135 103 99 104 112 111 97 88 68 84 91 173 247 204 199
0 0 0 0 0 0 0 0 0 0 0 0 0 0 3 0 1 0 0 1 15 40 74 113 159 203 230 241 284 270 231 229 183 167 66 69 130 95 50 171 257 407 198 225
0 0 0 0 0 0 0 0 0 0 0 0 0 0 2 20 18 2 1 0 0 1 36 102 129 130 141 157 234 292 331 326 271 240 225 244 314 345 231 281 318 272 174 302
3 0 0 0 0 0 0 0 0 0 0 0 0 0 0 1 7 11 13 1 3 29 55 61 157 183 189 219 297 351 374 399 407 423 279 221 307 362 364 289 99 168 247 383
0 0 0 0 0 0 0 0 0 0 0 0 0 0 0 1 4 23 20 0 1 2 0 40 128 177 333 387 434 369 335 448 501 560 288 427 499 514 594 535 378 416 742 463
4 0 0 0 0 0 0 0 0 0 11 7 12 2 0 0 15 4 21 11 0 0 0 0 118 165 394 683 657 593 590 605 482 436 533 358 389 512 619 457 514 552 423 244
4 0 0 0 0 0 0 0 0 0 0 14 0 3 20 2 2 19 15 8 1 0 9 0 106 146 319 756 818 838 805 787 773 752 645 595 703 728 564 603 429 408 183 162
1 0 1 0 0 0 0 0 0 0 0 11 0 7 6 0 0 0 2 2 0 0 0 0 0 162 446 639 762 858 947 963 785 610 601 438 468 446 468 299 195 115 113 53
14 0 0 0 0 0 0 0 0 0 0 0 0 6 8 0 0 6 0 0 0 0 0 2 74 322 639 747 766 783 773 710 635 630 583 483 490 308 250 293 174 42 0 0
65 41 0 0 0 0 0 0 0 0 0 0 0 0 5 1 1 0 0 0 0 0 5 149 200 430 714 770 819 818 741 580 447 387 390 365 377 246 116 85 7 0 0 0
90 81 4 0 0 0 0 0 0 0 0 0 1 1 0 0 0 0 0 2 3 31 93 274 387 512 625 685 669 658 660 609 416 241 126 77 63 51 24 0 0 0 0 0
41 97 0 0 0 0 18 36 6 0 0 0 4 30 1 0 0 0 2 8 22 44 92 207 350 468 542 585 544 494 416 330 185 4 13 25 6 0 0 0 0 0 0 0
0 0 0 0 0 4 7 64 15 10 19 24 20 19 13 33 36 17 19 22 22 25 1 47 121 133 142 141 126 97 38 3 0 0 0 0 0 0 0 0 0 0 0 0
0 0 0 0 6 32 54 13 7 1 7 29 33 5 2 8 33 47 61 53 52 35 7 0 0 0 0 0 0 0 0 0 0 0 0 0 0 0 0 0 0 0 0 0
11 108 50 61 64 75 61 22 9 11 2 6 9 10 7 4 7 11 24 36 16 7 1 2 3 0 0 0 0 0 0 0 0 0 0 0 0 0 0 0 0 0 0 0
6 37 70 32 39 53 17 10 0 0 0 0 2 1 20 2 4 15 14 25 28 5 2 0 0 0 0 0 0 0 0 0 0 0 0 0 0 0 0 0 0 0 3 0

GFSCGP_con_mucape_057.txt.gz
CAPE
0 0 0 0 0 0 0 0 0 0 0 0 0 0 0 0 35 26 43 18 0 0 0 0 0 0 2 4 3 0 8 6 6 35 30 2 74 82 41 63 72 114 142 140
0 0 0 0 0 0 0 0 0 0 0 0 0 0 0 0 2 61 75 44 6 0 0 0 0 0 0 0 5 2 0 4 4 23 11 5 5 20 6 27 15 50 64 71
0 0 0 0 0 0 0 0 0 0 0 0 0 0 0 0 0 0 27 69 42 7 0 0 0 0 0 0 0 0 2 1 5 3 2 4 1 8 14 9 0 14 4 5
0 0 0 0 0 0 0 0 0 0 0 0 0 0 0 0 0 0 0 1 78 45 0 0 0 0 0 0 0 0 0 0 0 0 6 0 1 0 5 6 3 9 3 0
0 0 0 0 0 0 0 0 0 0 0 2 1 0 0 0 0 0 0 9 15 88 36 0 0 0 0 0 0 0 0 0 0 0 0 0 0 0 0 0 0 0 0 0
0 0 0 0 0 0 0 0 0 0 0 0 0 0 0 0 0 0 0 0 21 22 105 23 2 0 0 0 0 0 0 0 0 0 0 0 0 0 0 0 0 0 0 0
0 0 0 0 0 0 0 0 0 0 0 0 0 0 0 0 0 0 0 4 24 46 112 68 47 0 0 0 0 0 0 0 0 0 0 0 0 0 0 0 0 0 0 7
0 0 0 0 0 0 0 0 0 0 0 0 0 0 0 0 0 0 10 10 16 75 42 99 77 44 0 0 0 0 0 0 0 0 0 0 0 0 0 0 0 0 0 4
0 0 0 0 0 0 0 0 0 0 0 0 0 0 0 0 0 0 0 41 56 110 67 58 106 95 35 35 1 0 0 0 0 0 0 0 0 0 0 0 3 3 23 33
0 0 0 0 0 0 0 0 0 0 0 0 0 0 0 0 0 0 0 6 53 87 93 79 104 139 99 47 22 0 0 0 0 0 0 0 0 0 0 0 32 23 30 26
0 0 0 0 0 0 0 0 0 0 0 0 0 0 0 0 0 0 0 0 1 22 53 97 102 135 175 134 125 63 16 11 0 0 0 0 0 0 0 0 0 19 84 99
0 0 0 0 0 0 0 0 0 0 0 0 0 0 0 0 0 0 0 0 0 15 27 79 91 87 140 173 189 167 112 92 74 18 0 0 3 19 14 15 9 28 29 73
0 0 0 0 0 0 0 0 0 0 0 0 0 0 0 0 0 0 0 0 0 0 10 48 104 90 114 131 154 170 169 154 143 114 48 50 34 33 65 50 59 35 48 55
0 1 0 0 0 0 0 0 0 0 0 0 0 0 0 0 0 0 0 0 0 0 22 53 76 97 95 102 103 140 181 193 185 200 191 186 142 95 97 46 46 69 159 146
0 0 0 0 0 0 0 0 0 0 0 0 0 0 0 0 0 0 4 3 1 0 0 7 39 79 86 88 108 128 157 210 212 216 229 291 216 211 131 154 272 363 380 310
9 2 0 0 0 0 0 0 0 0 0 0 0 0 0 0 0 5 0 5 5 0 0 0 13 49 86 130 133 108 116 113 127 150 179 205 261 303 348 205 304 502 463 453
1 18 7 0 0 0 0 0 0 0 0 0 0 0 0 0 0 2 3 7 1 6 0 0 3 47 132 155 176 163 175 149 126 157 177 239 294 383 409 366 500 442 373 379
2 0 11 0 1 0 0 0 0 0 0 0 0 0 0 0 0 1 5 0 0 0 0 0 0 12 68 186 252 285 257 203 152 159 245 281 334 404 354 246 126 209 250 210
64 2 1 1 0 0 0 0 0 0 0 0 0 0 0 0 0 0 0 0 0 0 0 0 0 4 49 169 386 502 468 398 408 445 487 513 467 374 386 303 240 214 236 355
116 75 8 4 0 0 0 0 1 2 0 0 0 0 0 0 0 0 0 0 0 0 0 0 0 39 132 183 415 624 705 697 707 718 688 573 399 384 310 358 427 208 58 25
146 98 13 0 0 0 0 0 20 0 0 0 0 0 0 0 0 0 0 0 0 0 0 0 24 75 124 206 431 675 789 848 925 889 606 371 251 220 222 193 160 80 70 39
0 0 0 0 0 0 0 0 27 0 0 0 3 0 0 0 0 0 0 0 0 0 8 36 56 108 208 365 508 652 700 741 729 557 553 405 238 214 231 143 90 47 0 0
0 0 0 40 15 0 0 0 0 1 5 13 36 6 0 6 10 0 0 0 0 0 32 85 120 133 189 306 446 516 573 675 587 429 253 112 5 14 44 28 0 0 0 0
0 0 1 0 0 0 0 0 0 2 1 2 1 27 22 18 31 38 19 11 14 10 38 103 177 229 329 513 610 564 458 297 149 34 1 0 0 0 0 0 0 0 0 0
1 25 6 0 0 0 0 0 18 55 69 48 22 17 0 2 20 21 25 53 54 33 7 56 105 193 222 215 197 145 79 21 0 0 0 0 0 0 0 0 0 0 0 0
21 25 17 0 15 4 0 30 57 29 18 38 10 1 4 0 5 6 1 4 14 21 14 25 23 45 41 21 6 0 0 0 0 0 0 0 0 0 0 0 0 0 0 0

GFSCGP_con_mucape_060.txt.gz
CAPE
0 0 0 0 0 0 0 0 0 0 0 0 0 0 0 0 0 27 0 0 24 11 0 0 0 0 0 2 0 0 15 29 19 3 9 3 0 31 42 59 66 64 75 79
0 0 0 0 0 0 0 0 0 0 0 0 0 0 0 0 0 0 0 0 13 5 0 0 5 4 0 0 0 0 1 6 5 1 9 4 0 39 89 100 101 100 106 134
0 0 0 0 0 0 0 0 0 0 0 0 0 0 0 0 0 0 0 7 23 29 0 0 1 3 0 0 0 0 1 9 4 34 12 4 60 4 60 84 37 28 39 61
0 0 0 0 0 0 0 0 0 0 0 0 0 0 0 0 0 0 0 2 23 25 0 0 0 1 1 0 0 0 0 8 2 2 6 5 3 3 0 5 40 41 46 48
0 0 0 0 0 0 0 0 0 0 0 0 0 0 0 0 0 0 0 0 0 0 37 14 0 0 0 0 0 0 0 0 0 1 0 0 2 5 5 0 0 0 4 10
0 0 0 0 0 0 0 0 0 0 0 0 0 0 0 0 0 0 0 0 0 0 1 34 5 0 0 0 0 0 0 0 0 0 0 0 0 0 1 0 0 0 0 0
0 0 0 0 0 0 0 0 0 0 0 0 0 0 0 0 0 0 0 0 0 0 8 23 51 6 0 0 0 0 0 0 0 0 0 0 0 0 0 0 0 0 0 0
0 0 0 0 0 0 0 0 0 0 0 0 0 0 0 0 0 0 0 0 0 1 3 15 82 45 23 0 0 0 0 0 0 0 0 0 0 0 0 0 0 0 0 0
0 0 0 0 0 0 0 0 0 0 0 0 0 0 0 0 0 0 0 0 0 0 6 27 47 89 73 30 0 0 0 0 0 0 0 0 0 0 0 0 0 0 0 0
0 0 0 0 0 0 0 0 0 0 0 0 0 0 0 0 0 0 0 0 0 0 10 15 76 67 81 83 55 3 0 0 0 0 0 0 0 0 0 0 0 0 0 0
0 0 0 0 0 0 0 0 0 0 0 0 0 0 0 0 0 0 0 0 0 0 8 11 41 76 75 93 105 99 14 0 0 0 0 0 0 0 0 0 0 5 6 21
0 0 0 0 0 0 0 0 0 0 0 0 0 0 0 0 0 0 0 0 0 0 0 0 11 31 61 81 108 131 108 92 47 13 0 0 0 0 0 0 0 0 0 0
0 0 0 0 0 0 0 0 0 0 0 0 0 0 0 0 0 0 0 0 0 0 0 0 4 17 31 53 73 86 105 138 129 132 114 27 4 0 1 0 2 3 9 9
0 0 0 0 0 0 0 0 0 0 0 0 0 0 0 0 0 0 0 2 0 0 0 0 0 21 53 48 48 51 74 99 112 124 123 118 131 46 0 30 20 22 33 35
8 0 1 2 0 0 0 0 0 0 0 0 0 0 0 0 0 4 0 0 8 4 0 0 0 16 38 44 44 42 43 50 50 63 79 90 100 110 153 128 75 41 49 91
0 0 2 3 0 0 0 0 0 0 0 0 0 0 0 0 0 0 0 0 0 1 3 1 0 0 1 10 28 36 57 57 34 62 61 60 64 86 134 236 210 136 103 131
7 0 0 0 0 0 0 0 0 0 0 0 0 0 0 0 0 0 0 0 5 8 6 9 4 0 0 17 34 50 58 63 87 86 83 90 70 56 79 152 197 218 190 176
0 0 2 0 4 0 0 0 0 0 0 0 0 0 0 0 0 0 0 0 0 5 6 4 2 1 1 26 50 75 78 87 85 78 82 81 78 70 88 149 182 224 281 252
9 0 0 0 0 0 0 1 0 0 0 0 0 0 0 0 0 0 0 0 0 1 0 0 0 7 15 0 18 69 107 131 125 132 152 118 104 112 159 207 266 293 229 346
8 64 15 0 0 0 0 0 0 0 0 0 0 0 0 0 0 0 0 0 0 0 0 0 0 10 13 17 14 76 159 203 246 250 230 217 260 313 247 246 245 265 174 72
7 68 32 17 0 0 0 0 0 0 0 0 0 0 0 0 0 0 0 0 0 0 0 0 0 0 1 0 34 128 249 327 389 384 413 468 501 456 369 154 206 206 108 116
17 11 16 24 13 0 0 0 97 19 0 2 0 0 6 0 0 0 0 0 0 0 0 0 0 0 0 57 139 214 279 355 456 562 670 809 737 613 415 253 162 74 61 100
0 1 0 0 0 0 0 0 2 0 3 0 8 1 4 6 0 0 0 0 0 0 0 5 40 57 112 177 229 281 329 420 613 743 830 445 259 261 218 222 17 57 117 208
0 0 0 0 0 0 0 0 0 0 0 0 0 2 0 3 1 10 14 10 2 0 0 11 62 109 91 99 168 265 412 509 543 604 504 234 240 49 108 143 49 102 142 111
0 0 0 0 0 0 0 0 0 0 36 28 0 0 21 0 0 12 30 33 11 10 5 22 50 146 124 115 176 353 400 357 316 197 96 25 19 12 5 12 22 39 11 0
22 29 16 0 0 0 0 0 0 0 16 40 5 20 17 16 11 0 0 7 3 4 7 2 10 24 101 139 159 184 173 136 70 16 0 0 0 1 0 0 0 0 0 0

GFSCGP_con_mucape_063.txt.gz
CAPE
0 0 0 0 0 0 0 0 0 0 0 0 0 0 0 0 26 65 98 21 0 0 0 0 1 0 0 17 4 2 36 19 2 0 12 4 1 65 106 75 28 79 51 63
0 0 0 0 0 0 0 0 0 0 0 0 0 0 0 0 0 14 32 7 0 0 0 0 2 0 0 0 0 0 10 10 7 10 4 11 0 5 57 73 46 72 65 86
0 0 0 0 0 0 0 0 0 0 0 0 0 0 0 0 0 0 0 0 0 0 0 0 0 0 0 0 0 0 0 1 3 16 12 5 5 77 56 72 60 86 107 148
0 0 0 0 0 0 0 0 0 0 0 0 0 0 0 0 0 0 0 3 19 0 0 0 0 0 0 0 0 0 0 0 4 18 3 0 9 7 5 45 57 56 99 138
0 0 0 0 0 0 0 0 0 0 0 0 0 0 0 0 0 0 0 0 31 2 5 0 0 0 1 0 0 0 0 3 0 9 8 6 0 0 8 0 53 82 72 53
0 0 0 0 0 0 0 0 0 0 0 0 0 0 0 0 0 0 0 0 0 14 0 8 0 0 0 1 10 0 0 0 1 0 5 12 12 8 3 7 0 46 47 42
0 0 0 0 0 0 0 0 0 0 0 0 0 0 0 0 0 0 0 0 0 4 1 0 12 0 0 0 7 0 0 0 0 3 4 2 3 3 5 7 3 9 23 22
0 0 0 0 0 0 0 0 0 0 0 0 0 0 0 0 0 0 0 0 0 0 6 0 6 41 0 0 0 0 0 0 0 0 0 0 0 0 0 1 1 0 14 25
0 0 0 0 0 0 0 0 0 0 0 0 0 0 0 0 0 0 0 0 0 0 6 9 22 35 20 1 0 0 0 0 0 0 0 0 0 0 0 0 0 0 0 0
0 0 0 0 0 0 0 0 0 0 0 0 0 0 0 0 0 0 0 0 0 0 0 5 18 32 52 18 20 0 0 0 0 0 0 0 0 0 0 0 0 0 0 0
0 0 0 0 0 0 0 0 0 0 0 0 0 0 0 0 0 0 0 0 0 0 0 0 10 25 44 48 49 66 26 0 0 0 0 0 0 0 0 0 0 0 0 0
0 0 0 0 0 0 0 0 0 0 0 0 0 0 0 0 0 0 0 0 0 0 0 0 0 5 42 63 67 93 96 99 30 0 0 0 0 0 0 0 0 0 0 0
1 0 0 0 0 0 0 0 0 0 0 0 0 0 0 0 0 0 0 0 0 1 1 0 0 1 8 30 50 60 78 99 117 137 85 25 1 0 0 0 0 0 0 0
3 0 0 0 0 0 0 0 0 0 0 0 0 0 0 0 0 0 0 0 0 0 3 11 0 10 21 5 12 25 42 53 83 115 127 130 136 129 71 0 4 0 5 2
4 2 0 0 0 0 0 0 0 0 0 0 0 0 0 0 0 0 0 0 0 0 0 0 2 4 22 29 20 32 33 38 49 56 81 104 94 91 95 100 100 40 0 11
22 25 1 4 1 0 0 0 0 0 0 0 0 0 0 0 0 0 0 0 0 0 0 0 0 0 0 4 27 28 38 40 16 39 39 40 43 48 58 57 67 77 90 24
12 2 1 0 3 0 0 0 0 0 0 0 0 0 0 0 0 0 0 0 0 2 0 0 0 7 0 0 15 60 45 46 53 41 30 29 22 17 20 17 15 40 90 184
8 4 0 0 0 0 0 0 0 0 0 0 1 0 0 0 0 0 0 0 0 0 0 0 0 0 0 7 7 16 23 41 57 60 50 60 60 55 51 53 49 30 70 174
0 0 0 0 0 0 0 0 0 12 5 0 0 0 0 0 0 0 0 0 0 0 0 0 15 21 6 5 12 3 0 28 55 69 85 108 118 100 77 64 65 89 128 194
0 0 45 0 0 0 0 0 0 0 0 0 0 0 0 0 0 0 0 0 0 0 0 0 0 0 0 3 6 11 1 0 28 78 107 132 145 165 161 159 229 219 223 335
0 22 0 0 0 0 0 0 0 0 0 0 0 0 0 0 0 0 0 0 0 0 0 0 0 0 0 0 0 5 6 4 5 90 156 204 235 248 256 331 323 275 153 122
0 0 16 27 0 0 0 9 12 0 0 0 0 0 0 0 0 0 1 1 0 0 0 0 0 0 0 0 0 0 0 30 123 220 292 334 360 393 402 317 246 278 242 243
3 4 31 8 23 4 12 1 0 0 0 0 0 0 0 2 4 3 0 0 0 0 0 0 1 11 9 0 18 92 147 188 245 291 374 463 504 453 210 106 84 195 30 72
0 0 1 0 0 0 0 0 0 0 0 0 0 3 0 0 1 7 2 2 8 2 0 0 4 42 46 39 58 102 220 286 341 381 342 229 239 183 173 55 43 59 148 42
0 0 0 0 0 0 0 0 0 0 0 0 0 0 0 0 0 6 2 2 4 0 13 10 3 36 92 52 35 139 179 156 185 211 191 143 56 15 12 10 4 7 8 14
0 0 0 0 0 0 0 0 0 0 0 0 0 0 6 11 25 17 11 7 0 0 0 0 9 10 39 32 42 86 61 61 27 28 70 2 0 0 0 0 2 8 2 4

GFSCGP_con_mucape_066.txt.gz
CAPE
0 0 0 0 0 0 0 0 0 0 0 0 0 0 0 0 8 110 188 378 477 290 96 0 0 4 7 13 19 12 11 23 19 9 0 0 2 80 23 37 70 138 103 146
0 0 0 0 0 0 0 0 0 0 0 0 0 0 0 0 0 24 149 287 412 291 166 0 0 6 13 0 2 7 12 1 10 9 2 0 7 7 18 12 43 75 121 81
0 0 0 0 0 0 0 0 0 0 0 0 0 0 0 0 0 13 56 95 275 332 267 2 0 3 4 0 0 0 0 4 3 5 7 3 8 2 53 66 68 68 100 33
0 0 0 0 0 0 0 0 0 0 0 0 0 0 0 0 0 0 6 87 134 242 237 102 0 0 8 0 0 0 0 0 5 1 10 10 0 0 3 38 43 42 108 62
0 0 0 0 0 0 0 0 0 0 0 0 0 0 0 0 0 0 0 3 138 223 284 210 24 0 0 8 3 20 0 0 2 1 3 4 3 0 3 1 72 31 67 129
0 0 0 0 0 0 0 0 0 0 0 0 0 0 0 0 0 0 0 0 15 223 296 269 113 2 0 2 12 16 17 0 0 6 4 3 0 8 0 9 28 26 26 93
0 0 0 0 0 0 0 0 0 0 0 0 0 0 0 0 0 0 0 0 2 124 315 298 182 55 0 0 7 8 15 19 2 1 5 1 2 9 2 3 10 13 5 24
0 0 0 0 0 0 0 0 0 0 0 0 0 0 0 0 0 0 0 0 0 69 264 296 247 137 7 0 0 10 10 10 13 17 0 0 0 3 2 11 0 0 11 42
0 0 0 0 0 0 0 0 0 0 0 0 0 0 0 0 0 0 0 0 6 20 149 261 240 205 102 0 0 0 1 3 10 17 18 0 0 0 10 23 8 8 5 32
0 0 0 0 0 0 0 0 0 0 0 0 0 0 0 0 0 0 0 0 2 57 112 196 258 220 146 36 0 0 0 0 2 5 9 10 8 10 13 27 24 18 38 40
2 0 0 0 0 0 0 0 0 0 0 0 0 0 0 0 0 0 0 0 0 64 157 196 233 263 194 94 10 2 0 0 0 1 5 5 7 15 18 14 13 11 14 10
0 0 0 0 0 0 0 0 0 0 0 0 0 0 0 0 0 0 0 0 0 0 13 189 237 212 220 157 53 12 27 32 0 0 0 3 7 4 6 9 11 31 30 17
77 0 0 0 0 0 0 0 0 0 0 0 0 0 0 0 0 0 0 0 0 0 0 23 180 228 217 212 145 55 43 49 51 23 0 0 2 5 2 2 1 3 5 35
19 15 0 0 0 0 0 0 0 0 0 0 0 0 0 0 0 0 0 0 19 10 0 7 73 177 247 228 213 140 86 37 35 54 59 57 20 1 6 1 1 3 1 0
0 7 0 0 0 0 0 0 0 0 0 0 0 0 0 0 0 0 0 0 0 0 0 0 0 72 214 275 244 196 153 104 60 34 58 90 96 84 74 64 69 43 5 2
0 10 10 0 0 0 0 0 0 0 0 0 0 0 0 0 0 0 0 0 1 0 0 0 0 1 28 184 279 226 200 163 126 83 98 51 65 82 76 66 63 50 67 83
7 2 1 0 4 1 0 0 0 0 0 3 0 0 0 0 0 0 1 0 0 0 0 0 0 3 4 41 168 289 293 230 156 131 116 90 91 78 64 46 29 36 32 26
4 1 0 8 4 0 2 0 12 7 3 1 0 0 0 0 0 0 0 0 0 0 0 0 0 0 0 0 20 162 241 299 274 219 155 125 109 126 111 77 50 32 52 51
0 0 0 0 0 0 3 1 1 6 3 4 0 0 10 1 16 0 0 0 0 0 0 0 0 0 0 0 3 15 62 208 262 286 261 230 203 157 144 129 147 152 201 148
0 0 0 0 0 0 0 7 7 9 0 0 0 0 0 1 45 43 0 0 0 0 0 0 0 0 0 0 0 0 15 50 153 226 243 244 255 262 243 229 217 176 176 187
0 0 0 0 0 0 0 5 14 0 0 0 0 0 0 0 0 0 0 0 0 0 0 0 0 2 0 0 1 0 0 0 16 88 175 220 229 259 271 203 132 201 217 277
4 0 0 0 0 0 15 5 0 7 0 0 0 0 0 0 0 0 0 0 2 0 0 0 0 0 0 0 0 0 4 0 0 4 23 25 44 67 117 167 221 205 220 163
19 26 57 35 39 94 53 16 15 0 1 0 0 0 0 0 0 0 1 1 0 0 0 0 0 0 1 0 2 4 29 19 13 21 65 122 211 277 310 258 239 183 116 65
3 0 18 6 27 36 30 21 0 0 1 0 0 0 0 0 0 0 0 0 12 1 0 0 0 0 0 36 27 70 119 158 189 227 270 263 290 277 215 135 100 72 26 5
18 0 3 7 8 27 29 1 0 0 0 0 0 0 0 0 0 0 0 1 3 1 0 0 0 0 3 3 40 80 104 100 108 121 163 217 121 100 73 39 15 2 3 0
31 28 29 40 0 0 0 0 0 0 0 0 0 0 0 0 0 0 0 0 5 16 22 3 5 0 0 0 12 67 65 76 149 193 48 13 1 0 1 0 0 1 3 8

GFSCGP_con_mucape_069.txt.gz
CAPE
0 0 0 0 0 0 0 4 0 7 1 0 0 0 0 2 11 0 51 101 395 503 302 115 0 1 17 0 23 3 3 14 9 2 0 2 4 2 9 8 56 135 169 171
0 0 0 0 0 0 0 0 0 0 0 0 0 0 0 0 5 7 32 73 159 529 333 172 1 0 7 14 0 0 0 15 10 6 1 0 4 1 1 4 49 134 184 152
0 0 0 0 0 0 0 0 0 0 1 0 0 0 0 0 0 1 0 1 51 358 370 271 47 0 4 14 0 0 0 3 0 7 0 0 7 1 0 2 0 73 128 120
0 0 0 0 0 0 0 0 0 0 0 0 0 0 0 1 10 3 4 0 0 141 395 315 127 13 0 10 2 0 0 3 0 0 0 0 0 0 0 0 2 2 121 92
0 0 0 0 0 0 0 0 0 0 0 0 0 0 0 0 1 1 0 1 5 58 357 358 199 55 17 4 0 0 0 2 0 0 0 0 1 1 2 2 0 0 62 125
0 0 0 0 0 0 0 0 0 0 0 0 0 0 0 13 5 0 0 1 9 64 236 328 212 112 4 48 17 21 0 0 0 0 0 1 33 0 0 0 3 0 35 155
0 0 0 0 0 0 0 0 0 0 0 0 1 0 0 2 0 0 0 1 1 53 258 363 204 149 20 35 59 16 14 6 0 0 2 18 0 0 2 3 29 2 4 61
0 0 0 0 0 0 0 0 0 0 0 8 11 0 7 3 1 0 0 0 0 23 303 403 234 163 54 23 48 51 13 7 2 0 0 13 0 0 0 13 60 6 3 8
0 0 0 0 0 0 0 0 0 0 12 62 25 2 0 0 0 0 0 0 1 0 188 405 336 206 122 41 39 54 19 20 15 24 4 0 24 17 4 33 33 61 35 0
0 0 0 0 0 0 0 1 0 0 0 0 53 76 43 0 0 0 2 18 9 19 124 329 446 350 200 71 28 52 38 23 14 16 29 18 17 27 11 31 38 38 16 15
0 0 0 0 0 0 0 0 0 0 0 0 58 93 22 0 0 7 19 5 1 96 128 296 412 487 350 184 71 47 33 33 42 38 25 21 33 28 44 56 86 48 90 40
0 0 0 0 20 0 0 0 0 0 0 4 108 69 0 1 5 4 6 1 0 0 178 264 421 476 511 377 155 77 62 34 25 50 47 152 166 114 186 107 157 129 121 158
0 0 0 0 0 9 0 0 18 0 0 0 37 0 2 0 0 1 26 37 17 14 3 85 332 453 529 519 383 151 97 61 36 42 64 147 265 301 366 353 327 274 213 190
0 0 0 0 0 0 0 0 23 5 0 0 0 21 13 0 0 0 2 25 39 34 14 30 94 326 471 509 559 386 208 136 67 40 55 145 268 264 352 341 330 306 280 218
0 0 0 0 25 34 0 0 0 0 0 0 0 0 0 0 0 0 0 0 0 8 1 5 19 93 255 465 526 525 412 273 177 114 79 162 325 243 189 257 256 220 217 192
0 0 0 0 0 0 0 0 0 0 0 0 0 0 0 0 1 0 0 0 0 6 18 2 0 10 26 146 425 506 585 700 353 318 292 211 233 201 231 295 291 238 206 201
0 0 0 0 0 0 0 0 0 0 0 16 0 11 4 3 0 9 0 0 0 0 0 0 0 0 9 47 62 380 501 469 681 585 328 335 327 269 298 267 240 236 264 277
0 0 0 0 0 0 42 10 0 8 0 5 6 3 6 0 0 0 0 0 0 0 0 5 9 0 0 7 1 6 158 482 498 466 534 481 486 417 351 278 251 286 293 275
0 0 0 0 0 0 2 12 28 51 3 1 5 2 0 0 2 51 0 0 0 0 0 0 3 17 30 52 68 0 0 71 344 586 623 471 630 526 431 367 352 361 361 323
0 0 0 0 0 0 0 2 0 0 0 10 6 0 1 1 1 1 0 0 0 0 0 0 1 0 0 0 31 72 30 0 3 263 568 542 657 583 573 636 569 492 387 310
0 0 0 0 0 0 15 36 26 0 0 5 7 5 1 1 0 0 0 0 0 0 0 0 0 0 0 0 0 36 31 10 19 52 91 292 456 662 637 575 652 640 245 162
0 0 0 0 0 0 69 13 38 44 34 26 4 1 0 0 0 0 0 0 5 5 0 0 0 0 0 0 0 0 0 0 0 0 38 73 183 246 264 305 306 303 278 207
49 9 61 4 20 104 124 68 6 17 12 0 0 0 0 0 0 0 0 1 0 2 0 0 0 0 0 0 0 0 1 0 7 9 0 1 76 197 228 238 255 509 219 105
20 53 39 68 128 35 84 31 3 10 2 0 0 0 0 0 0 0 0 0 0 0 0 0 0 0 0 0 0 0 14 41 87 81 141 181 202 127 58 57 66 63 154 168
35 11 5 26 16 82 86 4 0 6 3 0 0 0 0 0 0 0 0 0 0 0 0 0 0 0 0 0 0 0 15 115 110 206 149 207 320 262 254 292 239 158 90 40
41 70 41 119 18 33 19 0 0 0 0 0 0 0 0 0 0 0 0 0 0 0 0 0 0 3 5 0 0 0 0 41 118 90 62 95 137 216 159 97 120 143 105 28

GFSCGP_con_mucape_072.txt.gz
CAPE
0 0 0 0 0 0 0 0 0 0 0 0 0 0 0 0 0 14 0 0 76 324 326 209 55 24 0 16 5 4 0 0 1 0 0 5 0 0 0 9 25 18 11 76
0 0 0 0 0 0 0 0 0 0 0 0 0 0 0 0 0 4 14 10 28 321 313 181 60 7 0 4 6 0 0 0 3 0 0 0 1 0 0 9 7 7 22 67
0 0 0 15 0 0 0 0 0 0 0 0 0 0 0 0 0 0 7 3 33 301 301 188 74 0 0 4 5 0 4 0 1 2 0 4 9 3 0 0 1 1 24 33
0 0 0 1 0 0 0 0 0 4 0 0 3 0 0 0 0 0 0 0 0 57 355 246 94 22 0 4 4 6 5 0 0 0 0 0 0 0 0 3 2 5 42 56
0 0 0 0 0 0 0 0 7 1 0 0 0 0 0 0 0 0 0 0 0 0 375 242 122 45 0 0 3 2 0 0 0 4 6 0 0 0 0 0 5 4 0 25
0 0 0 0 0 0 0 0 0 23 0 0 0 0 0 0 1 0 11 0 0 1 309 266 176 41 11 6 2 4 4 1 1 1 0 0 0 0 0 0 0 4 5 43
0 0 0 0 0 0 0 0 0 0 0 0 0 0 0 0 0 0 0 0 1 4 147 233 162 36 13 12 3 13 3 0 3 0 12 4 0 0 0 0 2 9 7 3
0 0 0 0 0 0 0 0 0 0 0 0 0 0 0 5 0 0 0 0 12 4 151 251 176 59 10 57 14 4 10 8 14 5 5 8 0 0 0 0 0 10 9 5
0 0 0 0 0 0 0 0 0 0 2 28 8 0 5 0 0 0 0 0 0 1 91 279 228 91 30 37 64 26 13 4 7 2 4 0 0 0 0 0 0 9 8 10
0 0 0 0 0 0 0 0 0 0 0 0 125 25 29 1 0 0 0 11 11 17 18 268 297 170 71 33 46 82 20 1 0 3 2 2 4 12 0 0 0 22 0 1
0 0 0 0 0 0 0 0 0 0 0 30 77 97 6 5 4 2 9 4 8 48 72 265 317 290 161 52 35 38 47 19 23 2 0 1 0 8 14 0 0 0 20 0
0 0 0 0 0 0 0 0 0 0 0 0 36 52 67 31 6 23 0 5 1 3 136 325 288 423 231 157 36 29 30 21 35 28 4 0 7 3 8 5 2 0 0 0
0 0 0 0 0 0 0 0 0 0 19 0 0 0 9 2 0 0 0 10 29 11 51 222 401 442 441 320 142 42 48 37 44 57 51 37 6 3 6 0 0 2 1 0
0 0 0 0 0 3 0 0 0 1 0 0 0 37 7 0 0 0 0 1 0 15 14 48 217 364 530 589 507 243 126 71 40 46 77 62 76 39 35 15 6 1 10 4
0 0 0 0 0 4 0 0 0 0 0 0 1 2 0 0 0 3 0 0 0 1 1 29 27 118 309 577 723 581 352 220 100 47 40 85 109 112 91 69 83 59 20 22
1 0 0 0 0 0 4 6 0 0 1 33 6 0 0 0 1 23 20 0 0 2 5 0 0 0 0 193 459 584 646 430 282 191 83 57 81 132 125 125 138 122 92 62
0 0 0 0 0 0 0 2 0 0 2 11 5 0 0 0 0 3 0 0 0 1 0 6 22 18 1 0 8 57 506 640 493 373 286 194 118 99 138 138 122 115 108 100
0 0 0 0 0 0 0 1 2 22 0 0 0 1 0 0 16 0 0 0 0 0 0 0 10 13 54 56 57 56 64 79 611 566 442 338 234 170 138 123 120 128 128 117
6 0 0 0 0 0 0 0 22 0 0 1 2 0 0 1 25 5 0 0 0 0 0 0 1 0 0 4 7 13 79 62 31 269 518 499 370 284 204 156 154 154 131 148
9 0 0 0 0 0 0 2 25 3 0 0 0 0 0 0 4 7 1 2 0 0 1 0 0 0 0 0 0 31 62 42 3 2 64 212 476 392 327 272 231 190 167 147
13 0 0 0 0 0 0 19 0 10 0 0 0 0 8 12 0 0 0 0 4 10 5 0 0 0 0 0 0 0 0 0 1 0 0 24 164 476 418 360 349 285 251 183
9 0 0 0 0 0 13 0 1 31 39 4 0 0 0 0 0 0 0 0 0 0 0 0 0 0 0 0 0 0 0 0 2 2 0 0 5 104 249 316 422 310 308 298
40 15 53 0 0 88 53 18 12 23 10 2 0 0 0 0 0 0 0 0 0 0 0 0 0 0 0 0 0 0 0 1 0 0 14 35 8 5 83 179 231 390 597 469
43 51 68 65 92 58 1 1 7 1 0 0 0 0 0 0 0 0 0 0 0 0 0 0 0 0 0 0 0 0 0 0 0 1 6 7 61 85 67 40 215 244 438 326
27 27 58 22 4 3 0 0 0 0 0 0 0 0 0 0 0 0 0 0 0 0 0 0 0 0 0 0 0 0 0 0 0 0 1 46 17 62 100 138 116 113 105 176
11 19 113 37 0 3 0 0 0 0 0 0 0 0 0 0 0 0 0 0 0 0 0 0 0 0 0 0 0 0 0 0 0 0 0 0 24 18 9 27 48 61 84 131

GFSCGP_con_mucape_075.txt.gz
CAPE
0 0 0 0 0 0 1 2 0 0 2 0 0 0 0 0 0 0 0 0 0 28 66 119 181 193 109 0 62 4 0 0 0 0 0 19 16 12 23 37 3 1 1 6
0 0 0 0 0 0 0 0 0 0 0 0 0 0 0 0 0 0 0 1 1 37 62 120 146 138 95 0 4 2 0 0 0 0 0 16 21 26 4 9 3 7 13 4
0 1 5 0 0 0 0 0 0 0 4 0 0 0 0 0 0 0 0 0 3 85 91 107 112 106 45 0 3 6 0 0 0 0 0 0 1 12 17 0 9 6 13 9
1 0 0 0 0 0 0 0 0 0 0 0 0 0 0 0 0 0 0 0 0 82 150 131 101 86 24 0 4 7 4 0 0 0 0 0 0 0 0 0 6 31 24 11
0 0 0 0 0 0 0 0 0 0 0 0 0 0 0 0 0 0 0 0 0 74 148 128 89 68 2 0 1 2 0 6 0 0 0 0 1 0 1 5 19 27 22 13
0 0 0 0 0 0 0 0 0 0 0 0 0 0 0 0 0 0 0 0 0 77 125 119 80 54 10 0 1 0 4 1 0 2 0 0 0 0 0 0 6 15 22 12
0 0 0 0 0 0 0 0 0 0 0 0 0 0 0 0 0 0 0 0 0 89 128 135 60 46 19 0 1 0 2 0 0 3 7 1 0 1 1 0 0 1 13 9
0 0 0 0 0 0 0 0 0 0 0 0 0 0 0 0 0 0 0 0 0 135 134 104 54 39 28 0 0 1 4 1 0 4 3 8 0 0 0 0 0 0 12 18
0 0 0 0 0 0 0 0 0 0 13 0 0 0 0 1 1 0 0 0 0 82 113 138 88 87 38 1 0 0 0 2 1 2 2 5 4 0 0 0 0 3 5 14
0 0 0 0 0 0 0 0 0 0 0 0 0 6 0 0 0 0 0 0 0 3 120 152 132 123 74 7 0 0 0 0 1 3 6 3 2 7 0 0 0 0 1 9
0 0 0 0 0 0 0 0 0 0 0 0 0 20 6 3 6 1 0 2 0 0 119 156 155 133 128 59 2 0 0 0 0 0 5 2 2 16 2 0 0 0 0 0
0 28 0 0 0 0 0 0 0 0 0 0 0 18 2 0 0 0 2 0 1 39 125 187 195 158 159 141 56 8 0 0 0 0 0 0 5 4 0 1 0 0 0 0
0 13 0 0 0 0 0 0 0 0 0 0 0 8 5 0 0 0 0 0 0 33 104 218 257 234 197 184 188 147 17 0 0 0 0 0 0 0 2 9 3 1 0 0
0 0 0 0 0 0 0 0 0 0 0 0 0 1 0 0 2 0 0 0 1 0 12 271 293 299 244 217 229 252 240 149 21 0 4 2 0 0 0 3 16 28 0 0
0 0 0 0 0 0 0 0 1 0 0 0 0 0 0 0 0 0 0 0 3 9 0 1 10 43 189 257 284 348 327 308 258 156 25 34 33 18 5 4 6 1 1 0
1 0 0 0 0 0 0 0 1 0 0 0 0 0 0 1 1 0 0 0 0 0 0 0 1 0 0 32 220 333 369 335 296 298 229 160 92 55 59 38 17 8 12 16
1 0 0 0 0 0 1 0 0 0 0 0 0 0 0 0 0 0 0 0 0 0 0 0 1 3 0 2 30 44 75 258 372 351 320 245 176 159 136 92 64 58 40 18
3 0 0 0 0 0 0 0 1 1 0 0 0 0 7 0 0 0 0 0 0 0 0 0 0 0 2 0 0 0 0 26 81 285 292 184 159 257 227 197 151 110 103 101
4 7 0 0 0 0 0 0 0 9 0 0 0 0 0 0 0 0 0 0 0 0 0 0 0 0 0 0 0 2 4 1 0 42 216 298 255 282 198 154 208 209 149 126
0 0 0 0 0 0 0 0 2 27 0 0 12 0 0 0 2 0 0 0 0 0 0 0 0 0 0 0 0 0 0 0 0 0 0 78 338 159 257 226 195 163 135 127
0 2 0 0 0 0 48 0 0 0 0 0 0 0 0 0 0 0 0 0 0 0 0 0 0 0 0 0 0 0 0 0 0 0 0 0 0 15 95 228 296 261 231 234
0 0 0 0 0 0 45 14 0 0 0 0 0 0 0 0 0 0 0 0 0 0 0 0 0 0 0 0 0 0 0 0 0 0 0 0 0 1 0 13 147 250 278 332
0 1 0 0 0 31 11 28 5 10 0 0 12 14 4 0 0 0 0 0 0 0 0 0 0 0 0 0 0 0 0 0 0 0 0 0 0 0 0 17 0 16 108 246
25 10 35 25 47 35 22 24 24 52 77 44 44 39 9 0 0 0 0 0 0 0 0 0 0 0 0 0 0 0 0 0 0 0 0 0 0 0 0 0 0 34 59 97
0 14 8 6 2 0 6 22 26 20 21 12 8 3 0 0 0 0 0 0 0 0 0 0 0 0 0 0 0 0 0 0 0 0 0 0 0 0 0 0 0 4 9 31
1 0 0 0 0 0 0 0 1 0 0 0 0 0 0 0 0 0 0 0 0 0 0 0 0 0 0 0 0 0 0 0 0 0 0 0 0 0 0 0 0 0 0 11

GFSCGP_con_mucape_078.txt.gz
CAPE
0 0 0 0 0 0 0 0 0 0 0 0 0 0 0 0 0 0 0 0 0 23 123 187 143 122 138 124 89 0 0 0 0 7 9 27 51 59 6 32 17 12 25 5
0 0 0 0 0 0 0 0 0 0 0 0 0 0 0 0 0 0 0 0 0 19 155 143 140 140 140 104 85 0 0 0 4 3 3 6 27 38 11 9 2 35 12 2
0 0 0 0 0 0 0 0 0 0 0 0 0 0 0 0 0 0 0 0 0 3 96 133 149 152 139 102 37 0 0 0 0 0 0 10 32 14 6 10 7 11 15 6
0 0 0 0 0 0 0 0 0 0 0 0 0 0 0 0 0 0 0 0 0 2 71 136 154 142 144 85 1 0 0 0 0 0 1 0 3 0 10 24 21 9 1 10
0 0 0 0 0 0 0 0 0 0 0 0 0 0 0 0 0 0 0 0 0 0 51 125 160 146 129 57 0 0 1 0 0 0 0 0 0 0 12 8 8 7 8 11
0 0 0 0 0 0 0 0 0 0 0 0 0 0 0 0 0 0 0 0 0 0 45 119 159 153 109 12 0 1 5 1 0 0 0 0 0 0 0 0 0 0 6 5
0 0 0 0 0 0 0 0 0 0 0 0 0 0 0 0 0 0 0 0 0 0 40 134 188 170 88 0 0 1 8 2 2 0 0 0 0 0 0 0 0 2 5 4
0 0 0 0 0 0 0 0 0 0 0 0 0 0 0 0 0 0 0 0 0 0 36 173 212 153 92 5 0 0 0 3 3 2 2 1 0 0 0 0 0 0 1 17
0 0 0 0 0 0 0 0 0 0 0 0 0 1 0 0 0 0 0 0 0 18 61 215 198 144 75 21 0 0 0 2 15 1 4 5 0 0 0 0 0 0 2 9
0 0 0 0 0 0 0 0 0 0 0 0 0 0 0 7 0 0 0 0 5 61 104 195 193 141 77 41 1 0 0 1 4 2 2 5 6 4 0 0 0 0 0 2
1 0 0 20 1 0 0 0 0 0 0 0 0 29 28 7 1 1 0 0 0 44 105 145 172 146 105 78 3 0 0 0 0 3 5 2 3 5 4 0 0 0 0 0
0 0 0 0 0 1 0 0 0 0 0 0 0 13 10 0 0 0 42 39 0 68 120 151 164 177 151 126 57 0 0 0 0 0 2 4 3 0 5 4 4 0 0 0
0 0 0 0 0 0 0 0 0 15 0 0 0 0 1 0 0 1 4 6 37 12 137 177 190 226 188 183 174 164 89 0 0 0 0 0 0 0 1 1 1 5 2 0
0 0 0 0 0 0 0 0 0 0 0 0 0 0 0 0 0 0 0 2 23 105 137 168 198 263 212 175 147 121 151 163 123 35 0 0 0 0 0 2 2 1 5 13
0 0 0 0 0 0 0 0 0 0 4 0 0 0 0 0 0 0 0 2 24 106 202 199 187 226 200 209 185 146 151 187 180 197 179 134 39 0 0 0 0 0 2 8
0 0 0 0 0 0 0 0 0 0 0 0 0 0 0 0 0 0 0 0 0 3 36 26 31 58 102 188 205 112 139 130 165 192 217 177 99 92 75 53 22 0 5 7
34 0 0 0 0 0 0 0 0 0 0 0 0 0 0 0 0 0 0 0 0 2 1 0 5 1 2 7 11 13 29 51 121 164 91 84 102 124 123 108 103 95 89 54
17 0 0 0 0 0 0 0 0 0 3 0 16 11 0 0 0 0 0 0 0 0 0 0 0 1 3 0 0 0 0 3 5 49 121 117 108 94 125 131 121 106 100 79
3 3 0 0 0 0 0 3 0 0 0 2 0 0 0 0 0 0 0 0 0 0 0 0 0 0 0 0 0 0 0 0 0 0 34 92 101 144 156 133 111 99 71 88
0 9 2 0 0 0 0 0 1 2 0 2 1 0 0 0 0 0 0 0 0 0 0 0 0 0 0 0 0 0 0 0 0 0 0 0 0 28 118 135 137 167 119 130
3 5 0 0 0 0 0 0 0 0 0 0 0 0 0 0 0 0 0 0 2 0 0 0 0 0 0 0 0 0 0 0 0 0 0 0 0 0 0 0 6 53 132 209
0 0 0 0 0 0 61 0 0 0 0 0 0 0 0 0 0 0 0 0 0 0 0 0 0 0 0 0 0 0 0 0 0 0 0 0 0 0 0 0 0 0 0 26
0 0 1 0 0 63 45 35 0 0 0 0 0 15 0 0 0 0 0 0 0 0 0 0 0 0 0 0 0 0 0 0 0 0 0 0 0 0 0 0 0 0 0 0
0 10 17 23 2 0 19 20 1 5 0 0 0 0 1 1 3 4 0 0 0 0 0 0 0 0 0 0 0 0 0 0 0 0 0 0 0 0 0 0 0 0 0 0
1 5 0 0 1 3 18 8 0 6 0 0 3 7 2 1 0 0 0 0 0 0 0 0 0 0 0 0 0 0 0 0 0 0 0 0 0 0 0 0 0 0 0 0
0 1 0 0 0 0 0 2 0 2 0 0 0 0 0 0 0 0 0 0 0 0 0 0 0 0 0 0 0 0 0 0 0 0 0 0 0 0 0 0 0 0 0 0

GFSCGP_con_mucape_081.txt.gz
CAPE
0 0 0 0 0 0 0 0 0 0 0 0 0 0 0 0 0 0 0 0 0 0 0 9 160 140 121 130 141 93 32 1 4 1 7 5 45 33 15 22 34 40 68 62
0 0 0 0 0 0 0 0 0 0 0 0 0 0 0 0 0 0 0 0 0 0 0 6 123 160 147 150 141 102 31 1 2 3 3 5 29 37 37 36 32 62 47 7
0 0 0 0 0 0 0 0 0 0 0 0 0 0 0 0 0 0 0 0 0 0 0 33 102 175 170 132 154 113 0 0 0 0 0 2 12 2 2 8 45 63 25 12
0 0 0 0 0 0 0 0 0 0 0 0 0 0 0 0 0 0 0 0 0 0 0 45 128 171 163 127 155 108 0 0 0 0 0 4 0 0 19 31 53 24 10 8
0 0 0 0 0 0 0 0 0 0 0 0 0 0 0 0 0 0 0 0 0 0 0 38 130 160 152 141 169 84 0 0 0 0 3 0 5 0 25 5 20 26 12 45
0 0 0 0 0 0 0 0 0 0 0 0 0 0 0 0 0 0 0 0 0 0 0 29 106 117 144 141 164 15 0 0 0 0 0 0 0 0 0 8 4 39 21 11
0 0 0 0 0 0 0 0 0 0 0 0 0 0 0 0 0 0 0 0 0 0 0 14 63 86 134 154 143 0 0 0 0 0 0 0 0 0 0 1 3 8 15 16
0 0 0 0 0 0 0 0 0 0 0 0 0 0 0 0 0 0 0 0 0 0 0 9 39 77 138 157 131 0 0 0 1 0 3 0 0 0 0 0 1 2 4 5
0 0 0 0 0 0 3 0 2 27 0 0 0 0 0 0 0 0 0 0 0 0 10 8 32 77 127 172 118 0 0 0 1 3 3 2 0 0 0 0 0 0 0 1
0 0 0 0 0 0 0 13 60 0 0 0 0 0 4 0 0 0 0 0 0 0 0 3 26 83 141 171 88 0 0 0 0 7 0 1 1 0 0 0 0 0 0 0
9 0 0 5 2 0 16 15 0 7 0 0 0 20 5 9 0 0 0 0 0 1 4 8 40 95 172 162 69 0 0 0 0 0 3 3 0 1 0 0 0 0 0 0
4 0 0 0 0 0 14 0 0 0 0 0 0 0 54 5 0 0 0 0 0 24 25 31 78 150 189 144 83 0 0 0 0 3 5 7 5 3 1 0 0 0 0 0
0 0 0 0 0 33 29 0 0 0 0 0 0 0 0 1 0 0 13 1 0 24 61 72 111 149 154 107 88 5 0 0 0 1 2 3 7 6 5 1 0 0 0 0
0 0 0 0 0 0 0 0 0 0 0 0 0 0 4 2 0 0 14 51 10 49 75 100 101 121 154 133 117 105 98 64 2 0 0 0 0 3 5 4 3 2 3 5
0 0 0 0 0 0 0 0 0 0 0 0 0 0 0 0 1 5 16 91 79 119 119 144 153 140 153 156 163 109 88 121 138 146 118 59 15 0 0 0 0 2 4 2
2 0 0 0 0 0 0 0 0 0 0 0 0 0 19 0 0 0 16 38 107 193 216 200 208 161 187 170 135 123 103 146 110 102 97 108 94 109 74 44 16 12 8 0
0 0 0 0 0 0 0 0 0 0 0 0 0 0 13 0 18 0 0 20 58 98 114 110 76 106 119 136 142 147 136 126 124 155 160 120 105 82 94 100 103 106 82 72
1 10 0 0 0 0 0 0 0 0 1 0 0 0 23 0 0 0 0 0 3 16 41 18 26 36 19 12 8 5 14 24 45 72 100 125 150 137 138 119 117 97 83 85
10 5 0 0 0 0 0 0 0 2 0 0 2 5 0 0 0 0 0 0 0 0 3 0 0 0 0 0 0 0 0 0 0 5 29 35 77 76 80 85 86 84 74 84
0 16 0 0 0 0 0 0 0 0 0 0 1 9 0 0 0 0 0 0 0 0 0 0 0 0 0 0 0 0 0 0 0 0 0 0 0 0 16 28 53 64 64 63
0 0 0 0 0 0 0 72 0 0 0 3 0 0 0 0 0 0 0 0 0 0 0 0 0 0 0 0 0 0 0 0 0 0 0 0 0 0 0 0 0 0 0 0
0 0 0 0 0 0 33 0 0 0 0 0 0 0 0 0 0 0 0 0 0 0 0 0 0 0 0 0 0 0 0 0 0 0 0 0 0 0 0 0 0 0 0 0
0 0 0 0 0 25 29 0 5 0 0 0 0 0 0 0 0 0 0 0 0 0 0 0 0 0 0 0 0 0 0 0 0 0 0 0 0 0 0 0 0 0 0 0
0 0 0 0 2 12 9 12 6 1 1 0 0 0 0 0 0 0 0 0 0 0 0 0 0 0 0 0 0 0 0 0 0 0 0 0 0 0 0 0 0 0 0 0
0 0 0 10 0 0 0 0 1 0 0 0 0 0 0 0 0 0 0 0 0 0 0 0 0 0 0 0 0 0 0 0 0 0 0 0 0 0 0 0 0 0 0 0
0 0 0 0 0 1 0 0 0 0 0 0 0 0 0 0 0 0 0 0 0 0 0 0 0 0 0 0 0 0 0 0 0 0 0 0 0 0 0 0 0 0 0 0

GFSCGP_con_mucape_084.txt.gz
CAPE
0 0 0 0 0 0 0 0 0 0 0 0 0 0 0 0 0 0 0 0 0 0 0 0 0 35 92 181 165 146 121 97 5 75 18 25 16 30 72 34 72 30 4 34
0 0 0 0 0 0 0 0 0 0 0 0 0 0 0 0 0 0 0 0 0 0 0 0 0 31 102 193 137 129 151 91 2 0 2 3 17 18 35 35 28 6 35 34
0 0 0 0 0 0 0 0 0 0 0 0 0 0 0 0 0 0 0 0 0 0 0 1 19 29 122 162 125 136 153 106 2 3 3 5 24 29 26 25 31 49 27 22
0 0 0 0 0 0 0 0 0 0 0 0 0 0 0 0 0 0 0 0 0 0 0 6 35 45 113 135 141 155 160 96 2 2 3 1 0 0 6 20 21 22 21 51
0 0 0 0 0 0 0 0 0 0 0 0 0 0 0 0 0 0 0 0 0 0 0 8 4 48 53 126 143 160 166 37 0 3 0 0 7 9 4 22 5 29 55 59
0 0 0 0 0 0 0 0 0 0 0 0 0 0 0 0 0 0 0 0 0 0 0 0 12 38 43 108 164 152 170 0 1 0 1 4 5 0 16 10 38 19 22 57
0 0 0 0 0 0 0 0 0 0 0 0 0 0 0 0 0 0 0 0 0 0 0 0 7 25 44 92 156 143 161 1 2 0 1 3 4 1 1 23 19 37 39 28
0 0 0 0 0 0 0 0 0 0 0 0 0 0 0 0 0 0 0 0 0 0 0 0 10 31 38 135 133 141 153 7 1 0 0 6 9 0 7 0 3 33 31 35
0 0 0 0 0 0 0 0 0 0 0 0 0 0 0 0 0 0 0 0 0 0 0 0 2 20 19 70 112 149 108 1 17 0 2 5 1 0 12 0 0 25 24 17
0 0 0 0 0 0 0 3 0 0 0 0 0 0 7 0 0 0 0 0 0 0 0 0 4 12 3 33 96 147 40 0 4 0 1 5 0 0 0 0 0 5 16 9
0 1 0 8 0 0 3 0 12 0 0 0 0 0 27 6 0 0 0 0 0 0 0 6 27 7 1 37 96 165 8 0 0 2 1 0 19 2 0 0 0 0 0 0
0 0 0 0 0 0 21 0 0 0 0 0 0 0 14 3 0 0 0 0 0 3 0 0 0 1 7 42 126 105 0 0 0 2 1 6 3 3 3 0 0 0 0 0
0 0 0 0 9 24 37 20 23 2 0 0 0 0 0 0 0 0 0 1 2 38 7 1 1 7 15 87 182 56 0 0 0 0 5 4 6 7 3 4 0 0 0 0
0 0 0 0 0 0 0 0 0 0 0 0 0 0 0 0 0 0 0 17 0 71 67 35 14 17 56 199 136 61 0 0 0 0 0 1 1 2 5 2 5 0 0 0
0 0 0 0 0 0 0 0 0 0 0 0 0 0 0 0 3 0 0 17 9 76 74 80 65 61 147 170 91 60 26 46 34 40 43 25 7 0 0 0 0 0 1 1
0 0 0 0 0 0 0 0 0 0 0 0 0 0 0 0 26 0 2 28 84 61 113 106 104 111 164 138 110 100 112 149 103 112 125 117 98 72 40 14 0 0 0 0
0 0 0 0 0 0 0 0 0 0 0 0 0 0 0 53 68 0 0 16 125 128 109 95 122 128 133 88 116 102 75 76 82 97 123 104 97 95 99 90 82 71 61 49
0 0 0 0 0 0 0 0 3 0 0 0 0 0 0 0 0 0 0 0 46 81 129 132 139 139 84 44 33 121 91 85 89 101 93 95 106 76 102 103 99 95 107 92
0 0 0 0 0 0 0 9 0 0 0 0 0 0 0 0 0 3 0 0 0 82 122 93 71 14 1 2 0 0 14 29 30 30 48 21 25 24 37 45 73 49 76 86
0 0 0 0 0 0 0 54 39 4 0 0 0 0 0 2 0 0 0 0 0 0 0 0 1 0 0 0 0 0 0 0 0 0 0 1 2 2 4 8 12 7 24 38
0 0 0 0 0 0 0 4 28 1 0 0 0 0 4 0 0 0 0 0 0 0 0 0 0 0 0 0 0 0 0 0 0 0 0 0 0 0 0 0 0 0 0 0
0 0 0 0 0 0 0 42 11 0 0 0 0 0 0 0 0 0 0 0 0 0 0 0 0 0 1 0 0 0 0 0 0 0 0 0 0 0 0 0 0 0 0 0
1 0 0 0 0 0 0 3 0 0 0 0 0 0 0 0 0 0 0 0 0 0 0 0 0 0 0 0 0 0 0 0 0 0 0 0 0 0 0 0 0 0 0 0
0 0 0 0 0 0 0 4 8 0 0 0 0 0 0 0 0 0 0 0 0 0 0 0 0 0 0 0 0 0 0 0 0 0 0 0 0 0 0 0 0 0 0 0
0 0 0 0 0 0 0 0 0 0 0 0 0 0 0 0 0 0 0 0 0 0 0 0 0 0 0 0 0 0 0 0 0 0 0 0 0 0 0 0 0 0 0 0
0 0 0 0 0 0 0 0 0 0 0 0 0 0 0 0 0 0 0 0 0 0 0 0 0 0 0 0 0 0 0 0 0 0 0 0 0 0 0 0 0 0 0 0

GFSCGP_con_mucape_087.txt.gz
CAPE
0 0 0 0 0 0 0 0 0 0 0 0 0 0 0 0 0 0 0 0 0 0 0 0 0 0 105 264 329 307 475 477 210 257 229 104 17 29 48 81 56 49 68 93
0 0 0 0 0 0 0 0 0 0 0 0 0 0 0 0 0 0 0 0 0 0 0 0 0 6 71 151 202 275 419 268 174 184 197 134 49 34 20 58 66 30 44 90
0 0 0 0 0 0 0 0 0 0 0 0 0 0 0 0 0 0 0 0 0 0 0 0 0 26 69 61 105 268 304 254 181 145 3 23 50 25 36 28 44 26 25 42
0 0 0 0 0 0 0 0 0 0 0 0 0 0 0 0 0 0 0 0 0 0 0 0 0 41 40 28 54 211 275 210 196 118 9 13 14 25 2 41 1 17 40 36
0 0 0 0 0 0 0 0 0 0 0 0 0 0 0 0 0 0 0 0 0 0 0 0 0 36 30 4 72 216 222 196 197 5 5 15 3 14 1 0 15 25 51 54
0 0 0 0 0 0 0 0 0 0 0 0 0 0 0 0 0 0 0 0 0 0 0 0 6 54 69 0 88 197 183 199 182 1 7 1 20 15 0 8 5 17 47 26
0 0 0 0 0 0 0 0 0 0 0 0 0 0 0 0 0 0 0 0 0 0 0 8 59 89 79 7 112 163 181 185 164 5 2 5 2 13 3 12 7 38 22 14
0 0 0 0 0 0 0 0 0 0 0 0 0 0 0 0 0 0 0 0 0 9 0 0 52 76 27 7 70 155 188 155 53 3 2 4 3 2 3 10 12 20 27 27
0 0 0 0 0 0 0 0 0 0 0 0 0 0 0 0 6 0 0 0 0 0 0 0 24 58 15 9 91 145 158 137 4 12 2 5 1 0 0 4 3 11 40 32
1 0 4 3 0 0 1 20 0 0 0 0 0 0 0 13 0 0 0 0 0 4 6 0 6 39 10 22 58 119 113 115 2 34 4 2 3 1 0 4 6 11 23 7
17 8 7 28 15 0 9 0 0 0 0 0 0 0 69 25 1 0 0 0 0 41 30 11 7 28 4 1 63 102 91 53 1 35 1 5 9 6 0 0 0 14 8 14
2 0 0 0 0 6 17 6 0 0 0 0 0 0 26 0 0 0 0 0 0 17 22 2 2 10 5 19 57 103 118 1 1 7 10 4 7 4 0 0 0 0 0 0
1 3 0 22 11 26 15 9 3 0 0 0 0 0 21 1 0 0 0 1 0 0 22 14 3 27 42 112 95 123 94 7 7 2 5 5 4 3 4 7 0 0 0 0
7 0 0 0 0 0 0 0 0 0 0 0 0 0 0 0 0 0 0 0 0 0 10 42 97 78 68 141 101 156 36 4 6 10 25 24 9 13 4 0 0 4 8 0
17 0 4 0 0 0 0 0 0 0 0 0 0 0 0 0 0 0 1 0 1 5 131 230 5 54 165 118 170 138 1 9 4 5 14 12 16 20 21 19 15 4 0 0
0 6 0 0 0 0 0 0 0 0 0 0 0 0 0 0 0 26 2 0 0 37 47 106 18 79 96 176 216 95 4 0 0 0 0 0 0 2 21 19 16 19 11 4
0 0 0 0 0 0 0 0 0 0 0 0 0 0 0 0 0 14 9 3 0 8 53 57 145 131 169 185 145 88 40 68 72 75 71 66 42 27 14 4 4 2 2 5
0 0 0 0 0 0 0 0 0 3 0 0 0 0 0 0 0 0 0 0 0 6 80 53 97 247 134 157 147 101 54 70 68 64 77 100 131 82 74 99 87 125 86 61
1 0 0 0 0 0 0 26 0 0 0 0 0 0 0 0 0 0 0 0 0 0 19 101 130 126 139 97 35 30 31 32 5 14 52 55 52 75 110 71 67 70 65 62
0 0 0 0 0 0 0 0 6 39 0 0 0 0 0 0 0 0 0 7 0 0 0 48 137 120 48 18 12 0 0 0 3 0 0 0 4 0 3 2 2 2 0 15
0 0 0 0 0 0 0 0 21 0 0 0 0 0 0 0 0 0 0 4 0 0 0 0 8 41 4 4 3 1 0 0 0 0 0 0 0 0 0 0 0 0 0 0
0 0 0 0 0 0 0 0 0 0 0 0 0 0 0 0 0 1 0 0 0 0 0 0 0 0 0 0 0 0 0 0 0 0 0 0 0 0 0 0 0 0 0 0
0 0 0 0 0 0 0 0 0 2 0 0 0 0 0 0 0 0 0 0 0 0 0 0 0 0 0 0 1 0 0 0 0 0 0 0 0 0 0 0 0 0 0 0
0 0 0 0 0 0 0 0 0 0 0 0 0 0 0 0 0 0 0 0 0 0 0 0 0 0 0 0 0 0 2 3 0 1 0 0 0 0 0 0 0 0 0 0
0 0 0 0 0 0 0 0 0 0 0 0 0 0 0 0 0 0 0 0 0 0 0 0 0 0 0 0 0 0 0 0 0 0 0 0 0 0 0 0 0 0 0 0
0 0 0 0 0 0 0 0 0 0 0 0 0 0 0 0 0 0 0 0 0 0 0 0 0 0 0 0 0 0 0 0 0 0 0 0 0 0 0 0 0 0 0 0

GFSCGP_con_mucape_090.txt.gz
CAPE
0 0 0 0 0 0 0 0 0 0 0 0 0 0 0 0 0 0 0 0 0 0 0 0 0 0 0 13 545 953 1634 1215 1127 1126 1046 820 570 281 114 40 88 156 93 88
0 0 0 0 0 0 0 0 0 0 0 0 0 0 0 0 0 0 0 0 0 0 0 0 0 0 0 64 576 909 1394 953 1183 1404 1239 732 358 282 112 12 7 21 44 91
0 0 0 0 0 0 0 0 0 0 0 0 0 0 0 0 0 0 0 0 0 0 0 0 0 0 7 176 580 829 1213 949 1288 1056 817 565 444 242 190 30 8 15 32 112
5 0 0 0 0 0 0 0 0 0 0 0 0 0 0 0 0 0 0 0 0 0 0 0 0 0 8 266 516 743 978 1177 1018 845 716 608 424 182 129 23 10 44 46 42
2 0 0 0 0 0 0 0 0 1 2 0 0 0 0 0 0 0 0 0 0 0 0 0 0 0 0 278 562 644 941 873 686 582 565 370 186 113 234 188 53 33 5 6
24 21 0 3 0 2 16 6 4 1 1 0 0 0 0 0 0 0 0 0 0 0 0 0 0 0 15 388 176 382 747 731 558 474 328 276 172 32 103 21 3 0 14 16
31 51 43 21 29 11 27 0 0 0 0 0 0 0 0 0 5 0 1 0 0 0 22 8 14 102 267 328 7 173 535 505 340 307 217 146 76 81 92 7 0 4 11 12
79 0 29 15 11 5 8 14 0 0 0 0 0 0 5 0 9 22 5 0 0 0 119 139 57 350 446 105 145 197 169 362 204 232 85 51 132 73 53 6 5 12 3 6
3 0 4 5 8 14 37 49 18 1 0 0 0 0 1 12 42 11 1 0 0 0 341 320 170 389 593 241 148 284 216 296 214 216 30 53 74 29 20 4 1 11 13 31
69 10 33 32 34 65 79 53 11 35 0 0 0 0 60 28 6 0 0 0 0 0 364 457 47 351 576 287 116 195 205 205 201 91 10 24 14 20 29 32 4 5 14 26
15 73 90 71 84 69 72 63 47 43 41 0 0 0 130 1 0 0 0 3 1 9 87 307 285 233 369 177 29 209 177 192 186 30 26 15 5 6 0 2 4 5 13 20
84 81 129 75 52 77 49 46 52 18 0 0 0 0 0 7 0 0 0 0 0 0 3 106 115 103 44 155 69 104 191 187 109 1 8 11 0 12 0 0 15 1 1 1
151 111 104 62 29 63 38 41 8 0 0 0 0 0 77 0 0 0 0 12 0 0 3 17 44 22 7 3 2 150 277 151 5 39 10 5 10 16 15 28 0 36 8 5
8 53 33 22 24 25 12 1 3 7 0 0 0 0 0 0 0 0 6 16 0 0 1 29 24 5 82 8 66 265 378 57 6 43 4 14 24 9 11 19 0 0 24 15
16 48 23 0 0 0 0 0 0 0 0 0 0 0 0 1 10 1 15 0 0 0 3 156 116 0 47 80 393 444 199 20 30 30 42 5 14 8 2 3 0 1 1 0
6 1 0 0 0 0 0 0 0 0 0 0 0 0 2 17 0 0 0 0 7 0 11 71 104 143 98 177 187 187 81 9 15 27 5 32 30 36 40 21 11 2 4 4
0 0 0 0 0 0 0 0 0 0 0 5 0 4 10 4 0 0 0 0 5 0 0 7 188 281 207 312 151 127 66 18 20 8 4 3 7 4 27 30 30 40 48 45
0 5 2 4 0 0 2 4 15 0 0 0 0 0 0 0 0 0 2 0 0 0 0 58 43 247 176 206 169 124 44 30 15 22 50 60 7 37 71 19 27 12 8 6
38 0 0 0 0 0 16 6 0 0 0 0 0 0 0 0 0 0 0 0 0 0 0 2 56 265 54 175 201 170 42 24 47 54 74 85 110 48 45 34 98 54 58 38
18 5 0 0 0 0 0 0 24 53 0 0 0 0 0 0 0 0 0 0 0 0 0 0 6 141 220 227 220 132 102 81 63 39 40 46 72 88 118 169 170 88 117 121
0 0 0 0 0 0 0 0 1 44 0 0 0 0 0 0 0 0 1 0 0 0 0 0 0 0 84 119 134 98 48 17 2 1 1 7 0 5 14 18 20 12 15 14
21 12 0 0 0 0 0 0 0 0 0 0 0 0 0 0 0 0 0 0 0 0 0 0 0 0 0 0 0 0 1 0 1 1 0 0 0 0 0 0 0 0 0 0
32 0 0 0 0 0 0 0 0 0 0 0 0 0 0 0 0 0 0 0 0 0 0 0 0 0 0 0 0 0 0 0 0 0 0 0 0 0 0 0 0 0 0 0
0 0 0 0 0 0 0 0 0 0 0 0 0 0 0 0 0 0 0 0 0 0 0 0 0 0 0 0 0 0 0 0 0 0 1 3 0 0 0 0 0 0 0 0
0 0 0 0 0 0 0 0 0 0 0 0 0 0 0 0 0 0 0 0 0 0 0 0 0 0 0 0 0 0 4 2 0 0 1 0 0 0 0 0 0 0 0 0
0 0 0 0 0 0 0 0 0 0 0 0 0 0 0 0 0 0 0 0 0 0 0 0 0 0 0 0 0 0 0 0 0 0 0 0 0 0 0 0 0 0 0 0

GFSCGP_con_mucape_093.txt.gz
CAPE
0 0 0 0 0 0 0 0 0 0 0 0 0 0 0 0 0 0 0 0 0 0 0 0 0 0 0 0 0 214 1164 2517 1913 1856 1875 1375 1511 1175 1265 1047 882 559 373 262
0 0 0 0 0 0 0 0 0 0 0 0 0 0 0 0 0 0 0 0 0 0 0 0 0 0 0 0 0 256 794 1806 1735 1742 1715 1747 1402 1243 932 739 363 333 232 132
4 0 0 0 0 0 0 0 0 0 0 0 0 0 0 0 0 0 0 0 0 0 0 0 0 0 0 0 0 172 707 1490 1616 1691 1727 1610 1247 811 819 568 544 402 226 65
3 14 18 44 0 0 0 0 0 0 0 0 0 0 0 0 0 0 0 0 0 0 0 0 0 0 0 0 28 265 677 1516 1300 1694 1659 1550 807 577 639 615 417 122 15 5
0 0 57 86 28 0 0 1 0 0 0 0 0 0 0 0 0 0 0 0 0 0 0 0 0 0 0 0 44 426 749 1364 1375 1735 1562 1583 1188 1015 662 586 499 179 6 11
37 2 79 90 107 15 5 2 55 34 32 0 0 0 0 9 18 0 9 14 17 16 5 0 0 0 0 0 380 721 912 1183 1302 1485 1434 1379 1136 809 394 609 615 184 43 5
85 26 60 77 66 55 27 69 0 0 0 0 8 0 0 67 92 27 25 24 29 33 52 18 2 0 0 0 541 921 939 1146 1229 1265 1235 1147 878 594 382 361 378 8 5 4
82 5 103 83 100 73 6 41 0 0 0 0 34 0 10 140 78 26 34 41 39 16 155 256 125 122 100 239 783 447 954 1039 1136 1136 1045 753 557 342 354 347 50 0 0 3
155 81 60 136 78 77 8 0 31 40 24 0 8 27 186 108 32 14 29 34 12 2 6 483 315 182 500 771 352 181 907 1028 945 830 764 448 332 316 325 107 0 6 0 0
254 91 86 63 53 67 43 56 0 55 0 0 0 0 168 82 19 5 9 17 2 1 3 6 531 225 707 625 172 306 652 843 561 455 426 272 385 224 175 49 0 0 0 0
3 291 154 107 70 30 15 82 67 87 88 0 0 89 157 2 0 0 0 4 3 0 0 25 88 595 777 691 134 306 470 679 455 269 180 282 168 92 129 79 3 0 0 0
1 201 158 41 47 31 65 80 122 0 2 48 70 38 5 11 0 1 7 0 7 0 0 14 318 353 497 461 183 109 567 547 367 229 328 448 154 60 41 24 0 2 0 5
0 149 210 83 122 130 88 93 83 59 46 66 0 55 88 0 0 13 19 15 15 0 0 35 112 247 389 244 243 127 356 389 219 161 242 235 129 59 19 5 4 0 0 3
0 0 60 43 99 118 40 40 55 64 50 20 71 31 2 0 10 11 41 8 11 0 0 1 90 86 32 27 10 135 395 282 254 115 117 160 109 133 69 70 57 5 3 11
4 237 39 56 52 86 85 59 65 22 16 0 2 0 6 30 22 42 16 0 0 1 0 6 191 88 34 33 12 28 397 421 125 65 158 127 78 71 109 83 53 41 53 7
0 29 6 0 0 0 0 0 0 2 0 0 0 4 21 13 19 4 0 0 0 0 0 3 185 247 54 39 68 329 537 243 40 73 49 58 41 23 32 53 36 0 0 29
0 0 6 0 0 0 0 0 0 0 22 9 0 0 2 0 0 0 0 0 0 0 0 0 38 24 273 170 202 284 471 124 55 33 67 10 11 3 4 2 5 3 1 4
0 0 1 0 0 0 6 27 18 38 4 0 0 0 0 0 0 0 0 0 0 0 0 0 1 2 133 61 243 246 338 113 58 52 48 6 9 21 4 10 7 7 4 6
0 0 0 1 11 0 41 16 13 28 3 0 0 0 0 0 0 0 0 0 0 0 0 0 0 0 0 42 228 263 177 111 53 54 26 5 4 3 3 20 15 3 5 24
0 2 1 1 4 2 0 0 7 19 0 0 0 0 0 0 0 0 0 0 0 7 0 0 0 0 25 6 160 151 80 9 29 46 14 62 56 6 17 36 64 20 8 4
25 0 12 0 0 17 0 0 0 38 0 0 0 0 0 0 0 0 2 0 2 0 0 0 0 0 0 0 16 5 0 22 2 22 31 63 70 120 114 100 109 130 122 174
21 18 37 25 27 37 0 0 0 0 0 0 0 0 0 0 0 0 0 0 0 0 0 0 0 0 0 0 0 5 5 3 0 5 15 22 1 33 62 62 81 79 86 51
26 0 0 0 0 0 0 0 0 0 0 0 0 0 0 0 0 0 0 0 0 0 0 0 0 0 0 0 0 0 0 0 0 0 0 0 0 3 0 0 2 0 0 0
0 0 0 0 0 0 0 0 0 0 0 0 0 0 0 0 0 0 0 0 0 0 0 0 0 0 0 0 0 0 0 0 0 0 0 0 0 0 0 0 0 0 0 0
0 0 0 0 0 0 0 0 0 0 0 0 0 0 0 0 0 0 0 0 0 0 0 0 0 0 0 0 0 0 0 0 0 0 0 0 0 0 0 0 0 0 0 0
0 0 0 0 0 0 0 0 0 0 0 0 0 0 0 0 0 0 0 0 0 0 0 0 0 0 0 0 0 0 0 0 0 0 0 4 10 3 0 1 9 5 0 0

GFSCGP_con_mucape_099.txt.gz
CAPE
0 0 0 0 0 0 0 0 0 0 0 0 0 0 0 0 0 0 0 0 0 0 0 0 0 0 0 0 0 32 2400 2330 2340 2466 2331 2216 1645 1519 1639 1291 1247 1345 1721 1470
0 0 0 0 0 0 0 0 0 0 0 0 0 0 0 0 0 0 0 0 0 0 0 0 0 0 0 0 0 69 2428 2394 2252 2390 2116 1889 1419 1337 1383 1992 1704 1207 1899 1611
0 0 0 0 0 0 0 0 0 0 0 1 0 0 0 0 0 0 0 0 0 0 0 0 0 0 0 0 0 919 2440 2340 2297 2191 1902 1661 1393 1166 1195 1628 1650 1771 995 1188
0 0 0 0 0 0 0 0 0 0 2 0 0 0 0 0 0 0 4 0 0 0 0 0 0 0 0 0 0 813 2436 2385 2304 1944 1627 1458 1226 1053 936 919 1129 1340 1397 1164
0 0 0 0 0 0 0 21 1 0 16 9 0 0 0 0 0 0 0 0 0 0 52 94 11 0 3 0 0 445 2286 2196 1987 1735 1569 1260 1160 1042 873 1297 1686 1320 1264 1154
0 0 1 0 0 8 4 15 20 1 4 0 0 0 0 0 0 0 140 173 139 85 106 149 117 43 13 0 0 0 2028 2139 1933 1588 1434 1244 1059 1108 905 1204 989 929 838 723
0 0 0 0 12 1 20 10 17 4 0 0 0 0 0 0 0 5 140 146 103 83 81 191 234 110 72 67 10 0 116 2013 1844 1553 1391 1279 1029 1162 1028 1023 847 634 418 265
0 0 0 2 1 28 26 35 40 0 0 0 0 0 0 0 1 16 7 77 54 49 47 23 237 144 172 594 23 30 1042 1667 1634 1497 1482 1381 1357 1380 1206 1155 969 672 466 177
0 0 0 0 0 82 49 18 0 4 46 0 1 7 66 60 106 44 9 27 44 32 10 12 188 175 797 739 530 421 598 1371 1565 1597 1422 1300 1545 1540 1563 1123 723 542 408 289
2 0 0 0 0 63 69 68 0 24 0 0 73 32 0 4 0 2 1 13 0 0 0 6 166 232 439 517 514 513 553 626 1079 1243 1175 1376 1448 1179 1073 919 748 467 187 150
0 0 0 0 16 8 11 0 0 31 10 0 0 1 0 5 8 2 0 0 0 0 0 8 162 195 250 271 284 95 132 398 780 1145 978 1067 1255 1141 797 621 306 163 159 34
1 0 0 0 0 0 21 0 2 0 0 0 0 0 0 0 0 0 0 0 0 0 0 4 87 117 217 101 75 198 170 515 776 932 1051 1112 852 705 686 269 174 70 13 7
0 0 0 0 0 0 1 7 43 86 3 0 0 0 0 0 0 0 0 0 0 0 0 0 8 84 87 160 98 1 71 364 573 797 994 1011 501 780 370 159 74 86 1 6
0 0 0 0 0 0 0 19 82 83 1 22 0 0 0 0 0 0 0 0 0 0 0 0 0 25 97 70 49 5 302 476 553 646 635 499 631 193 216 183 48 47 5 21
0 0 0 0 0 0 6 9 37 69 1 0 0 0 0 0 0 0 0 0 0 0 0 0 0 2 20 6 1 64 121 291 403 521 588 638 287 47 105 10 9 55 34 29
0 0 0 0 0 1 8 11 5 0 0 0 0 0 0 0 0 0 0 0 0 0 0 0 0 0 0 0 4 21 23 193 258 338 328 321 69 58 17 60 135 139 54 50
0 0 0 1 0 2 12 0 0 0 0 0 0 0 0 0 0 0 0 0 0 0 0 0 0 0 0 14 21 23 19 32 145 63 142 165 49 63 187 138 145 120 159 56
0 0 0 0 4 0 0 0 0 0 0 0 0 0 0 0 0 0 0 0 0 0 0 0 0 0 0 0 13 23 22 34 26 209 120 67 4 68 116 104 131 110 109 102
0 0 0 0 2 0 0 0 0 0 0 0 0 0 0 0 0 0 0 0 0 0 0 0 0 0 0 0 0 3 21 28 118 117 104 18 1 15 38 33 34 32 23 27
2 4 0 0 0 0 0 0 0 0 0 0 0 0 0 0 0 0 0 0 0 0 0 0 0 0 0 0 0 0 0 45 50 154 123 118 10 31 29 13 10 10 8 6
4 2 0 0 0 0 0 0 0 0 0 0 0 0 0 0 0 0 0 0 0 0 0 0 0 0 0 0 0 0 0 0 0 0 3 2 11 2 10 14 13 16 11 11
0 3 0 0 0 0 0 0 0 0 0 0 0 0 0 0 0 0 0 0 0 0 0 0 0 0 0 0 0 0 0 0 0 0 0 0 2 0 3 21 31 21 13 16
0 0 0 0 0 0 0 0 0 0 0 0 0 0 0 0 0 0 0 0 0 0 0 0 0 0 0 0 0 0 0 0 0 0 0 0 0 0 0 0 9 30 25 11
0 0 0 0 0 0 0 0 0 0 0 0 0 0 0 0 0 0 0 0 0 0 0 0 0 0 0 0 0 0 0 0 0 0 0 0 0 0 0 0 0 0 0 0
0 0 0 0 0 0 0 0 0 0 0 0 0 0 0 0 0 0 0 0 0 0 0 0 0 0 0 0 0 0 0 0 0 0 0 0 0 0 0 0 0 0 0 0
0 0 0 0 0 0 0 0 0 0 0 0 0 0 0 0 0 0 0 0 0 0 0 0 0 0 0 0 0 0 0 0 0 0 0 0 0 0 0 0 0 0 0 0

GFSCGP_con_mucape_102.txt.gz
CAPE
0 0 0 0 0 0 0 0 0 0 0 0 0 0 0 0 0 0 0 0 0 0 0 0 0 0 0 0 0 0 1605 2002 2298 2368 2111 1845 1565 1961 1986 2020 1874 1757 1655 1544
0 0 0 0 0 0 0 0 0 0 0 0 0 0 0 0 0 0 0 0 0 0 0 0 0 0 0 0 0 0 1256 1857 2217 2168 2086 1680 1670 1725 1699 1884 1927 1817 1627 1505
0 0 0 0 0 0 0 0 0 0 0 0 0 0 0 0 0 0 0 0 0 0 0 0 0 0 0 0 0 0 607 1810 2103 2113 2012 1876 1710 1458 1587 1439 1418 1546 1712 1628
0 0 0 0 0 0 0 0 0 0 0 0 0 0 0 0 0 0 0 0 0 0 0 0 6 10 1 0 0 0 271 1775 2032 2150 1986 1840 1544 1477 1507 1363 1031 955 1051 946
0 0 0 0 0 0 0 0 0 0 1 3 0 0 0 0 0 0 0 20 52 5 22 89 164 121 60 16 0 429 1180 1916 2023 2107 1980 1960 1608 1322 1377 1285 1073 1119 1138 1154
0 0 0 0 0 0 0 0 3 35 40 0 0 0 0 0 0 0 274 105 105 112 256 209 194 151 197 146 45 201 2200 2136 1993 2003 2090 2026 1589 1468 1248 1097 983 1006 997 1125
0 0 0 0 0 0 0 14 0 0 0 0 0 0 0 1 0 0 54 43 87 145 254 352 374 362 401 193 92 46 2168 1984 1891 1959 1965 1890 1539 1313 1069 1016 870 679 510 809
0 0 0 0 1 0 0 9 0 0 0 0 5 0 0 44 48 64 15 0 5 43 50 160 275 428 414 261 151 98 1517 1905 1836 1715 1974 1605 1332 1131 1048 821 574 511 604 581
0 0 0 0 0 34 18 20 1 1 0 0 19 1 58 24 29 61 26 0 0 32 37 68 232 382 437 284 163 188 595 1855 1564 1522 1447 1298 1248 1203 1039 892 765 916 944 763
9 0 0 0 0 0 25 55 0 0 0 0 0 58 34 0 5 19 7 0 0 12 4 53 177 416 333 304 248 434 538 561 1015 1198 1114 1152 1277 1080 1105 1235 1119 1330 817 565
2 0 0 0 0 4 68 13 10 14 2 0 0 0 0 0 0 2 0 0 0 1 0 1 175 224 256 180 317 375 427 503 604 792 913 1060 1182 1255 1377 1525 762 938 625 435
0 0 0 0 0 0 2 11 13 0 0 0 0 0 0 0 0 0 0 0 0 0 0 0 32 157 137 197 196 129 118 189 182 349 395 643 871 1290 914 617 631 509 334 142
0 0 0 0 11 0 9 7 3 26 0 27 10 0 0 0 0 0 0 0 0 0 0 0 0 97 164 123 113 65 95 251 278 529 506 531 646 662 824 932 420 309 43 6
0 0 0 0 0 0 0 1 9 10 0 0 0 1 0 0 0 0 0 0 0 0 0 0 0 4 91 88 28 77 5 43 232 257 478 510 522 471 651 228 97 37 4 0
0 0 0 0 0 0 0 5 0 3 0 0 0 0 0 0 0 0 0 0 0 0 0 0 0 0 4 16 56 15 23 67 175 90 232 135 214 356 317 108 17 18 5 12
0 2 0 0 0 0 5 0 2 2 0 0 0 0 0 0 0 0 0 0 0 0 0 0 0 0 0 6 11 13 11 18 106 123 133 203 425 302 17 15 19 20 11 3
0 0 3 6 0 2 0 11 4 0 0 0 0 0 0 0 0 0 0 0 0 0 0 0 0 0 0 0 18 21 17 24 53 66 85 134 95 111 9 0 17 37 29 14
1 0 0 8 0 0 0 0 0 0 0 0 0 0 0 0 0 0 0 0 0 0 0 0 0 0 0 0 0 11 6 18 27 53 76 83 79 125 56 58 54 23 30 37
0 0 0 0 0 0 0 0 0 0 0 0 0 0 0 0 0 0 0 0 0 0 0 0 0 0 0 0 0 0 0 17 19 33 65 89 111 84 64 116 115 47 11 18
0 0 0 0 0 0 0 0 0 0 0 0 0 0 0 0 0 0 0 0 0 0 0 0 0 0 0 0 0 0 0 0 18 24 16 39 60 46 12 35 52 19 15 44
0 0 0 0 0 0 0 0 0 0 0 0 0 0 0 0 0 0 0 0 0 0 0 0 0 0 0 0 0 0 0 0 0 0 2 10 51 30 0 22 41 22 17 12
0 0 0 0 0 0 0 0 0 0 0 0 0 0 0 0 0 0 0 0 0 0 0 0 0 0 0 0 0 0 0 0 0 0 0 0 0 0 0 0 3 0 0 0
0 0 0 0 0 0 0 0 0 0 0 0 0 0 0 0 0 0 0 0 0 0 0 0 0 0 0 0 0 0 0 0 0 0 0 0 0 0 0 0 0 0 1 0
0 0 0 0 0 0 0 0 0 0 0 0 0 0 0 0 0 0 0 0 0 0 0 0 0 0 0 0 0 0 0 0 0 0 0 0 0 0 0 0 0 0 0 0
0 0 0 0 0 0 0 0 0 0 0 0 0 0 0 0 0 0 0 0 0 0 0 0 0 0 0 0 0 0 0 0 0 0 0 0 0 0 0 0 0 0 0 0
0 0 0 0 0 0 0 0 0 0 0 0 0 0 0 0 0 0 0 0 0 0 0 0 0 0 0 0 0 0 0 0 0 0 0 0 0 0 0 0 0 0 0 0

GFSCGP_con_mucape_105.txt.gz
CAPE
0 0 0 0 0 0 0 0 0 0 0 0 0 0 0 0 0 0 0 0 0 0 0 0 0 0 0 0 0 0 283 2208 2336 2417 2213 2201 2140 1887 1753 1631 1287 1249 1301 1605
0 0 0 0 0 0 0 0 0 0 0 0 0 0 0 0 0 0 0 0 0 0 0 0 0 0 0 0 0 0 87 1633 2147 2221 2226 2005 1948 1933 1690 1570 1583 1490 1402 1462
0 0 0 0 0 0 0 0 0 0 0 0 0 0 0 0 0 0 0 0 0 0 0 0 0 0 0 0 0 0 9 794 1890 2149 2079 2047 1729 1615 1653 1589 1734 1685 1639 1543
0 0 0 0 0 0 0 0 0 0 0 0 0 0 0 0 0 0 0 7 35 17 1 0 0 19 16 4 0 0 0 663 1611 2064 1923 1713 1545 1387 1570 1533 1680 1784 1717 1757
0 0 0 0 0 0 0 0 0 0 0 0 0 0 0 0 0 0 12 192 65 12 23 26 44 87 171 255 172 43 0 244 1348 1987 1898 1644 1498 1315 1314 1356 1493 1647 1628 1553
0 0 0 0 0 0 0 0 0 0 0 0 0 0 0 0 0 9 79 29 106 128 86 66 161 295 393 335 204 156 574 743 1646 2049 1914 1605 1532 1418 1394 1258 1114 1267 1303 1303
0 0 0 0 0 0 0 0 0 0 0 0 0 0 0 53 99 57 16 7 28 119 238 223 253 372 362 426 306 276 1716 1996 1927 2098 1895 1656 1501 1379 1365 1256 1219 1061 979 949
0 0 0 0 0 0 0 0 0 0 0 0 3 0 20 11 51 34 34 6 0 36 26 112 115 214 267 513 471 302 985 2024 2080 1976 1961 1671 1534 1417 1467 1237 1146 878 994 1310
0 0 0 0 0 0 0 0 0 0 0 0 0 0 72 3 2 11 10 0 0 0 0 36 76 87 243 364 385 361 528 1318 1644 1880 2150 2020 1529 1484 1522 1132 915 728 848 851
0 0 0 0 0 0 0 0 0 0 0 0 0 0 0 0 0 0 0 0 1 1 0 2 44 64 147 137 335 414 339 893 1231 1617 1905 1817 1412 1260 966 918 810 853 534 464
0 0 0 0 0 0 2 34 4 2 0 0 0 0 0 0 0 0 0 0 0 1 6 0 30 107 219 263 312 268 347 284 506 1181 1618 1286 908 814 837 802 834 675 701 775
0 0 0 0 0 0 0 0 3 0 0 0 0 0 0 0 0 0 0 0 0 0 0 0 9 48 246 178 211 298 256 319 217 311 387 697 684 743 742 626 756 942 751 638
0 0 0 1 3 0 1 1 1 97 39 0 0 0 0 0 0 0 0 0 0 0 0 0 0 1 86 92 183 148 188 107 144 164 116 204 471 518 499 664 574 464 443 177
0 0 0 0 0 0 0 0 0 2 0 0 0 0 0 0 0 0 0 0 0 0 0 0 0 0 2 105 124 124 81 79 93 184 269 289 210 326 379 296 349 415 234 224
0 0 2 0 0 0 0 1 0 6 0 0 0 0 0 0 0 0 0 0 0 0 0 0 0 0 1 6 86 67 31 116 82 205 102 139 121 136 157 199 213 234 63 6
0 1 0 1 0 0 4 0 1 7 1 0 0 0 0 0 0 0 0 0 0 0 0 0 0 0 0 2 17 10 18 46 55 70 44 76 107 74 65 148 71 0 1 12
0 0 2 0 0 0 0 0 0 0 0 0 0 0 0 0 0 0 0 0 0 0 0 0 0 0 0 0 4 29 16 17 2 18 46 40 50 49 47 102 6 0 0 0
0 0 0 0 0 0 0 0 0 0 0 0 0 0 0 0 0 0 0 0 0 0 0 0 0 0 0 0 0 1 0 11 14 20 47 71 56 69 48 71 48 2 0 0
0 0 1 0 0 0 0 0 0 0 0 0 0 0 0 0 0 0 0 0 0 0 0 0 0 0 0 0 0 0 0 0 11 9 26 25 27 62 41 149 59 65 14 2
0 0 0 0 0 0 0 0 0 0 0 0 0 0 0 0 0 0 0 0 0 0 0 0 0 0 0 0 0 0 0 0 0 8 14 1 8 12 51 73 64 39 73 17
0 0 0 0 0 0 0 0 0 0 0 0 0 0 0 0 0 0 0 0 0 0 0 0 0 0 0 0 0 0 0 0 0 0 1 7 1 4 3 4 4 6 9 8
0 0 0 0 0 0 0 0 0 0 0 0 0 0 0 0 0 0 0 0 0 0 0 0 0 0 0 0 0 0 0 0 0 0 0 0 0 0 0 0 0 0 1 0
0 0 0 0 0 0 0 0 0 0 0 0 0 0 0 0 0 0 0 0 0 0 0 0 0 0 0 0 0 0 0 0 0 0 0 0 0 0 0 0 0 0 0 0
0 0 0 0 0 0 0 0 0 0 0 0 0 0 0 0 0 0 0 0 0 0 0 0 0 0 0 0 0 0 0 0 0 0 0 0 0 0 0 0 0 0 0 0
0 0 0 0 0 0 0 0 0 0 0 0 0 0 0 0 0 0 0 0 0 0 0 0 0 0 0 0 0 0 0 0 0 0 0 0 0 0 0 0 0 0 0 0
0 0 0 0 0 0 0 0 0 0 0 0 0 0 0 0 0 0 0 0 0 0 0 0 0 0 0 0 0 0 0 0 0 0 0 0 0 0 0 0 0 0 0 0

GFSCGP_con_mucape_108.txt.gz
CAPE
0 0 0 0 0 0 0 0 0 0 0 0 0 0 0 0 0 0 0 0 0 0 0 0 0 0 0 0 0 0 0 34 1798 1931 1773 1780 1749 1834 1652 1430 1052 1079 1241 1743
0 0 0 0 0 0 0 0 0 0 0 0 0 0 0 0 0 0 0 0 0 0 0 0 0 0 0 0 0 0 0 0 1172 1459 1867 1774 1763 1770 1485 1401 1334 976 1003 1184
0 0 0 0 0 0 0 0 0 0 0 0 0 0 0 0 0 0 0 0 0 0 0 0 0 0 0 0 0 0 0 0 434 1397 1992 1913 1973 1673 1574 1491 1580 1466 1173 1058
0 0 0 0 0 0 0 0 0 0 0 0 0 0 0 0 0 0 0 0 0 0 0 0 0 0 0 0 0 0 2 0 459 1680 1923 1715 1621 1561 1260 1605 1702 1555 1430 1163
0 0 0 0 0 0 0 0 0 0 0 0 0 0 0 0 0 0 0 0 9 21 18 19 0 0 0 4 63 40 17 79 0 1510 1757 1866 1722 1512 1288 1372 1592 1627 1618 1495
0 0 0 0 0 0 0 0 0 0 0 0 0 0 0 0 0 0 4 5 4 14 39 86 79 1 41 124 250 179 151 402 1 1394 1868 1889 1662 1493 1351 1335 1208 1932 1593 1487
0 0 0 0 0 0 0 0 0 0 0 0 0 0 0 0 2 0 0 4 0 10 30 154 120 43 297 389 455 377 613 1045 603 1429 1911 1913 1631 1465 1311 1262 1254 1760 1863 1622
0 0 0 0 0 0 0 0 0 0 0 0 0 0 0 0 1 2 1 2 0 4 2 23 79 145 347 401 579 504 985 1454 1563 1865 1870 1922 1699 1553 1374 1203 1028 1402 1352 1354
0 0 0 0 0 0 0 0 0 0 0 0 0 0 0 0 0 0 0 1 0 9 0 13 4 87 237 175 199 337 592 964 1500 2187 1953 1921 1886 1518 1452 1328 1220 1107 1066 1061
0 0 0 0 0 0 0 0 0 0 0 0 0 0 0 0 0 0 0 0 0 1 0 0 4 4 62 71 124 158 261 517 823 1374 1672 1731 1734 1488 1380 1354 1304 1305 937 713
0 0 0 0 0 0 0 0 0 0 0 0 0 0 0 0 0 0 0 0 0 0 0 2 2 0 11 95 79 144 233 427 543 871 1393 1563 1547 1481 1556 1281 1277 881 602 664
0 0 0 0 0 0 0 0 0 0 0 0 0 0 0 0 0 0 0 0 0 0 0 0 0 8 36 68 263 322 268 189 409 559 942 1177 1385 1608 1476 1084 779 669 693 580
0 0 0 0 0 0 0 0 0 0 0 0 0 0 0 0 0 0 0 0 0 0 0 0 0 11 74 121 129 143 176 171 137 233 355 439 724 1060 757 633 530 499 447 521
0 0 0 0 0 0 0 0 0 0 0 0 0 0 0 0 0 0 0 0 0 0 0 0 2 6 6 90 100 151 132 108 123 162 132 110 160 164 242 272 252 308 292 135
0 0 0 0 0 0 0 1 1 1 0 0 0 0 0 0 0 0 0 0 0 0 0 1 1 2 1 4 21 104 73 130 116 158 130 100 170 224 234 216 92 60 58 68
0 0 0 0 0 0 0 0 0 0 0 0 0 0 0 0 0 0 0 0 0 0 0 2 0 0 0 3 35 27 42 75 55 126 108 123 4 74 75 29 30 2 38 72
0 0 0 0 0 0 0 0 0 0 0 0 0 0 0 0 0 0 0 0 0 0 0 0 0 0 1 0 1 71 34 33 31 52 55 57 5 83 33 21 17 28 5 6
0 0 1 2 0 0 0 0 0 0 0 0 0 0 0 0 0 0 0 0 0 0 0 0 0 0 0 0 0 0 0 13 31 16 13 2 0 0 38 18 34 50 7 0
0 0 0 0 0 0 0 0 0 0 0 0 0 0 0 0 0 0 0 0 0 0 0 0 0 0 0 0 0 0 0 0 1 23 7 1 8 14 1 20 28 20 17 1
0 0 0 0 0 0 0 0 0 0 0 0 0 0 0 0 0 0 0 0 0 0 0 0 0 0 0 0 0 0 0 0 0 0 5 3 5 0 2 4 13 60 60 41
0 10 0 0 0 0 0 0 0 0 0 0 0 0 0 0 0 0 0 0 0 0 0 0 0 0 0 0 0 0 0 0 0 0 0 0 3 2 3 18 0 4 19 25
2 9 0 0 0 4 0 0 0 0 0 0 0 0 0 0 0 0 0 0 0 0 0 0 0 0 0 0 0 0 0 0 0 0 0 0 0 0 0 0 0 0 0 0
0 0 0 0 0 0 0 0 0 0 0 0 0 0 0 0 0 0 0 0 0 0 0 0 0 0 0 0 0 0 0 0 0 0 0 0 0 0 0 0 0 0 0 0
0 0 0 0 0 0 0 0 0 0 0 0 0 0 0 0 0 0 0 0 0 0 0 0 0 0 0 0 0 0 0 0 0 0 0 0 0 0 0 0 0 0 0 0
0 0 0 0 0 0 0 0 0 0 0 0 0 0 0 0 0 0 0 0 0 0 0 0 0 0 0 0 0 0 0 0 0 0 0 0 0 0 0 0 0 0 0 0
0 0 0 0 0 0 0 0 0 0 0 0 0 0 0 0 0 0 0 0 0 0 0 0 0 0 0 0 0 0 0 0 0 0 0 0 0 0 0 0 0 0 0 0

GFSCGP_con_mucape_111.txt.gz
CAPE
0 0 0 0 0 0 0 0 0 0 0 0 0 0 0 0 0 0 0 0 0 0 0 0 0 0 0 0 0 0 0 0 123 1345 1759 1638 1378 1747 1761 1484 1510 1354 1243 1209
0 0 0 0 0 0 0 0 0 0 0 0 0 0 0 0 0 0 0 0 0 0 0 0 0 0 0 0 0 0 0 0 0 587 1523 1716 1613 1571 1760 1602 1333 1227 1198 1256
0 0 0 0 0 0 0 0 0 0 0 0 0 0 0 0 0 0 0 0 0 0 0 0 0 0 0 0 0 0 0 0 0 0 890 2009 2103 2166 1504 1365 1420 1463 1461 1262
0 0 0 0 0 0 0 0 0 0 0 0 0 0 0 0 0 0 0 0 0 0 0 0 0 0 0 0 0 0 0 0 0 0 93 1733 1766 1554 1406 1604 1617 1435 1435 1489
0 0 0 0 0 0 0 0 0 0 0 0 0 0 0 0 0 0 0 0 0 0 0 0 0 0 0 0 0 0 0 0 0 0 110 1844 2052 1983 1902 2153 2051 1551 1424 1765
0 0 0 0 0 0 0 0 0 0 0 0 0 0 0 0 0 0 0 0 0 0 0 0 0 0 0 5 5 3 0 14 0 144 154 1715 2196 2060 2175 2203 1816 1829 1488 1446
0 0 0 0 0 0 0 0 0 0 0 0 0 0 0 0 0 0 0 0 0 0 0 0 0 0 0 0 29 143 94 141 143 375 304 1677 2261 2422 2315 2107 1974 1547 1501 1208
0 0 0 0 0 0 0 0 0 0 0 0 0 0 0 0 0 0 0 0 0 0 0 0 0 0 5 45 155 237 229 257 359 558 494 1519 1641 1764 2161 2092 1949 1762 1471 1368
0 0 0 0 0 0 0 0 0 0 0 0 0 0 0 0 0 0 0 0 0 0 0 0 0 0 4 4 80 199 351 357 640 706 851 1295 1697 1684 1908 1917 1994 1942 1593 1124
0 0 0 0 0 0 0 0 0 0 0 0 0 0 0 0 0 0 0 0 0 0 0 0 0 0 0 0 122 123 153 238 425 688 1261 1464 1872 1497 1528 1683 1703 1655 1494 944
0 0 0 0 0 0 0 0 0 0 0 0 0 0 0 0 0 0 0 0 0 0 0 0 0 0 4 0 26 41 98 102 142 421 912 1628 1687 1673 1341 1353 1582 1452 1236 1035
0 0 0 0 0 0 0 0 0 0 0 0 0 1 0 0 0 0 0 0 0 0 0 0 0 0 4 0 2 42 133 151 79 118 631 1165 1448 1365 1404 1239 1387 1986 1351 1362
0 0 0 0 0 8 0 0 0 0 0 0 0 0 0 0 0 0 0 0 1 0 0 0 0 10 0 56 95 92 100 37 113 145 402 808 915 981 1066 1096 1408 1226 1149 884
0 0 0 0 0 0 0 0 0 0 0 0 0 0 0 0 0 0 0 0 0 0 0 10 15 5 12 37 42 31 127 6 28 96 145 274 394 422 505 576 687 657 514 603
0 0 0 0 0 0 0 0 0 0 0 0 0 0 0 0 0 0 0 0 0 1 0 2 1 3 9 6 12 17 57 64 16 9 71 110 134 129 180 236 279 235 251 207
0 0 0 0 0 0 0 0 0 0 0 0 0 0 0 0 0 0 0 0 0 0 0 0 0 2 7 8 12 0 4 30 37 8 104 97 135 197 226 228 178 149 136 67
0 0 0 0 0 0 0 0 0 0 0 0 0 0 0 0 0 0 0 0 0 0 0 0 0 0 0 0 0 10 1 3 28 18 0 17 45 3 70 95 47 30 1 0
0 0 0 0 1 0 0 0 0 0 0 0 0 0 0 0 0 0 0 0 0 0 0 0 0 0 0 0 0 0 0 2 0 2 6 0 1 0 0 0 0 0 1 0
0 0 0 7 0 0 0 0 0 0 0 0 0 0 0 0 0 0 0 0 0 0 0 0 0 0 0 0 0 0 0 0 0 9 2 0 0 0 0 0 0 0 0 17
0 0 0 0 3 0 0 0 0 0 0 0 0 0 0 0 0 0 0 0 0 0 0 0 0 0 0 0 0 0 0 0 0 0 0 0 0 0 0 0 0 0 7 15
0 0 0 0 0 0 0 0 0 0 0 0 0 0 0 0 0 0 0 0 0 0 0 0 0 0 0 0 0 0 0 0 0 0 0 0 0 0 0 0 0 1 0 0
0 0 0 0 0 0 0 0 0 0 0 0 0 0 0 0 0 0 0 0 0 0 0 0 0 0 0 0 0 0 0 0 0 0 0 0 0 0 0 0 0 0 0 0
0 0 0 0 0 0 0 0 0 0 0 0 0 0 0 0 0 0 0 0 0 0 0 0 0 0 0 0 0 0 0 0 0 0 0 0 0 0 0 0 0 0 0 0
0 0 0 0 0 0 0 0 0 0 0 0 0 0 0 0 0 0 0 0 0 0 0 0 0 0 0 0 0 0 0 0 0 0 0 0 0 0 0 0 0 0 0 0
0 0 0 0 0 0 0 0 0 0 0 0 0 0 0 0 0 0 0 0 0 0 0 0 0 0 0 0 0 0 0 0 0 0 0 0 0 0 0 0 0 0 0 0
0 0 0 0 0 0 0 0 0 0 0 0 0 0 0 0 0 0 0 0 0 0 0 0 0 0 0 0 0 0 0 0 0 0 0 0 0 0 0 0 0 0 0 0

GFSCGP_con_mucape_114.txt.gz
CAPE
0 0 0 0 0 0 0 0 0 0 0 0 0 0 0 0 0 0 0 0 0 0 0 0 0 0 0 0 0 0 0 0 0 2 418 1027 1966 2146 2408 2536 2476 2492 2808 2845
0 0 0 0 0 0 0 0 0 0 0 0 0 0 0 0 0 0 0 0 0 0 0 0 0 0 0 0 0 0 0 0 0 0 0 717 1271 1652 1799 2369 2797 2635 2448 2498
0 0 0 0 0 0 0 0 0 0 0 0 0 0 0 0 0 0 0 0 0 0 0 0 0 0 0 0 0 0 0 0 0 0 0 0 884 1395 1691 2279 2877 2917 2396 2394
0 0 0 0 0 0 0 0 0 0 0 0 0 0 0 0 0 0 0 0 0 0 0 0 0 0 0 0 0 0 0 0 0 0 0 0 22 954 1568 1771 2152 2554 2809 2464
0 0 0 0 0 0 0 0 0 0 0 0 0 0 0 0 0 0 0 0 0 0 0 0 0 0 0 0 0 0 0 0 0 0 6 5 5 1126 1322 2036 1943 2164 2276 1977
0 0 0 0 0 0 0 0 0 0 0 0 0 0 0 0 0 0 0 0 0 0 0 0 0 0 0 0 0 0 0 0 0 0 0 15 199 482 1442 1657 2146 2386 2306 1652
0 0 0 0 0 0 0 0 0 0 0 0 0 0 0 0 0 0 0 0 0 0 0 0 0 0 0 0 0 0 0 0 0 0 7 0 76 586 1943 1679 2364 2392 1972 1530
0 0 0 0 0 0 0 0 0 0 0 0 0 0 0 0 0 0 0 0 0 0 0 0 0 0 0 0 0 0 1 0 43 82 54 69 95 922 1800 2039 2048 2305 2034 1627
0 0 0 0 0 0 0 0 0 0 0 0 0 0 0 0 0 0 0 0 0 0 0 0 0 0 0 0 0 0 0 73 179 144 164 260 395 1343 2056 2254 2592 2484 2284 1584
0 0 0 0 0 0 0 0 0 0 0 0 0 0 0 0 0 0 0 0 0 0 0 0 0 0 0 0 0 0 1 148 238 254 364 471 630 1179 2176 2182 2217 2153 2423 2159
0 0 0 0 0 0 0 0 0 0 0 0 0 0 0 0 0 0 0 0 0 0 0 0 0 0 0 0 0 0 0 147 109 122 248 584 915 1647 2256 2077 2043 2266 2259 1864
0 0 0 0 0 0 0 0 0 0 0 0 0 0 0 0 0 0 0 0 0 0 0 0 0 0 0 0 0 0 22 25 108 94 161 711 1504 1532 1789 1807 1881 1962 1727 1695
0 0 0 0 7 7 3 0 0 0 0 0 0 0 0 0 0 0 0 0 0 0 0 1 0 0 0 8 0 0 0 2 105 124 112 292 1011 1205 1273 1174 1290 1375 1276 1113
18 0 0 0 0 0 0 0 0 0 0 0 0 0 0 0 0 0 0 0 0 1 0 4 0 8 13 7 2 5 16 0 15 190 77 234 584 1080 1066 1058 987 1218 938 951
0 0 0 0 0 0 0 0 0 0 0 0 0 0 0 0 0 0 0 0 0 2 0 2 13 11 12 2 10 5 3 0 0 41 103 200 354 467 441 675 516 599 507 506
0 0 0 0 0 0 0 0 0 0 0 0 0 0 0 0 0 0 0 0 0 3 0 0 0 1 1 0 1 3 0 25 0 1 0 0 24 152 226 336 446 527 353 293
0 0 0 0 0 0 0 0 0 0 0 0 0 0 0 0 0 0 0 0 0 0 0 0 0 0 0 0 0 0 0 0 0 3 0 0 0 0 129 105 51 138 146 198
0 0 0 0 0 0 0 0 0 0 0 0 0 0 0 0 0 0 0 0 0 0 0 0 0 0 0 0 0 0 2 1 0 0 4 0 0 0 0 37 4 34 3 98
0 0 0 0 0 0 0 0 0 0 0 0 0 0 0 0 0 0 0 0 0 0 0 0 0 0 0 0 0 0 0 0 0 0 0 0 0 0 0 0 0 0 0 0
0 0 0 0 0 0 0 0 0 0 0 0 0 0 0 0 0 0 0 0 0 0 0 0 0 0 0 0 0 0 0 0 0 0 0 0 0 0 0 0 0 0 0 0
0 0 0 0 0 0 0 0 0 0 0 0 0 0 0 0 0 0 0 0 0 0 0 0 0 0 0 0 0 0 0 0 0 0 0 0 0 0 0 0 0 0 0 0
0 0 0 0 0 0 0 0 0 0 0 0 0 0 0 0 0 0 0 0 0 0 0 0 0 0 0 0 0 0 0 0 0 0 0 0 0 0 0 0 0 0 0 0
0 0 0 0 0 0 0 0 0 0 0 0 0 0 0 0 0 0 0 0 0 0 0 0 0 0 0 0 0 0 0 0 0 0 0 0 0 0 0 0 0 0 0 0
0 0 0 0 0 0 0 0 0 0 0 0 0 0 0 0 0 0 0 0 0 0 0 0 0 0 0 0 0 0 0 0 0 0 0 0 0 0 0 0 0 0 0 0
0 0 0 0 0 0 0 0 0 0 0 0 0 0 0 0 0 0 0 0 0 0 0 0 0 0 0 0 0 0 0 0 0 0 0 0 0 0 0 0 0 0 0 0
0 0 0 0 0 0 0 0 0 0 0 0 0 0 0 0 0 0 0 0 0 0 0 0 0 0 0 0 0 0 0 0 0 0 0 0 0 0 0 0 0 0 0 0

GFSCGP_con_mucape_117.txt.gz
CAPE
0 0 0 0 0 0 0 0 0 0 0 0 0 0 0 0 0 0 0 0 0 0 0 0 0 0 0 0 0 0 0 0 0 0 0 28 1726 2151 2723 2842 3081 2670 3117 3639
0 0 0 0 0 0 0 0 0 0 0 0 0 0 0 0 0 0 0 0 0 0 0 0 0 0 0 0 0 0 0 0 0 0 0 0 6 1150 2272 2677 2866 3300 3430 3579
0 0 0 0 0 0 0 0 0 0 0 0 0 0 0 0 0 0 0 0 0 0 0 0 0 0 0 0 0 0 0 0 0 1 0 0 16 7 1520 2343 2586 2998 3395 3607
0 0 0 0 0 0 0 0 0 0 0 0 0 0 0 0 0 0 0 0 0 0 0 0 0 0 0 0 0 0 0 0 0 2 1 0 0 0 443 2095 2392 2405 3257 3482
0 0 0 0 0 0 0 0 0 0 0 0 0 12 0 0 0 23 0 0 0 0 0 0 0 0 0 0 0 0 0 0 0 0 0 6 3 2 93 263 2328 2482 2879 3082
0 0 0 0 0 0 0 0 0 0 0 6 6 0 0 0 0 0 0 0 0 0 0 0 0 0 0 0 0 0 0 0 0 0 0 0 0 6 16 302 1102 1993 2406 2679
0 0 0 0 0 0 0 0 0 0 0 0 0 0 0 0 0 0 0 0 0 0 0 0 0 0 0 0 0 0 0 0 0 0 0 0 0 0 8 13 601 1830 2224 2514
1 6 0 0 0 0 0 0 0 0 0 0 0 0 47 0 0 0 0 0 0 0 0 0 0 0 0 0 0 0 0 0 0 0 0 0 0 0 6 27 625 785 2215 2726
0 1 0 0 0 0 0 0 0 0 0 0 0 0 0 0 0 0 0 0 0 0 0 0 0 0 0 0 0 0 0 0 0 0 0 0 10 2 0 67 1032 1478 2052 2724
0 1 0 0 0 0 0 0 0 0 0 0 0 0 0 0 0 0 0 0 0 0 0 0 0 0 0 0 0 0 0 0 0 0 13 28 60 52 35 344 1415 2051 2262 2538
0 0 0 0 0 0 0 0 0 0 0 0 0 0 0 0 0 0 0 0 0 0 0 0 0 0 0 0 0 0 0 0 0 11 29 90 241 132 172 674 1798 2390 2277 1960
0 0 0 0 0 0 0 0 0 0 0 0 0 0 0 0 0 0 0 0 0 0 0 0 0 0 0 0 0 0 0 0 0 2 25 135 157 293 479 1143 1475 2074 1712 1818
0 0 0 0 0 4 0 29 0 31 70 0 0 0 0 0 0 0 0 0 0 0 5 3 0 0 0 0 2 0 0 0 0 20 5 61 320 634 970 764 552 955 1055 1077
1 0 0 0 0 0 1 27 36 48 0 0 53 0 0 0 0 0 0 0 0 0 4 6 6 0 0 0 0 0 0 0 0 11 18 52 134 390 841 916 717 850 1067 1191
0 0 0 0 0 0 0 0 3 19 12 0 0 0 0 0 0 0 0 0 0 0 0 9 8 0 0 0 0 0 0 0 0 0 7 26 79 334 478 634 704 929 946 994
11 0 0 0 0 11 39 21 0 0 0 0 0 0 0 0 0 0 0 0 0 0 0 0 0 0 0 0 0 0 0 0 0 0 0 0 0 18 140 227 329 573 646 643
15 18 0 0 0 0 0 0 0 0 0 0 0 0 0 0 0 0 0 0 0 0 0 0 0 0 0 0 0 0 0 0 0 0 0 0 0 0 33 127 213 212 260 343
39 0 0 0 0 0 0 0 0 0 0 0 0 0 0 0 0 0 0 0 0 0 0 0 0 0 0 0 0 0 0 0 0 0 0 0 0 0 0 0 28 109 154 21
0 0 0 0 47 0 0 0 0 0 0 0 0 0 0 0 0 0 0 0 0 0 0 0 0 0 0 0 0 0 0 0 0 0 0 0 0 0 0 0 0 0 0 0
0 0 0 0 0 4 0 0 0 0 0 0 0 0 0 0 0 0 0 0 0 0 0 0 0 0 0 0 0 0 0 0 0 0 0 0 0 0 0 0 0 0 0 0
0 0 0 0 0 0 0 0 0 0 0 0 0 0 0 0 0 0 0 0 0 0 0 0 0 0 0 0 0 0 0 0 0 0 0 0 0 0 0 0 0 0 0 0
24 0 39 0 24 0 0 0 0 0 0 0 0 0 0 0 0 0 0 0 0 0 0 0 0 0 0 0 0 0 0 0 0 0 0 0 0 0 0 0 0 0 0 0
0 0 9 0 2 0 0 0 0 0 0 0 0 0 0 0 0 0 0 0 0 0 0 0 0 0 0 0 0 0 0 0 0 0 0 0 0 0 0 0 0 0 0 0
0 0 0 0 0 0 0 0 0 0 0 0 0 0 0 0 0 0 0 0 0 0 0 0 0 0 0 0 0 0 0 0 0 0 0 0 0 0 0 0 0 0 0 0
0 0 0 0 0 0 0 0 0 0 0 0 0 0 0 0 0 0 0 0 0 0 0 0 0 0 0 0 0 0 0 0 0 0 0 0 0 0 0 0 0 0 0 0
0 0 0 0 0 0 0 0 0 0 0 0 0 0 0 0 0 0 0 0 0 0 0 0 0 0 0 0 0 0 0 0 0 0 0 0 0 0 0 0 0 0 0 0

GFSCGP_con_mucape_120.txt.gz
CAPE
0 0 0 0 0 0 0 0 0 0 0 0 0 0 0 0 0 0 0 0 0 0 0 0 0 0 0 0 0 0 0 0 0 0 0 0 0 236 1985 2306 2323 2249 2359 2557
0 0 0 0 0 0 0 0 0 0 0 0 0 0 0 0 0 0 0 0 0 0 0 0 0 0 0 0 0 0 0 0 0 0 0 0 0 0 136 1544 2304 2426 2327 2564
0 0 0 0 0 0 0 0 0 0 0 0 0 0 0 0 0 0 0 0 0 0 0 0 0 0 0 0 0 0 0 0 0 0 0 0 0 0 0 570 1250 2359 2433 2293
0 0 0 0 0 0 0 0 0 0 0 0 0 0 0 0 0 0 0 0 0 0 0 0 0 0 0 0 0 0 0 0 0 0 0 0 0 0 0 1 473 1501 2289 2432
0 0 0 0 0 0 0 0 0 0 0 0 0 0 0 0 0 0 0 0 0 0 0 0 0 0 0 0 0 0 0 0 0 0 0 0 0 0 0 0 0 159 1284 2084
0 0 0 0 0 0 0 0 0 0 0 0 0 0 0 0 0 0 0 0 0 0 0 0 0 0 0 0 0 0 0 0 0 0 0 0 0 0 0 0 0 4 363 1093
0 0 0 0 0 0 0 0 0 0 0 0 0 0 6 0 0 0 0 0 0 0 0 0 0 0 0 0 0 0 0 0 0 0 0 0 0 0 0 0 0 0 22 308
0 0 0 0 0 0 0 0 3 0 0 0 0 0 0 0 0 0 0 0 0 0 0 0 0 0 0 0 0 0 0 0 0 0 0 0 0 0 0 0 0 0 0 12
0 0 0 0 0 0 0 0 0 0 0 0 0 0 2 0 0 0 0 0 0 0 0 0 0 0 0 0 0 0 0 0 0 0 0 0 0 0 0 0 0 0 0 1
0 0 0 0 0 0 0 0 0 0 0 0 0 0 0 0 0 0 0 0 0 0 0 0 0 0 0 0 0 0 0 0 0 0 0 0 0 0 0 0 0 0 0 3
0 0 0 0 0 0 0 0 0 0 0 0 0 0 3 1 0 0 0 0 0 0 0 0 0 0 0 0 0 0 0 0 0 0 0 2 0 0 1 0 0 0 0 5
0 0 0 0 0 0 0 0 0 0 0 0 0 0 0 0 0 0 0 0 0 0 0 0 0 0 0 0 0 0 0 0 0 0 0 0 0 2 27 92 2 82 0 137
0 0 0 0 0 0 0 0 3 47 32 0 0 0 0 0 0 0 0 0 0 0 0 0 0 0 0 0 0 0 0 0 0 1 0 0 4 38 92 41 114 422 504 475
0 0 0 0 0 0 0 18 26 51 0 0 17 0 0 0 0 0 0 0 0 0 0 0 0 0 0 0 0 0 0 0 0 0 0 12 19 105 192 272 139 136 161 156
0 0 0 0 0 0 0 0 0 43 18 0 30 0 0 0 0 0 0 0 0 0 0 0 0 0 0 0 0 0 0 0 0 0 0 0 36 67 134 188 284 79 87 19
0 0 0 0 0 0 0 0 0 5 13 0 0 0 0 0 0 0 0 0 0 0 0 0 0 0 0 0 0 0 0 0 0 0 0 0 0 0 52 141 236 240 23 0
0 0 0 0 5 0 0 0 5 22 0 0 0 0 0 0 0 0 0 0 0 0 0 0 0 0 0 0 0 0 0 0 0 0 0 0 0 0 5 37 85 145 159 202
17 0 0 0 12 0 0 0 0 0 0 0 0 0 0 0 0 0 0 0 0 0 0 0 0 0 0 0 0 0 0 0 0 0 0 0 0 0 0 0 0 7 30 73
18 18 0 0 0 0 0 0 0 0 0 0 0 0 0 0 0 0 0 0 0 0 0 0 0 0 0 0 0 0 0 0 0 0 0 0 0 0 0 0 0 0 0 0
31 0 0 0 0 0 4 0 0 0 0 0 0 0 0 0 0 0 0 0 0 0 0 0 0 0 0 0 0 0 0 0 0 0 0 0 0 0 0 0 0 0 0 0
0 0 0 0 0 0 0 0 0 0 0 0 0 0 0 0 0 0 0 0 0 0 0 0 0 0 0 0 0 0 0 0 0 0 0 0 0 0 0 0 0 0 0 0
0 0 0 0 0 0 0 0 0 0 0 0 0 0 0 0 0 0 0 0 0 0 0 0 0 0 0 0 0 0 0 0 0 0 0 0 0 0 0 0 0 0 0 0
10 6 8 1 0 0 0 0 0 0 0 0 0 0 0 0 0 0 0 0 0 0 0 0 0 0 0 0 0 0 0 0 0 0 0 0 0 0 0 0 0 0 0 0
0 0 0 0 0 0 0 0 0 0 0 0 0 0 0 0 0 0 0 0 0 0 0 0 0 0 0 0 0 0 0 0 0 0 0 0 0 0 0 0 0 0 0 0
0 0 0 0 0 0 0 0 0 0 0 0 0 0 0 0 0 0 0 0 0 0 0 0 0 0 0 0 0 0 0 0 0 0 0 0 0 0 0 0 0 0 0 0
0 0 0 0 0 0 0 0 0 0 0 0 0 0 0 0 0 0 0 0 0 0 0 0 0 0 0 0 0 0 0 0 0 0 0 0 0 0 0 0 0 0 0 0

GFSCGP_con_mucape_123.txt.gz
CAPE
0 0 0 0 0 0 0 0 0 0 0 0 0 0 0 0 0 0 0 0 0 0 0 0 0 0 0 0 0 0 0 0 0 0 0 0 0 0 60 190 486 1073 1184 1452
0 0 0 0 0 0 0 0 0 0 0 0 0 0 0 0 0 0 0 0 0 0 0 0 0 0 0 0 0 0 0 0 0 0 0 0 0 0 0 127 105 769 914 1445
0 0 0 0 0 0 0 0 0 0 0 0 0 0 0 0 0 0 0 0 0 0 0 0 0 0 0 0 0 0 0 0 0 0 0 0 0 0 0 0 2 476 561 685
0 0 0 0 0 0 0 0 0 0 0 0 0 0 0 0 0 0 0 0 0 0 0 0 0 0 0 0 0 0 0 0 0 0 0 0 0 0 0 0 0 27 319 562
0 0 0 0 0 0 0 0 0 0 0 0 0 0 0 0 0 0 0 0 0 0 0 0 0 0 0 0 0 0 0 0 0 0 0 0 0 0 0 0 0 0 54 294
0 0 0 0 0 0 0 0 0 0 0 0 0 0 0 0 0 0 0 0 0 0 0 0 0 0 0 0 0 0 0 0 0 0 0 0 0 0 0 0 0 0 0 225
0 0 0 0 0 0 0 0 0 0 0 0 0 0 0 0 0 0 0 0 0 0 0 0 0 0 0 0 0 0 0 0 0 0 0 0 0 0 0 0 0 0 0 0
0 0 0 0 0 0 0 0 0 0 0 0 0 0 0 0 0 0 0 0 0 0 0 0 0 0 0 0 0 0 0 0 0 0 0 0 0 0 0 0 0 0 0 0
0 0 0 0 0 0 0 0 0 0 0 0 0 0 0 0 0 0 0 0 0 0 0 0 0 0 0 0 0 0 0 0 0 0 0 0 0 0 0 0 0 0 0 0
0 0 0 0 0 0 0 0 0 0 0 0 0 0 0 0 0 0 0 0 0 0 0 0 0 0 0 0 0 0 0 0 0 0 0 0 0 0 0 0 0 0 0 0
0 0 0 0 0 0 0 0 0 0 0 0 0 0 0 0 0 0 2 0 0 0 0 0 0 0 0 0 0 0 0 0 0 0 0 0 0 0 0 0 0 0 0 0
0 0 0 0 0 0 0 0 0 0 0 0 0 0 0 0 7 0 0 0 0 0 0 0 0 0 0 0 0 0 0 0 0 0 0 0 0 0 0 0 2 0 0 2
0 0 0 0 0 0 0 0 0 2 0 0 0 0 0 0 0 0 0 0 0 0 0 0 0 0 0 0 0 0 0 0 0 0 0 0 3 2 6 6 7 2 2 13
0 0 0 0 0 0 0 0 0 8 0 0 0 0 0 0 0 0 0 0 0 0 0 0 0 0 0 0 0 0 0 0 0 2 0 0 0 2 17 26 39 3 8 25
0 0 0 0 0 0 0 0 0 0 0 0 0 0 0 0 0 0 0 0 0 0 0 0 0 0 0 0 0 0 0 0 0 0 0 0 0 0 6 32 27 42 11 38
0 0 0 0 0 0 0 0 0 0 0 0 0 0 0 0 0 0 0 0 0 0 0 0 0 0 0 0 0 0 0 0 0 0 0 0 0 0 0 2 0 40 58 20
0 0 0 0 0 0 0 0 0 0 0 0 0 0 0 0 0 0 0 0 0 0 0 0 0 0 0 0 0 0 0 0 0 0 0 0 0 0 0 0 0 0 0 0
0 0 0 0 0 0 0 0 0 0 0 0 0 0 0 0 0 0 0 0 0 0 0 0 0 0 0 0 0 0 0 0 0 0 0 0 0 0 0 0 0 0 0 0
0 0 0 0 0 0 0 0 0 0 0 0 0 0 0 0 0 0 0 0 0 0 0 0 0 0 0 0 0 0 0 0 0 0 0 0 0 0 0 0 0 0 0 0
1 0 0 0 0 0 0 0 0 0 0 0 0 0 0 0 0 0 0 0 0 0 0 0 0 0 0 0 0 0 0 0 0 0 0 0 0 0 0 0 0 0 0 0
0 0 0 0 0 0 0 0 0 0 0 0 0 0 0 0 0 0 0 0 0 0 0 0 0 0 0 0 0 0 0 0 0 0 0 0 0 0 0 0 0 0 0 0
0 0 0 0 0 0 0 0 0 0 0 0 0 0 0 0 0 0 0 0 0 0 0 0 0 0 0 0 0 0 0 0 0 0 0 0 0 0 0 0 0 0 0 0
0 0 0 0 0 0 0 0 0 0 0 0 0 0 0 0 0 0 0 0 0 0 0 0 0 0 0 0 0 0 0 0 0 0 0 0 0 0 0 0 0 0 0 0
0 0 0 1 0 0 0 0 0 0 0 0 0 0 0 0 0 0 0 0 0 0 0 0 0 0 0 0 0 0 0 0 0 0 0 0 0 0 0 0 0 0 0 0
0 0 0 0 0 0 0 0 0 0 0 0 0 0 0 0 0 0 0 0 0 0 0 0 0 0 0 0 0 0 0 0 0 0 0 0 0 0 0 0 0 0 0 0
0 0 0 0 0 0 0 0 0 0 0 0 0 0 0 0 0 0 0 0 0 0 0 0 0 0 0 0 0 0 0 0 0 0 0 0 0 0 0 0 0 0 0 0